<?xml version="1.0" encoding="UTF-8" standalone="no" ?>
<gpx xmlns="http://www.topografix.com/GPX/1/1" xmlns:xsi="http://www.w3.org/2001/XMLSchema-instance" xsi:schemaLocation="http://www.topografix.com/GPX/1/1 http://www.topografix.com/GPX/1/1/gpx.xsd" version="1.1" creator="VisuGPX - https://www.visugpx.com">
  <metadata>
    <name>Engins - Saint Nizier - Lans en Vercors -Engins</name>
    <desc><![CDATA[Engins - Saint Nizier - Lans en Vercors -Engins]]></desc>
  </metadata>
  <trk>
    <name><![CDATA[Engins - Saint Nizier - Lans en Vercors -Engins]]></name>
    <trkseg>
      <trkpt lat="45.19022" lon="5.61971">
        <ele>920.39543270508</ele>
        <time>2019-03-24T12:10:11Z</time>
      </trkpt>
      <trkpt lat="45.19023" lon="5.61974">
        <ele>910.7</ele>
        <time>2019-03-24T12:10:21Z</time>
      </trkpt>
      <trkpt lat="45.19026" lon="5.6198">
        <ele>909.9</ele>
        <time>2019-03-24T12:10:25Z</time>
      </trkpt>
      <trkpt lat="45.19018" lon="5.61976">
        <ele>913.4262136614</ele>
        <time>2019-03-24T12:10:30Z</time>
      </trkpt>
      <trkpt lat="45.19017" lon="5.61972">
        <ele>913.0105825659</ele>
        <time>2019-03-24T12:10:35Z</time>
      </trkpt>
      <trkpt lat="45.19015" lon="5.61968">
        <ele>913.03555350566</ele>
        <time>2019-03-24T12:10:41Z</time>
      </trkpt>
      <trkpt lat="45.19016" lon="5.61963">
        <ele>913.17966425828</ele>
        <time>2019-03-24T12:10:48Z</time>
      </trkpt>
      <trkpt lat="45.19024" lon="5.61963">
        <ele>913.31778140724</ele>
        <time>2019-03-24T12:10:52Z</time>
      </trkpt>
      <trkpt lat="45.19035" lon="5.61962">
        <ele>913.50142484008</ele>
        <time>2019-03-24T12:10:57Z</time>
      </trkpt>
      <trkpt lat="45.19047" lon="5.61961">
        <ele>913.83816630687</ele>
        <time>2019-03-24T12:11:02Z</time>
      </trkpt>
      <trkpt lat="45.19044" lon="5.61958">
        <ele>913.97865789241</ele>
        <time>2019-03-24T12:11:11Z</time>
      </trkpt>
      <trkpt lat="45.19038" lon="5.61959">
        <ele>913.86811131114</ele>
        <time>2019-03-24T12:11:14Z</time>
      </trkpt>
      <trkpt lat="45.19025" lon="5.61961">
        <ele>913.53188622808</ele>
        <time>2019-03-24T12:11:18Z</time>
      </trkpt>
      <trkpt lat="45.19007" lon="5.61964">
        <ele>912.9981560023</ele>
        <time>2019-03-24T12:11:23Z</time>
      </trkpt>
      <trkpt lat="45.18992" lon="5.61967">
        <ele>912.6312351017</ele>
        <time>2019-03-24T12:11:27Z</time>
      </trkpt>
      <trkpt lat="45.18966" lon="5.61972">
        <ele>912.36644726706</ele>
        <time>2019-03-24T12:11:31Z</time>
      </trkpt>
      <trkpt lat="45.18947" lon="5.61973">
        <ele>911.80714559464</ele>
        <time>2019-03-24T12:11:35Z</time>
      </trkpt>
      <trkpt lat="45.18927" lon="5.61973">
        <ele>911.32651382613</ele>
        <time>2019-03-24T12:11:39Z</time>
      </trkpt>
      <trkpt lat="45.18907" lon="5.6197">
        <ele>911.56281694381</ele>
        <time>2019-03-24T12:11:43Z</time>
      </trkpt>
      <trkpt lat="45.18891" lon="5.61964">
        <ele>912.02601777591</ele>
        <time>2019-03-24T12:11:47Z</time>
      </trkpt>
      <trkpt lat="45.1888" lon="5.61957">
        <ele>913.61423600754</ele>
        <time>2019-03-24T12:11:52Z</time>
      </trkpt>
      <trkpt lat="45.1887" lon="5.61948">
        <ele>915.26858877208</ele>
        <time>2019-03-24T12:11:57Z</time>
      </trkpt>
      <trkpt lat="45.18863" lon="5.61941">
        <ele>916.2874892708</ele>
        <time>2019-03-24T12:12:01Z</time>
      </trkpt>
      <trkpt lat="45.18856" lon="5.61933">
        <ele>916.93408935714</ele>
        <time>2019-03-24T12:12:06Z</time>
      </trkpt>
      <trkpt lat="45.18852" lon="5.61928">
        <ele>917.49610100927</ele>
        <time>2019-03-24T12:12:09Z</time>
      </trkpt>
      <trkpt lat="45.18847" lon="5.61921">
        <ele>917.66352145098</ele>
        <time>2019-03-24T12:12:13Z</time>
      </trkpt>
      <trkpt lat="45.18841" lon="5.6191">
        <ele>918.26494289179</ele>
        <time>2019-03-24T12:12:18Z</time>
      </trkpt>
      <trkpt lat="45.18838" lon="5.61904">
        <ele>918.63358398324</ele>
        <time>2019-03-24T12:12:21Z</time>
      </trkpt>
      <trkpt lat="45.18834" lon="5.61893">
        <ele>919.3263511125</ele>
        <time>2019-03-24T12:12:26Z</time>
      </trkpt>
      <trkpt lat="45.18832" lon="5.61885">
        <ele>919.81511773598</ele>
        <time>2019-03-24T12:12:29Z</time>
      </trkpt>
      <trkpt lat="45.1883" lon="5.61873">
        <ele>920.86371639592</ele>
        <time>2019-03-24T12:12:34Z</time>
      </trkpt>
      <trkpt lat="45.18828" lon="5.61862">
        <ele>921.73491956803</ele>
        <time>2019-03-24T12:12:38Z</time>
      </trkpt>
      <trkpt lat="45.18827" lon="5.61855">
        <ele>921.62469098684</ele>
        <time>2019-03-24T12:12:43Z</time>
      </trkpt>
      <trkpt lat="45.18827" lon="5.61852">
        <ele>920.9375503258</ele>
        <time>2019-03-24T12:13:06Z</time>
      </trkpt>
      <trkpt lat="45.18825" lon="5.61845">
        <ele>921.15406563857</ele>
        <time>2019-03-24T12:13:09Z</time>
      </trkpt>
      <trkpt lat="45.18819" lon="5.61823">
        <ele>920.44330024495</ele>
        <time>2019-03-24T12:13:14Z</time>
      </trkpt>
      <trkpt lat="45.18813" lon="5.61785">
        <ele>919.24968569854</ele>
        <time>2019-03-24T12:13:19Z</time>
      </trkpt>
      <trkpt lat="45.18809" lon="5.61754">
        <ele>919.06565625526</ele>
        <time>2019-03-24T12:13:23Z</time>
      </trkpt>
      <trkpt lat="45.18803" lon="5.61724">
        <ele>919.02988451594</ele>
        <time>2019-03-24T12:13:27Z</time>
      </trkpt>
      <trkpt lat="45.18794" lon="5.61685">
        <ele>918.56939916873</ele>
        <time>2019-03-24T12:13:32Z</time>
      </trkpt>
      <trkpt lat="45.18788" lon="5.61653">
        <ele>918.31148899613</ele>
        <time>2019-03-24T12:13:36Z</time>
      </trkpt>
      <trkpt lat="45.18782" lon="5.6162">
        <ele>917.88264307381</ele>
        <time>2019-03-24T12:13:40Z</time>
      </trkpt>
      <trkpt lat="45.18774" lon="5.61587">
        <ele>918.0891667024</ele>
        <time>2019-03-24T12:13:44Z</time>
      </trkpt>
      <trkpt lat="45.18763" lon="5.61558">
        <ele>917.90574969777</ele>
        <time>2019-03-24T12:13:48Z</time>
      </trkpt>
      <trkpt lat="45.1875" lon="5.61529">
        <ele>917.33707974199</ele>
        <time>2019-03-24T12:13:52Z</time>
      </trkpt>
      <trkpt lat="45.18731" lon="5.61492">
        <ele>916.63533685049</ele>
        <time>2019-03-24T12:13:57Z</time>
      </trkpt>
      <trkpt lat="45.18704" lon="5.61485">
        <ele>914.92731856181</ele>
        <time>2019-03-24T12:14:01Z</time>
      </trkpt>
      <trkpt lat="45.18687" lon="5.61532">
        <ele>913.96855118827</ele>
        <time>2019-03-24T12:14:06Z</time>
      </trkpt>
      <trkpt lat="45.1868" lon="5.61563">
        <ele>913.54640468427</ele>
        <time>2019-03-24T12:14:09Z</time>
      </trkpt>
      <trkpt lat="45.18665" lon="5.61599">
        <ele>913.3728725716</ele>
        <time>2019-03-24T12:14:13Z</time>
      </trkpt>
      <trkpt lat="45.18647" lon="5.61629">
        <ele>913.77998943517</ele>
        <time>2019-03-24T12:14:17Z</time>
      </trkpt>
      <trkpt lat="45.18622" lon="5.61653">
        <ele>915.01497468555</ele>
        <time>2019-03-24T12:14:22Z</time>
      </trkpt>
      <trkpt lat="45.18607" lon="5.61666">
        <ele>915.02832964933</ele>
        <time>2019-03-24T12:14:25Z</time>
      </trkpt>
      <trkpt lat="45.18588" lon="5.61687">
        <ele>914.44728825643</ele>
        <time>2019-03-24T12:14:29Z</time>
      </trkpt>
      <trkpt lat="45.18566" lon="5.61709">
        <ele>913.66354485742</ele>
        <time>2019-03-24T12:14:33Z</time>
      </trkpt>
      <trkpt lat="45.18546" lon="5.61734">
        <ele>913.51245706532</ele>
        <time>2019-03-24T12:14:37Z</time>
      </trkpt>
      <trkpt lat="45.18533" lon="5.61753">
        <ele>913.98969068737</ele>
        <time>2019-03-24T12:14:40Z</time>
      </trkpt>
      <trkpt lat="45.1852" lon="5.6178">
        <ele>914.36532727681</ele>
        <time>2019-03-24T12:14:44Z</time>
      </trkpt>
      <trkpt lat="45.18512" lon="5.618">
        <ele>914.46346986702</ele>
        <time>2019-03-24T12:14:47Z</time>
      </trkpt>
      <trkpt lat="45.18502" lon="5.61826">
        <ele>914.72753207116</ele>
        <time>2019-03-24T12:14:51Z</time>
      </trkpt>
      <trkpt lat="45.1849" lon="5.61849">
        <ele>914.04133897593</ele>
        <time>2019-03-24T12:14:55Z</time>
      </trkpt>
      <trkpt lat="45.18465" lon="5.61872">
        <ele>912.18080751687</ele>
        <time>2019-03-24T12:15:00Z</time>
      </trkpt>
      <trkpt lat="45.18429" lon="5.61874">
        <ele>911.81155857682</ele>
        <time>2019-03-24T12:15:05Z</time>
      </trkpt>
      <trkpt lat="45.18402" lon="5.61861">
        <ele>913.16222092199</ele>
        <time>2019-03-24T12:15:10Z</time>
      </trkpt>
      <trkpt lat="45.18384" lon="5.6185">
        <ele>913.18934672484</ele>
        <time>2019-03-24T12:15:14Z</time>
      </trkpt>
      <trkpt lat="45.18365" lon="5.61836">
        <ele>914.08457320991</ele>
        <time>2019-03-24T12:15:19Z</time>
      </trkpt>
      <trkpt lat="45.18349" lon="5.61826">
        <ele>913.92784307004</ele>
        <time>2019-03-24T12:15:23Z</time>
      </trkpt>
      <trkpt lat="45.18326" lon="5.61815">
        <ele>912.97281637409</ele>
        <time>2019-03-24T12:15:28Z</time>
      </trkpt>
      <trkpt lat="45.18304" lon="5.61806">
        <ele>912.09120514846</ele>
        <time>2019-03-24T12:15:32Z</time>
      </trkpt>
      <trkpt lat="45.18271" lon="5.61801">
        <ele>909.89122530856</ele>
        <time>2019-03-24T12:15:37Z</time>
      </trkpt>
      <trkpt lat="45.1824" lon="5.61788">
        <ele>907.71767958715</ele>
        <time>2019-03-24T12:15:41Z</time>
      </trkpt>
      <trkpt lat="45.18213" lon="5.61776">
        <ele>904.22370131395</ele>
        <time>2019-03-24T12:15:44Z</time>
      </trkpt>
      <trkpt lat="45.18161" lon="5.61781">
        <ele>901.09990049089</ele>
        <time>2019-03-24T12:15:49Z</time>
      </trkpt>
      <trkpt lat="45.18127" lon="5.61794">
        <ele>899.19700962237</ele>
        <time>2019-03-24T12:15:52Z</time>
      </trkpt>
      <trkpt lat="45.18077" lon="5.61804">
        <ele>894.09840163171</ele>
        <time>2019-03-24T12:15:56Z</time>
      </trkpt>
      <trkpt lat="45.1803" lon="5.61811">
        <ele>891.69399998734</ele>
        <time>2019-03-24T12:16:00Z</time>
      </trkpt>
      <trkpt lat="45.17971" lon="5.61828">
        <ele>885.79323024442</ele>
        <time>2019-03-24T12:16:05Z</time>
      </trkpt>
      <trkpt lat="45.17923" lon="5.61829">
        <ele>881.31802019312</ele>
        <time>2019-03-24T12:16:09Z</time>
      </trkpt>
      <trkpt lat="45.17863" lon="5.6184">
        <ele>875.05905025022</ele>
        <time>2019-03-24T12:16:14Z</time>
      </trkpt>
      <trkpt lat="45.17815" lon="5.61836">
        <ele>869.47669696662</ele>
        <time>2019-03-24T12:16:18Z</time>
      </trkpt>
      <trkpt lat="45.1778" lon="5.61842">
        <ele>866.99903649549</ele>
        <time>2019-03-24T12:16:22Z</time>
      </trkpt>
      <trkpt lat="45.17771" lon="5.6185">
        <ele>865.05903459623</ele>
        <time>2019-03-24T12:16:25Z</time>
      </trkpt>
      <trkpt lat="45.17773" lon="5.6186">
        <ele>864.20718256923</ele>
        <time>2019-03-24T12:16:29Z</time>
      </trkpt>
      <trkpt lat="45.17779" lon="5.61857">
        <ele>863.89121769499</ele>
        <time>2019-03-24T12:16:33Z</time>
      </trkpt>
      <trkpt lat="45.17777" lon="5.6186">
        <ele>864.0585815018</ele>
        <time>2019-03-24T12:16:41Z</time>
      </trkpt>
      <trkpt lat="45.17771" lon="5.61861">
        <ele>863.86801551129</ele>
        <time>2019-03-24T12:16:45Z</time>
      </trkpt>
      <trkpt lat="45.17764" lon="5.61862">
        <ele>862.99106588461</ele>
        <time>2019-03-24T12:16:48Z</time>
      </trkpt>
      <trkpt lat="45.17747" lon="5.61864">
        <ele>861.33367330473</ele>
        <time>2019-03-24T12:16:51Z</time>
      </trkpt>
      <trkpt lat="45.17722" lon="5.61863">
        <ele>859.22307988189</ele>
        <time>2019-03-24T12:16:55Z</time>
      </trkpt>
      <trkpt lat="45.17703" lon="5.61862">
        <ele>859.05038313479</ele>
        <time>2019-03-24T12:16:59Z</time>
      </trkpt>
      <trkpt lat="45.17698" lon="5.61867">
        <ele>859.57225308603</ele>
        <time>2019-03-24T12:17:03Z</time>
      </trkpt>
      <trkpt lat="45.17695" lon="5.61876">
        <ele>859.25193655135</ele>
        <time>2019-03-24T12:17:07Z</time>
      </trkpt>
      <trkpt lat="45.17705" lon="5.61893">
        <ele>859.02749319013</ele>
        <time>2019-03-24T12:17:11Z</time>
      </trkpt>
      <trkpt lat="45.17726" lon="5.61896">
        <ele>858.28215964214</ele>
        <time>2019-03-24T12:17:16Z</time>
      </trkpt>
      <trkpt lat="45.17741" lon="5.61894">
        <ele>857.62509074584</ele>
        <time>2019-03-24T12:17:19Z</time>
      </trkpt>
      <trkpt lat="45.17761" lon="5.61891">
        <ele>856.80975190746</ele>
        <time>2019-03-24T12:17:23Z</time>
      </trkpt>
      <trkpt lat="45.17788" lon="5.61889">
        <ele>855.74281925318</ele>
        <time>2019-03-24T12:17:28Z</time>
      </trkpt>
      <trkpt lat="45.17812" lon="5.61898">
        <ele>854.59227892824</ele>
        <time>2019-03-24T12:17:32Z</time>
      </trkpt>
      <trkpt lat="45.17835" lon="5.61909">
        <ele>853.26735605269</ele>
        <time>2019-03-24T12:17:36Z</time>
      </trkpt>
      <trkpt lat="45.17865" lon="5.61924">
        <ele>851.55079691122</ele>
        <time>2019-03-24T12:17:41Z</time>
      </trkpt>
      <trkpt lat="45.17881" lon="5.61933">
        <ele>850.8256559536</ele>
        <time>2019-03-24T12:17:45Z</time>
      </trkpt>
      <trkpt lat="45.17897" lon="5.61948">
        <ele>845.55779132898</ele>
        <time>2019-03-24T12:17:50Z</time>
      </trkpt>
      <trkpt lat="45.17909" lon="5.61957">
        <ele>844.48119077172</ele>
        <time>2019-03-24T12:17:54Z</time>
      </trkpt>
      <trkpt lat="45.17925" lon="5.61967">
        <ele>841.38689623278</ele>
        <time>2019-03-24T12:17:58Z</time>
      </trkpt>
      <trkpt lat="45.17934" lon="5.61975">
        <ele>841.15439201888</ele>
        <time>2019-03-24T12:18:01Z</time>
      </trkpt>
      <trkpt lat="45.17944" lon="5.61986">
        <ele>840.9527732152</ele>
        <time>2019-03-24T12:18:06Z</time>
      </trkpt>
      <trkpt lat="45.17942" lon="5.6199">
        <ele>839.87934223973</ele>
        <time>2019-03-24T12:18:13Z</time>
      </trkpt>
      <trkpt lat="45.17938" lon="5.61989">
        <ele>839.8423316779</ele>
        <time>2019-03-24T12:18:17Z</time>
      </trkpt>
      <trkpt lat="45.17938" lon="5.62003">
        <ele>839.19389165589</ele>
        <time>2019-03-24T12:18:22Z</time>
      </trkpt>
      <trkpt lat="45.17929" lon="5.62033">
        <ele>838.46868270255</ele>
        <time>2019-03-24T12:18:27Z</time>
      </trkpt>
      <trkpt lat="45.1793" lon="5.62054">
        <ele>838.0761086137</ele>
        <time>2019-03-24T12:18:31Z</time>
      </trkpt>
      <trkpt lat="45.17942" lon="5.62066">
        <ele>837.09134815441</ele>
        <time>2019-03-24T12:18:35Z</time>
      </trkpt>
      <trkpt lat="45.17963" lon="5.62073">
        <ele>837.27076481714</ele>
        <time>2019-03-24T12:18:40Z</time>
      </trkpt>
      <trkpt lat="45.17976" lon="5.62071">
        <ele>837.65743184025</ele>
        <time>2019-03-24T12:18:43Z</time>
      </trkpt>
      <trkpt lat="45.17993" lon="5.62065">
        <ele>837.21155735646</ele>
        <time>2019-03-24T12:18:47Z</time>
      </trkpt>
      <trkpt lat="45.18013" lon="5.62061">
        <ele>838.03560133928</ele>
        <time>2019-03-24T12:18:52Z</time>
      </trkpt>
      <trkpt lat="45.18028" lon="5.62069">
        <ele>838.90466793308</ele>
        <time>2019-03-24T12:18:56Z</time>
      </trkpt>
      <trkpt lat="45.18039" lon="5.6208">
        <ele>838.68436122753</ele>
        <time>2019-03-24T12:19:00Z</time>
      </trkpt>
      <trkpt lat="45.18048" lon="5.62092">
        <ele>841.51776066533</ele>
        <time>2019-03-24T12:19:04Z</time>
      </trkpt>
      <trkpt lat="45.18054" lon="5.621">
        <ele>842.20795420941</ele>
        <time>2019-03-24T12:19:07Z</time>
      </trkpt>
      <trkpt lat="45.18062" lon="5.62112">
        <ele>844.333746011</ele>
        <time>2019-03-24T12:19:12Z</time>
      </trkpt>
      <trkpt lat="45.18072" lon="5.62125">
        <ele>846.34739127957</ele>
        <time>2019-03-24T12:19:16Z</time>
      </trkpt>
      <trkpt lat="45.1808" lon="5.62131">
        <ele>847.89241506446</ele>
        <time>2019-03-24T12:19:20Z</time>
      </trkpt>
      <trkpt lat="45.18088" lon="5.62135">
        <ele>848.75614661562</ele>
        <time>2019-03-24T12:19:23Z</time>
      </trkpt>
      <trkpt lat="45.18101" lon="5.62139">
        <ele>849.83304604324</ele>
        <time>2019-03-24T12:19:27Z</time>
      </trkpt>
      <trkpt lat="45.18114" lon="5.62144">
        <ele>851.19741748824</ele>
        <time>2019-03-24T12:19:32Z</time>
      </trkpt>
      <trkpt lat="45.18124" lon="5.62147">
        <ele>851.84618284392</ele>
        <time>2019-03-24T12:19:35Z</time>
      </trkpt>
      <trkpt lat="45.18134" lon="5.62151">
        <ele>852.62172593728</ele>
        <time>2019-03-24T12:19:39Z</time>
      </trkpt>
      <trkpt lat="45.18145" lon="5.62161">
        <ele>852.54706678714</ele>
        <time>2019-03-24T12:19:43Z</time>
      </trkpt>
      <trkpt lat="45.18155" lon="5.62188">
        <ele>851.81741501948</ele>
        <time>2019-03-24T12:19:48Z</time>
      </trkpt>
      <trkpt lat="45.18158" lon="5.62204">
        <ele>851.72716430446</ele>
        <time>2019-03-24T12:19:51Z</time>
      </trkpt>
      <trkpt lat="45.18165" lon="5.62225">
        <ele>853.64126007437</ele>
        <time>2019-03-24T12:19:55Z</time>
      </trkpt>
      <trkpt lat="45.18172" lon="5.6224">
        <ele>853.97137734635</ele>
        <time>2019-03-24T12:19:58Z</time>
      </trkpt>
      <trkpt lat="45.18178" lon="5.62251">
        <ele>853.9381558095</ele>
        <time>2019-03-24T12:20:02Z</time>
      </trkpt>
      <trkpt lat="45.18187" lon="5.62269">
        <ele>853.83775961636</ele>
        <time>2019-03-24T12:20:06Z</time>
      </trkpt>
      <trkpt lat="45.18199" lon="5.62289">
        <ele>855.04025177614</ele>
        <time>2019-03-24T12:20:11Z</time>
      </trkpt>
      <trkpt lat="45.1821" lon="5.62302">
        <ele>856.58878345829</ele>
        <time>2019-03-24T12:20:16Z</time>
      </trkpt>
      <trkpt lat="45.18223" lon="5.62314">
        <ele>858.46570788769</ele>
        <time>2019-03-24T12:20:21Z</time>
      </trkpt>
      <trkpt lat="45.18231" lon="5.6232">
        <ele>859.18320826913</ele>
        <time>2019-03-24T12:20:24Z</time>
      </trkpt>
      <trkpt lat="45.18248" lon="5.62341">
        <ele>858.87953122521</ele>
        <time>2019-03-24T12:20:29Z</time>
      </trkpt>
      <trkpt lat="45.18262" lon="5.62357">
        <ele>857.45256171833</ele>
        <time>2019-03-24T12:20:33Z</time>
      </trkpt>
      <trkpt lat="45.18276" lon="5.62371">
        <ele>856.80420237708</ele>
        <time>2019-03-24T12:20:36Z</time>
      </trkpt>
      <trkpt lat="45.18293" lon="5.62394">
        <ele>855.49741599102</ele>
        <time>2019-03-24T12:20:40Z</time>
      </trkpt>
      <trkpt lat="45.18306" lon="5.62423">
        <ele>855.48129561814</ele>
        <time>2019-03-24T12:20:44Z</time>
      </trkpt>
      <trkpt lat="45.18313" lon="5.62459">
        <ele>855.11831071348</ele>
        <time>2019-03-24T12:20:49Z</time>
      </trkpt>
      <trkpt lat="45.18322" lon="5.62483">
        <ele>855.66282314107</ele>
        <time>2019-03-24T12:20:53Z</time>
      </trkpt>
      <trkpt lat="45.18339" lon="5.62487">
        <ele>857.2185121843</ele>
        <time>2019-03-24T12:20:57Z</time>
      </trkpt>
      <trkpt lat="45.18353" lon="5.62485">
        <ele>858.97202105503</ele>
        <time>2019-03-24T12:21:02Z</time>
      </trkpt>
      <trkpt lat="45.18364" lon="5.6248">
        <ele>860.06892465337</ele>
        <time>2019-03-24T12:21:06Z</time>
      </trkpt>
      <trkpt lat="45.18375" lon="5.62475">
        <ele>861.21540715525</ele>
        <time>2019-03-24T12:21:10Z</time>
      </trkpt>
      <trkpt lat="45.1839" lon="5.62464">
        <ele>862.83045017384</ele>
        <time>2019-03-24T12:21:15Z</time>
      </trkpt>
      <trkpt lat="45.18401" lon="5.62453">
        <ele>864.3935811441</ele>
        <time>2019-03-24T12:21:20Z</time>
      </trkpt>
      <trkpt lat="45.18412" lon="5.62441">
        <ele>866.11142967995</ele>
        <time>2019-03-24T12:21:25Z</time>
      </trkpt>
      <trkpt lat="45.18421" lon="5.62442">
        <ele>866.60756179546</ele>
        <time>2019-03-24T12:21:29Z</time>
      </trkpt>
      <trkpt lat="45.18424" lon="5.62459">
        <ele>867.71472428949</ele>
        <time>2019-03-24T12:21:34Z</time>
      </trkpt>
      <trkpt lat="45.18421" lon="5.62481">
        <ele>868.48231738971</ele>
        <time>2019-03-24T12:21:39Z</time>
      </trkpt>
      <trkpt lat="45.18422" lon="5.62501">
        <ele>869.01631553526</ele>
        <time>2019-03-24T12:21:43Z</time>
      </trkpt>
      <trkpt lat="45.18425" lon="5.62515">
        <ele>869.5924293325</ele>
        <time>2019-03-24T12:21:46Z</time>
      </trkpt>
      <trkpt lat="45.18435" lon="5.62537">
        <ele>870.52697534157</ele>
        <time>2019-03-24T12:21:51Z</time>
      </trkpt>
      <trkpt lat="45.18441" lon="5.62552">
        <ele>871.11641902786</ele>
        <time>2019-03-24T12:21:55Z</time>
      </trkpt>
      <trkpt lat="45.18454" lon="5.62568">
        <ele>872.1760869539</ele>
        <time>2019-03-24T12:21:59Z</time>
      </trkpt>
      <trkpt lat="45.18466" lon="5.62581">
        <ele>872.40423329041</ele>
        <time>2019-03-24T12:22:04Z</time>
      </trkpt>
      <trkpt lat="45.18475" lon="5.626">
        <ele>871.6355913973</ele>
        <time>2019-03-24T12:22:08Z</time>
      </trkpt>
      <trkpt lat="45.18481" lon="5.62628">
        <ele>870.96254445689</ele>
        <time>2019-03-24T12:22:13Z</time>
      </trkpt>
      <trkpt lat="45.18488" lon="5.62643">
        <ele>870.54286864792</ele>
        <time>2019-03-24T12:22:16Z</time>
      </trkpt>
      <trkpt lat="45.18498" lon="5.62657">
        <ele>869.63212077087</ele>
        <time>2019-03-24T12:22:19Z</time>
      </trkpt>
      <trkpt lat="45.18517" lon="5.62681">
        <ele>868.6269351183</ele>
        <time>2019-03-24T12:22:24Z</time>
      </trkpt>
      <trkpt lat="45.18533" lon="5.62701">
        <ele>868.01753827495</ele>
        <time>2019-03-24T12:22:28Z</time>
      </trkpt>
      <trkpt lat="45.18548" lon="5.62721">
        <ele>867.94907471617</ele>
        <time>2019-03-24T12:22:32Z</time>
      </trkpt>
      <trkpt lat="45.18559" lon="5.62731">
        <ele>868.13405633879</ele>
        <time>2019-03-24T12:22:35Z</time>
      </trkpt>
      <trkpt lat="45.18573" lon="5.62748">
        <ele>867.7652291266</ele>
        <time>2019-03-24T12:22:39Z</time>
      </trkpt>
      <trkpt lat="45.18589" lon="5.62762">
        <ele>867.59003264842</ele>
        <time>2019-03-24T12:22:43Z</time>
      </trkpt>
      <trkpt lat="45.18606" lon="5.62774">
        <ele>867.06214319427</ele>
        <time>2019-03-24T12:22:47Z</time>
      </trkpt>
      <trkpt lat="45.18618" lon="5.62784">
        <ele>867.86968664469</ele>
        <time>2019-03-24T12:22:50Z</time>
      </trkpt>
      <trkpt lat="45.18634" lon="5.62798">
        <ele>869.45074642245</ele>
        <time>2019-03-24T12:22:55Z</time>
      </trkpt>
      <trkpt lat="45.18643" lon="5.62807">
        <ele>871.69189969905</ele>
        <time>2019-03-24T12:23:00Z</time>
      </trkpt>
      <trkpt lat="45.18655" lon="5.62819">
        <ele>871.87174601973</ele>
        <time>2019-03-24T12:23:05Z</time>
      </trkpt>
      <trkpt lat="45.18665" lon="5.62827">
        <ele>874.20902615052</ele>
        <time>2019-03-24T12:23:09Z</time>
      </trkpt>
      <trkpt lat="45.18679" lon="5.62838">
        <ele>876.54393966261</ele>
        <time>2019-03-24T12:23:14Z</time>
      </trkpt>
      <trkpt lat="45.1869" lon="5.62847">
        <ele>877.9371386083</ele>
        <time>2019-03-24T12:23:19Z</time>
      </trkpt>
      <trkpt lat="45.18699" lon="5.62854">
        <ele>880.03236996074</ele>
        <time>2019-03-24T12:23:23Z</time>
      </trkpt>
      <trkpt lat="45.18708" lon="5.6286">
        <ele>880.80022065162</ele>
        <time>2019-03-24T12:23:27Z</time>
      </trkpt>
      <trkpt lat="45.18718" lon="5.62869">
        <ele>881.6263193846</ele>
        <time>2019-03-24T12:23:31Z</time>
      </trkpt>
      <trkpt lat="45.18726" lon="5.62877">
        <ele>882.23970416544</ele>
        <time>2019-03-24T12:23:36Z</time>
      </trkpt>
      <trkpt lat="45.18733" lon="5.62885">
        <ele>881.93176339916</ele>
        <time>2019-03-24T12:23:40Z</time>
      </trkpt>
      <trkpt lat="45.1874" lon="5.62892">
        <ele>880.70287955886</ele>
        <time>2019-03-24T12:23:43Z</time>
      </trkpt>
      <trkpt lat="45.18749" lon="5.629">
        <ele>880.10450114529</ele>
        <time>2019-03-24T12:23:47Z</time>
      </trkpt>
      <trkpt lat="45.18759" lon="5.62909">
        <ele>879.90233177779</ele>
        <time>2019-03-24T12:23:51Z</time>
      </trkpt>
      <trkpt lat="45.18772" lon="5.62921">
        <ele>877.06603875091</ele>
        <time>2019-03-24T12:23:56Z</time>
      </trkpt>
      <trkpt lat="45.18788" lon="5.62937">
        <ele>876.66253584539</ele>
        <time>2019-03-24T12:24:00Z</time>
      </trkpt>
      <trkpt lat="45.18805" lon="5.62955">
        <ele>876.53251648129</ele>
        <time>2019-03-24T12:24:04Z</time>
      </trkpt>
      <trkpt lat="45.18819" lon="5.62969">
        <ele>876.90711001463</ele>
        <time>2019-03-24T12:24:08Z</time>
      </trkpt>
      <trkpt lat="45.18829" lon="5.62979">
        <ele>877.36748638358</ele>
        <time>2019-03-24T12:24:11Z</time>
      </trkpt>
      <trkpt lat="45.18839" lon="5.62987">
        <ele>878.58270520556</ele>
        <time>2019-03-24T12:24:15Z</time>
      </trkpt>
      <trkpt lat="45.18847" lon="5.62995">
        <ele>879.79001016816</ele>
        <time>2019-03-24T12:24:19Z</time>
      </trkpt>
      <trkpt lat="45.18857" lon="5.63001">
        <ele>884.03125769101</ele>
        <time>2019-03-24T12:24:24Z</time>
      </trkpt>
      <trkpt lat="45.18865" lon="5.63008">
        <ele>885.28199460726</ele>
        <time>2019-03-24T12:24:28Z</time>
      </trkpt>
      <trkpt lat="45.1887" lon="5.63017">
        <ele>884.93081251666</ele>
        <time>2019-03-24T12:24:32Z</time>
      </trkpt>
      <trkpt lat="45.18875" lon="5.63023">
        <ele>887.97548316199</ele>
        <time>2019-03-24T12:24:36Z</time>
      </trkpt>
      <trkpt lat="45.18881" lon="5.63027">
        <ele>889.84476933901</ele>
        <time>2019-03-24T12:24:40Z</time>
      </trkpt>
      <trkpt lat="45.18888" lon="5.63034">
        <ele>891.90001872479</ele>
        <time>2019-03-24T12:24:45Z</time>
      </trkpt>
      <trkpt lat="45.18891" lon="5.63039">
        <ele>893.75924549038</ele>
        <time>2019-03-24T12:24:48Z</time>
      </trkpt>
      <trkpt lat="45.18896" lon="5.63043">
        <ele>895.99808811342</ele>
        <time>2019-03-24T12:24:51Z</time>
      </trkpt>
      <trkpt lat="45.18904" lon="5.63049">
        <ele>898.60915718576</ele>
        <time>2019-03-24T12:24:56Z</time>
      </trkpt>
      <trkpt lat="45.18912" lon="5.63054">
        <ele>900.56291666522</ele>
        <time>2019-03-24T12:25:00Z</time>
      </trkpt>
      <trkpt lat="45.18919" lon="5.63056">
        <ele>901.82171207983</ele>
        <time>2019-03-24T12:25:04Z</time>
      </trkpt>
      <trkpt lat="45.18924" lon="5.63059">
        <ele>903.44186449244</ele>
        <time>2019-03-24T12:25:08Z</time>
      </trkpt>
      <trkpt lat="45.18931" lon="5.63061">
        <ele>905.6163795441</ele>
        <time>2019-03-24T12:25:12Z</time>
      </trkpt>
      <trkpt lat="45.18937" lon="5.63063">
        <ele>906.09209302508</ele>
        <time>2019-03-24T12:25:16Z</time>
      </trkpt>
      <trkpt lat="45.18943" lon="5.63066">
        <ele>907.34828168317</ele>
        <time>2019-03-24T12:25:20Z</time>
      </trkpt>
      <trkpt lat="45.18949" lon="5.63069">
        <ele>908.18008796435</ele>
        <time>2019-03-24T12:25:24Z</time>
      </trkpt>
      <trkpt lat="45.18955" lon="5.63076">
        <ele>909.12395590732</ele>
        <time>2019-03-24T12:25:29Z</time>
      </trkpt>
      <trkpt lat="45.1896" lon="5.63082">
        <ele>908.93507445406</ele>
        <time>2019-03-24T12:25:33Z</time>
      </trkpt>
      <trkpt lat="45.18965" lon="5.63086">
        <ele>908.7559810612</ele>
        <time>2019-03-24T12:25:36Z</time>
      </trkpt>
      <trkpt lat="45.18972" lon="5.63088">
        <ele>909.91537472871</ele>
        <time>2019-03-24T12:25:40Z</time>
      </trkpt>
      <trkpt lat="45.18979" lon="5.63091">
        <ele>911.44365902585</ele>
        <time>2019-03-24T12:25:44Z</time>
      </trkpt>
      <trkpt lat="45.18983" lon="5.63094">
        <ele>912.11322766328</ele>
        <time>2019-03-24T12:25:47Z</time>
      </trkpt>
      <trkpt lat="45.18991" lon="5.63099">
        <ele>909.629331133</ele>
        <time>2019-03-24T12:25:52Z</time>
      </trkpt>
      <trkpt lat="45.18997" lon="5.63104">
        <ele>912.20373550316</ele>
        <time>2019-03-24T12:25:56Z</time>
      </trkpt>
      <trkpt lat="45.19004" lon="5.63112">
        <ele>913.25818834417</ele>
        <time>2019-03-24T12:26:00Z</time>
      </trkpt>
      <trkpt lat="45.1901" lon="5.63118">
        <ele>914.42178881933</ele>
        <time>2019-03-24T12:26:04Z</time>
      </trkpt>
      <trkpt lat="45.19017" lon="5.63126">
        <ele>915.65862336182</ele>
        <time>2019-03-24T12:26:08Z</time>
      </trkpt>
      <trkpt lat="45.19023" lon="5.63135">
        <ele>916.98045112255</ele>
        <time>2019-03-24T12:26:12Z</time>
      </trkpt>
      <trkpt lat="45.1903" lon="5.63144">
        <ele>916.32420004364</ele>
        <time>2019-03-24T12:26:17Z</time>
      </trkpt>
      <trkpt lat="45.19036" lon="5.63152">
        <ele>914.8740371327</ele>
        <time>2019-03-24T12:26:20Z</time>
      </trkpt>
      <trkpt lat="45.19048" lon="5.63166">
        <ele>915.68884562655</ele>
        <time>2019-03-24T12:26:23Z</time>
      </trkpt>
      <trkpt lat="45.19058" lon="5.6319">
        <ele>915.73613348932</ele>
        <time>2019-03-24T12:26:27Z</time>
      </trkpt>
      <trkpt lat="45.19077" lon="5.63208">
        <ele>915.60069853087</ele>
        <time>2019-03-24T12:26:31Z</time>
      </trkpt>
      <trkpt lat="45.1909" lon="5.63214">
        <ele>913.29099179054</ele>
        <time>2019-03-24T12:26:36Z</time>
      </trkpt>
      <trkpt lat="45.191" lon="5.63224">
        <ele>913.42458149861</ele>
        <time>2019-03-24T12:26:40Z</time>
      </trkpt>
      <trkpt lat="45.19112" lon="5.63238">
        <ele>915.27201609781</ele>
        <time>2019-03-24T12:26:44Z</time>
      </trkpt>
      <trkpt lat="45.19122" lon="5.63245">
        <ele>917.22197463204</ele>
        <time>2019-03-24T12:26:48Z</time>
      </trkpt>
      <trkpt lat="45.19134" lon="5.6325">
        <ele>919.15693656867</ele>
        <time>2019-03-24T12:26:53Z</time>
      </trkpt>
      <trkpt lat="45.19146" lon="5.63252">
        <ele>921.70078457361</ele>
        <time>2019-03-24T12:26:57Z</time>
      </trkpt>
      <trkpt lat="45.19159" lon="5.63255">
        <ele>922.44321937986</ele>
        <time>2019-03-24T12:27:02Z</time>
      </trkpt>
      <trkpt lat="45.19178" lon="5.63258">
        <ele>921.61769284338</ele>
        <time>2019-03-24T12:27:06Z</time>
      </trkpt>
      <trkpt lat="45.19209" lon="5.63266">
        <ele>918.89869327308</ele>
        <time>2019-03-24T12:27:11Z</time>
      </trkpt>
      <trkpt lat="45.19231" lon="5.63273">
        <ele>916.61062092389</ele>
        <time>2019-03-24T12:27:14Z</time>
      </trkpt>
      <trkpt lat="45.19253" lon="5.63298">
        <ele>915.93378817958</ele>
        <time>2019-03-24T12:27:18Z</time>
      </trkpt>
      <trkpt lat="45.19265" lon="5.63307">
        <ele>917.5014157953</ele>
        <time>2019-03-24T12:27:22Z</time>
      </trkpt>
      <trkpt lat="45.19277" lon="5.63319">
        <ele>918.14256921933</ele>
        <time>2019-03-24T12:27:27Z</time>
      </trkpt>
      <trkpt lat="45.19288" lon="5.63335">
        <ele>919.05259863777</ele>
        <time>2019-03-24T12:27:32Z</time>
      </trkpt>
      <trkpt lat="45.19294" lon="5.63344">
        <ele>920.44942602448</ele>
        <time>2019-03-24T12:27:35Z</time>
      </trkpt>
      <trkpt lat="45.19302" lon="5.63357">
        <ele>922.85437102343</ele>
        <time>2019-03-24T12:27:39Z</time>
      </trkpt>
      <trkpt lat="45.1931" lon="5.63369">
        <ele>923.41611290004</ele>
        <time>2019-03-24T12:27:44Z</time>
      </trkpt>
      <trkpt lat="45.19318" lon="5.63383">
        <ele>923.06583693975</ele>
        <time>2019-03-24T12:27:48Z</time>
      </trkpt>
      <trkpt lat="45.19324" lon="5.63393">
        <ele>922.11000508021</ele>
        <time>2019-03-24T12:27:52Z</time>
      </trkpt>
      <trkpt lat="45.19332" lon="5.63404">
        <ele>923.07826605924</ele>
        <time>2019-03-24T12:27:56Z</time>
      </trkpt>
      <trkpt lat="45.19336" lon="5.63411">
        <ele>923.81563071023</ele>
        <time>2019-03-24T12:27:59Z</time>
      </trkpt>
      <trkpt lat="45.19347" lon="5.63426">
        <ele>924.84200976932</ele>
        <time>2019-03-24T12:28:04Z</time>
      </trkpt>
      <trkpt lat="45.19354" lon="5.63437">
        <ele>925.9429899194</ele>
        <time>2019-03-24T12:28:08Z</time>
      </trkpt>
      <trkpt lat="45.1936" lon="5.63448">
        <ele>927.66772961609</ele>
        <time>2019-03-24T12:28:12Z</time>
      </trkpt>
      <trkpt lat="45.19367" lon="5.63461">
        <ele>929.4281609162</ele>
        <time>2019-03-24T12:28:16Z</time>
      </trkpt>
      <trkpt lat="45.19374" lon="5.63475">
        <ele>931.39448683352</ele>
        <time>2019-03-24T12:28:20Z</time>
      </trkpt>
      <trkpt lat="45.19379" lon="5.63489">
        <ele>932.54506811644</ele>
        <time>2019-03-24T12:28:25Z</time>
      </trkpt>
      <trkpt lat="45.19385" lon="5.63509">
        <ele>931.64394787383</ele>
        <time>2019-03-24T12:28:30Z</time>
      </trkpt>
      <trkpt lat="45.19389" lon="5.63519">
        <ele>932.38395885482</ele>
        <time>2019-03-24T12:28:33Z</time>
      </trkpt>
      <trkpt lat="45.19393" lon="5.63534">
        <ele>933.30642798295</ele>
        <time>2019-03-24T12:28:37Z</time>
      </trkpt>
      <trkpt lat="45.19395" lon="5.63549">
        <ele>935.86374649049</ele>
        <time>2019-03-24T12:28:42Z</time>
      </trkpt>
      <trkpt lat="45.19389" lon="5.63547">
        <ele>936.87759956346</ele>
        <time>2019-03-24T12:28:46Z</time>
      </trkpt>
      <trkpt lat="45.19379" lon="5.63535">
        <ele>938.80374347605</ele>
        <time>2019-03-24T12:28:51Z</time>
      </trkpt>
      <trkpt lat="45.19374" lon="5.63527">
        <ele>940.18146167794</ele>
        <time>2019-03-24T12:28:54Z</time>
      </trkpt>
      <trkpt lat="45.19366" lon="5.63515">
        <ele>942.09825302896</ele>
        <time>2019-03-24T12:28:58Z</time>
      </trkpt>
      <trkpt lat="45.19358" lon="5.63502">
        <ele>944.05067194075</ele>
        <time>2019-03-24T12:29:03Z</time>
      </trkpt>
      <trkpt lat="45.19351" lon="5.63491">
        <ele>944.53086204497</ele>
        <time>2019-03-24T12:29:07Z</time>
      </trkpt>
      <trkpt lat="45.19343" lon="5.63482">
        <ele>944.34574222197</ele>
        <time>2019-03-24T12:29:12Z</time>
      </trkpt>
      <trkpt lat="45.19337" lon="5.63476">
        <ele>944.43479150029</ele>
        <time>2019-03-24T12:29:15Z</time>
      </trkpt>
      <trkpt lat="45.19327" lon="5.63463">
        <ele>945.21158995124</ele>
        <time>2019-03-24T12:29:20Z</time>
      </trkpt>
      <trkpt lat="45.19325" lon="5.63466">
        <ele>946.86664331217</ele>
        <time>2019-03-24T12:29:24Z</time>
      </trkpt>
      <trkpt lat="45.19324" lon="5.63479">
        <ele>950.84227096145</ele>
        <time>2019-03-24T12:29:28Z</time>
      </trkpt>
      <trkpt lat="45.19329" lon="5.63488">
        <ele>949.77113934075</ele>
        <time>2019-03-24T12:29:32Z</time>
      </trkpt>
      <trkpt lat="45.19334" lon="5.63505">
        <ele>948.37364363725</ele>
        <time>2019-03-24T12:29:37Z</time>
      </trkpt>
      <trkpt lat="45.19337" lon="5.63522">
        <ele>949.07030276727</ele>
        <time>2019-03-24T12:29:42Z</time>
      </trkpt>
      <trkpt lat="45.19338" lon="5.63536">
        <ele>950.33159301973</ele>
        <time>2019-03-24T12:29:46Z</time>
      </trkpt>
      <trkpt lat="45.19339" lon="5.63549">
        <ele>950.5107299164</ele>
        <time>2019-03-24T12:29:50Z</time>
      </trkpt>
      <trkpt lat="45.19342" lon="5.63563">
        <ele>949.92341735288</ele>
        <time>2019-03-24T12:29:54Z</time>
      </trkpt>
      <trkpt lat="45.19346" lon="5.63579">
        <ele>951.00316166035</ele>
        <time>2019-03-24T12:29:58Z</time>
      </trkpt>
      <trkpt lat="45.19347" lon="5.63588">
        <ele>952.52347963902</ele>
        <time>2019-03-24T12:30:01Z</time>
      </trkpt>
      <trkpt lat="45.1935" lon="5.63601">
        <ele>952.12506229197</ele>
        <time>2019-03-24T12:30:05Z</time>
      </trkpt>
      <trkpt lat="45.19353" lon="5.63611">
        <ele>952.58374930415</ele>
        <time>2019-03-24T12:30:08Z</time>
      </trkpt>
      <trkpt lat="45.1936" lon="5.63628">
        <ele>952.68994208469</ele>
        <time>2019-03-24T12:30:13Z</time>
      </trkpt>
      <trkpt lat="45.19363" lon="5.63643">
        <ele>954.5515108602</ele>
        <time>2019-03-24T12:30:18Z</time>
      </trkpt>
      <trkpt lat="45.19364" lon="5.63653">
        <ele>953.75965924031</ele>
        <time>2019-03-24T12:30:22Z</time>
      </trkpt>
      <trkpt lat="45.19366" lon="5.63669">
        <ele>955.88867342567</ele>
        <time>2019-03-24T12:30:26Z</time>
      </trkpt>
      <trkpt lat="45.19368" lon="5.63682">
        <ele>956.8397325816</ele>
        <time>2019-03-24T12:30:30Z</time>
      </trkpt>
      <trkpt lat="45.1937" lon="5.63701">
        <ele>959.16439290849</ele>
        <time>2019-03-24T12:30:35Z</time>
      </trkpt>
      <trkpt lat="45.19372" lon="5.6372">
        <ele>961.72000612126</ele>
        <time>2019-03-24T12:30:40Z</time>
      </trkpt>
      <trkpt lat="45.19373" lon="5.63728">
        <ele>961.98086202793</ele>
        <time>2019-03-24T12:30:43Z</time>
      </trkpt>
      <trkpt lat="45.19375" lon="5.63744">
        <ele>964.25256226083</ele>
        <time>2019-03-24T12:30:47Z</time>
      </trkpt>
      <trkpt lat="45.19379" lon="5.6376">
        <ele>962.88493492167</ele>
        <time>2019-03-24T12:30:51Z</time>
      </trkpt>
      <trkpt lat="45.19383" lon="5.63779">
        <ele>961.88747670359</ele>
        <time>2019-03-24T12:30:56Z</time>
      </trkpt>
      <trkpt lat="45.19384" lon="5.63801">
        <ele>962.55741480896</ele>
        <time>2019-03-24T12:31:01Z</time>
      </trkpt>
      <trkpt lat="45.19384" lon="5.63816">
        <ele>964.0106777916</ele>
        <time>2019-03-24T12:31:05Z</time>
      </trkpt>
      <trkpt lat="45.19386" lon="5.63828">
        <ele>965.31463771792</ele>
        <time>2019-03-24T12:31:08Z</time>
      </trkpt>
      <trkpt lat="45.19389" lon="5.63844">
        <ele>966.91750783265</ele>
        <time>2019-03-24T12:31:12Z</time>
      </trkpt>
      <trkpt lat="45.19396" lon="5.63861">
        <ele>966.46434355474</ele>
        <time>2019-03-24T12:31:16Z</time>
      </trkpt>
      <trkpt lat="45.19408" lon="5.63875">
        <ele>968.34335457551</ele>
        <time>2019-03-24T12:31:21Z</time>
      </trkpt>
      <trkpt lat="45.19419" lon="5.63881">
        <ele>968.2121156193</ele>
        <time>2019-03-24T12:31:25Z</time>
      </trkpt>
      <trkpt lat="45.19429" lon="5.63886">
        <ele>968.32352130722</ele>
        <time>2019-03-24T12:31:29Z</time>
      </trkpt>
      <trkpt lat="45.19442" lon="5.63896">
        <ele>968.15422143223</ele>
        <time>2019-03-24T12:31:33Z</time>
      </trkpt>
      <trkpt lat="45.19452" lon="5.63907">
        <ele>967.60220526275</ele>
        <time>2019-03-24T12:31:37Z</time>
      </trkpt>
      <trkpt lat="45.19462" lon="5.63929">
        <ele>969.34297207374</ele>
        <time>2019-03-24T12:31:42Z</time>
      </trkpt>
      <trkpt lat="45.19471" lon="5.63951">
        <ele>969.23235362288</ele>
        <time>2019-03-24T12:31:46Z</time>
      </trkpt>
      <trkpt lat="45.19479" lon="5.63975">
        <ele>970.28075705888</ele>
        <time>2019-03-24T12:31:51Z</time>
      </trkpt>
      <trkpt lat="45.19489" lon="5.63995">
        <ele>971.13791270555</ele>
        <time>2019-03-24T12:31:56Z</time>
      </trkpt>
      <trkpt lat="45.19501" lon="5.64014">
        <ele>970.85210528398</ele>
        <time>2019-03-24T12:32:01Z</time>
      </trkpt>
      <trkpt lat="45.19511" lon="5.64033">
        <ele>971.56187324672</ele>
        <time>2019-03-24T12:32:06Z</time>
      </trkpt>
      <trkpt lat="45.19516" lon="5.64045">
        <ele>971.40117143365</ele>
        <time>2019-03-24T12:32:09Z</time>
      </trkpt>
      <trkpt lat="45.19524" lon="5.64061">
        <ele>971.80261426329</ele>
        <time>2019-03-24T12:32:13Z</time>
      </trkpt>
      <trkpt lat="45.19533" lon="5.64079">
        <ele>972.46747708884</ele>
        <time>2019-03-24T12:32:18Z</time>
      </trkpt>
      <trkpt lat="45.19542" lon="5.64095">
        <ele>972.86154545469</ele>
        <time>2019-03-24T12:32:22Z</time>
      </trkpt>
      <trkpt lat="45.19548" lon="5.64109">
        <ele>973.53976261612</ele>
        <time>2019-03-24T12:32:25Z</time>
      </trkpt>
      <trkpt lat="45.19552" lon="5.64127">
        <ele>973.67900404011</ele>
        <time>2019-03-24T12:32:29Z</time>
      </trkpt>
      <trkpt lat="45.19552" lon="5.64146">
        <ele>975.61814455575</ele>
        <time>2019-03-24T12:32:33Z</time>
      </trkpt>
      <trkpt lat="45.19548" lon="5.64164">
        <ele>975.88285196293</ele>
        <time>2019-03-24T12:32:37Z</time>
      </trkpt>
      <trkpt lat="45.19541" lon="5.64183">
        <ele>974.83050889716</ele>
        <time>2019-03-24T12:32:42Z</time>
      </trkpt>
      <trkpt lat="45.19529" lon="5.64187">
        <ele>974.76912735886</ele>
        <time>2019-03-24T12:32:46Z</time>
      </trkpt>
      <trkpt lat="45.19513" lon="5.64172">
        <ele>975.01006345509</ele>
        <time>2019-03-24T12:32:51Z</time>
      </trkpt>
      <trkpt lat="45.19501" lon="5.64153">
        <ele>975.17135057879</ele>
        <time>2019-03-24T12:32:56Z</time>
      </trkpt>
      <trkpt lat="45.19494" lon="5.64142">
        <ele>975.14672469201</ele>
        <time>2019-03-24T12:32:59Z</time>
      </trkpt>
      <trkpt lat="45.19481" lon="5.64123">
        <ele>975.70717988413</ele>
        <time>2019-03-24T12:33:04Z</time>
      </trkpt>
      <trkpt lat="45.19471" lon="5.64108">
        <ele>976.29530733133</ele>
        <time>2019-03-24T12:33:08Z</time>
      </trkpt>
      <trkpt lat="45.19461" lon="5.64093">
        <ele>976.79470102853</ele>
        <time>2019-03-24T12:33:12Z</time>
      </trkpt>
      <trkpt lat="45.19452" lon="5.64078">
        <ele>977.64945893827</ele>
        <time>2019-03-24T12:33:16Z</time>
      </trkpt>
      <trkpt lat="45.19444" lon="5.64065">
        <ele>978.90537716004</ele>
        <time>2019-03-24T12:33:20Z</time>
      </trkpt>
      <trkpt lat="45.19436" lon="5.64054">
        <ele>980.34683012479</ele>
        <time>2019-03-24T12:33:24Z</time>
      </trkpt>
      <trkpt lat="45.19431" lon="5.64047">
        <ele>981.1336283974</ele>
        <time>2019-03-24T12:33:27Z</time>
      </trkpt>
      <trkpt lat="45.19424" lon="5.64038">
        <ele>982.23146986081</ele>
        <time>2019-03-24T12:33:31Z</time>
      </trkpt>
      <trkpt lat="45.19414" lon="5.64027">
        <ele>982.92045709705</ele>
        <time>2019-03-24T12:33:36Z</time>
      </trkpt>
      <trkpt lat="45.19406" lon="5.64018">
        <ele>983.70615784684</ele>
        <time>2019-03-24T12:33:40Z</time>
      </trkpt>
      <trkpt lat="45.19396" lon="5.64006">
        <ele>984.93455190512</ele>
        <time>2019-03-24T12:33:45Z</time>
      </trkpt>
      <trkpt lat="45.19391" lon="5.63999">
        <ele>985.20213006149</ele>
        <time>2019-03-24T12:33:48Z</time>
      </trkpt>
      <trkpt lat="45.19384" lon="5.63989">
        <ele>985.72290217816</ele>
        <time>2019-03-24T12:33:52Z</time>
      </trkpt>
      <trkpt lat="45.19377" lon="5.63978">
        <ele>985.82110349106</ele>
        <time>2019-03-24T12:33:56Z</time>
      </trkpt>
      <trkpt lat="45.19369" lon="5.63965">
        <ele>986.43805580336</ele>
        <time>2019-03-24T12:34:00Z</time>
      </trkpt>
      <trkpt lat="45.19361" lon="5.63954">
        <ele>987.00984775014</ele>
        <time>2019-03-24T12:34:04Z</time>
      </trkpt>
      <trkpt lat="45.19351" lon="5.6394">
        <ele>988.51760664137</ele>
        <time>2019-03-24T12:34:09Z</time>
      </trkpt>
      <trkpt lat="45.19344" lon="5.63932">
        <ele>989.36329310046</ele>
        <time>2019-03-24T12:34:12Z</time>
      </trkpt>
      <trkpt lat="45.19338" lon="5.63924">
        <ele>990.12397078598</ele>
        <time>2019-03-24T12:34:15Z</time>
      </trkpt>
      <trkpt lat="45.19328" lon="5.63913">
        <ele>991.22203251416</ele>
        <time>2019-03-24T12:34:20Z</time>
      </trkpt>
      <trkpt lat="45.19322" lon="5.63906">
        <ele>991.8446558967</ele>
        <time>2019-03-24T12:34:23Z</time>
      </trkpt>
      <trkpt lat="45.19314" lon="5.63898">
        <ele>992.60564883481</ele>
        <time>2019-03-24T12:34:27Z</time>
      </trkpt>
      <trkpt lat="45.19304" lon="5.63889">
        <ele>993.84541028645</ele>
        <time>2019-03-24T12:34:32Z</time>
      </trkpt>
      <trkpt lat="45.19298" lon="5.63884">
        <ele>994.57675085279</ele>
        <time>2019-03-24T12:34:35Z</time>
      </trkpt>
      <trkpt lat="45.19289" lon="5.63877">
        <ele>995.73303990297</ele>
        <time>2019-03-24T12:34:39Z</time>
      </trkpt>
      <trkpt lat="45.19278" lon="5.63865">
        <ele>996.47432096609</ele>
        <time>2019-03-24T12:34:44Z</time>
      </trkpt>
      <trkpt lat="45.19268" lon="5.63854">
        <ele>997.21499176341</ele>
        <time>2019-03-24T12:34:48Z</time>
      </trkpt>
      <trkpt lat="45.19258" lon="5.63841">
        <ele>997.68817559621</ele>
        <time>2019-03-24T12:34:52Z</time>
      </trkpt>
      <trkpt lat="45.19244" lon="5.63824">
        <ele>998.26771392308</ele>
        <time>2019-03-24T12:34:57Z</time>
      </trkpt>
      <trkpt lat="45.19233" lon="5.63808">
        <ele>998.95918030759</ele>
        <time>2019-03-24T12:35:01Z</time>
      </trkpt>
      <trkpt lat="45.19221" lon="5.63784">
        <ele>998.84001400171</ele>
        <time>2019-03-24T12:35:05Z</time>
      </trkpt>
      <trkpt lat="45.1921" lon="5.63762">
        <ele>998.87402160247</ele>
        <time>2019-03-24T12:35:09Z</time>
      </trkpt>
      <trkpt lat="45.19198" lon="5.63739">
        <ele>999.1211475123</ele>
        <time>2019-03-24T12:35:13Z</time>
      </trkpt>
      <trkpt lat="45.19187" lon="5.63716">
        <ele>999.79742831462</ele>
        <time>2019-03-24T12:35:17Z</time>
      </trkpt>
      <trkpt lat="45.19172" lon="5.63686">
        <ele>1000.1678472345</ele>
        <time>2019-03-24T12:35:22Z</time>
      </trkpt>
      <trkpt lat="45.1916" lon="5.63662">
        <ele>1000.9578055983</ele>
        <time>2019-03-24T12:35:26Z</time>
      </trkpt>
      <trkpt lat="45.19152" lon="5.63644">
        <ele>1001.109890516</ele>
        <time>2019-03-24T12:35:29Z</time>
      </trkpt>
      <trkpt lat="45.19142" lon="5.63621">
        <ele>1001.5497706422</ele>
        <time>2019-03-24T12:35:33Z</time>
      </trkpt>
      <trkpt lat="45.19126" lon="5.6359">
        <ele>1002.6862887735</ele>
        <time>2019-03-24T12:35:38Z</time>
      </trkpt>
      <trkpt lat="45.19116" lon="5.63565">
        <ele>1003.2616190398</ele>
        <time>2019-03-24T12:35:42Z</time>
      </trkpt>
      <trkpt lat="45.19103" lon="5.63538">
        <ele>1005.7316496849</ele>
        <time>2019-03-24T12:35:47Z</time>
      </trkpt>
      <trkpt lat="45.19096" lon="5.63523">
        <ele>1006.9831186142</ele>
        <time>2019-03-24T12:35:50Z</time>
      </trkpt>
      <trkpt lat="45.19086" lon="5.63495">
        <ele>1007.895578745</ele>
        <time>2019-03-24T12:35:55Z</time>
      </trkpt>
      <trkpt lat="45.19077" lon="5.63466">
        <ele>1008.320860564</ele>
        <time>2019-03-24T12:36:00Z</time>
      </trkpt>
      <trkpt lat="45.19067" lon="5.63444">
        <ele>1008.7224422113</ele>
        <time>2019-03-24T12:36:04Z</time>
      </trkpt>
      <trkpt lat="45.19054" lon="5.63425">
        <ele>1010.1517184208</ele>
        <time>2019-03-24T12:36:09Z</time>
      </trkpt>
      <trkpt lat="45.19048" lon="5.63421">
        <ele>1013.7534649038</ele>
        <time>2019-03-24T12:36:12Z</time>
      </trkpt>
      <trkpt lat="45.1904" lon="5.63418">
        <ele>1014.1983541378</ele>
        <time>2019-03-24T12:36:15Z</time>
      </trkpt>
      <trkpt lat="45.1903" lon="5.63419">
        <ele>1014.4033797409</ele>
        <time>2019-03-24T12:36:19Z</time>
      </trkpt>
      <trkpt lat="45.19021" lon="5.63427">
        <ele>1015.2709509832</ele>
        <time>2019-03-24T12:36:23Z</time>
      </trkpt>
      <trkpt lat="45.1901" lon="5.63436">
        <ele>1017.5168824188</ele>
        <time>2019-03-24T12:36:28Z</time>
      </trkpt>
      <trkpt lat="45.19002" lon="5.63442">
        <ele>1018.421320394</ele>
        <time>2019-03-24T12:36:32Z</time>
      </trkpt>
      <trkpt lat="45.18993" lon="5.63448">
        <ele>1019.304215841</ele>
        <time>2019-03-24T12:36:36Z</time>
      </trkpt>
      <trkpt lat="45.18986" lon="5.63449">
        <ele>1020.1597412038</ele>
        <time>2019-03-24T12:36:39Z</time>
      </trkpt>
      <trkpt lat="45.18974" lon="5.6344">
        <ele>1020.6191333611</ele>
        <time>2019-03-24T12:36:44Z</time>
      </trkpt>
      <trkpt lat="45.18963" lon="5.63429">
        <ele>1021.4345494211</ele>
        <time>2019-03-24T12:36:49Z</time>
      </trkpt>
      <trkpt lat="45.18954" lon="5.6342">
        <ele>1021.9166565127</ele>
        <time>2019-03-24T12:36:53Z</time>
      </trkpt>
      <trkpt lat="45.18945" lon="5.63414">
        <ele>1023.1729957744</ele>
        <time>2019-03-24T12:36:57Z</time>
      </trkpt>
      <trkpt lat="45.18932" lon="5.63411">
        <ele>1023.8806336824</ele>
        <time>2019-03-24T12:37:02Z</time>
      </trkpt>
      <trkpt lat="45.18923" lon="5.63416">
        <ele>1024.5284684651</ele>
        <time>2019-03-24T12:37:06Z</time>
      </trkpt>
      <trkpt lat="45.18915" lon="5.63423">
        <ele>1025.3569680853</ele>
        <time>2019-03-24T12:37:10Z</time>
      </trkpt>
      <trkpt lat="45.18907" lon="5.6343">
        <ele>1027.3768128361</ele>
        <time>2019-03-24T12:37:14Z</time>
      </trkpt>
      <trkpt lat="45.18895" lon="5.63438">
        <ele>1027.017155114</ele>
        <time>2019-03-24T12:37:19Z</time>
      </trkpt>
      <trkpt lat="45.18886" lon="5.63444">
        <ele>1026.0039434044</ele>
        <time>2019-03-24T12:37:23Z</time>
      </trkpt>
      <trkpt lat="45.18875" lon="5.63448">
        <ele>1022.9587252201</ele>
        <time>2019-03-24T12:37:28Z</time>
      </trkpt>
      <trkpt lat="45.18873" lon="5.63454">
        <ele>1024.0278381032</ele>
        <time>2019-03-24T12:37:32Z</time>
      </trkpt>
      <trkpt lat="45.18874" lon="5.63449">
        <ele>1022.9817425985</ele>
        <time>2019-03-24T12:37:42Z</time>
      </trkpt>
      <trkpt lat="45.18865" lon="5.63442">
        <ele>1024.7395096491</ele>
        <time>2019-03-24T12:37:47Z</time>
      </trkpt>
      <trkpt lat="45.18869" lon="5.63446">
        <ele>1026.4920734162</ele>
        <time>2019-03-24T12:37:54Z</time>
      </trkpt>
      <trkpt lat="45.18877" lon="5.63457">
        <ele>1027.4887519953</ele>
        <time>2019-03-24T12:37:59Z</time>
      </trkpt>
      <trkpt lat="45.18877" lon="5.63473">
        <ele>1028.9134222274</ele>
        <time>2019-03-24T12:38:04Z</time>
      </trkpt>
      <trkpt lat="45.18877" lon="5.63467">
        <ele>1028.1801063424</ele>
        <time>2019-03-24T12:38:27Z</time>
      </trkpt>
      <trkpt lat="45.18876" lon="5.63456">
        <ele>1028.2826063341</ele>
        <time>2019-03-24T12:38:31Z</time>
      </trkpt>
      <trkpt lat="45.18868" lon="5.63445">
        <ele>1027.1475426472</ele>
        <time>2019-03-24T12:38:35Z</time>
      </trkpt>
      <trkpt lat="45.18864" lon="5.63438">
        <ele>1026.5153366354</ele>
        <time>2019-03-24T12:38:40Z</time>
      </trkpt>
      <trkpt lat="45.18867" lon="5.63421">
        <ele>1028.2796764256</ele>
        <time>2019-03-24T12:38:44Z</time>
      </trkpt>
      <trkpt lat="45.18868" lon="5.63411">
        <ele>1030.4710405873</ele>
        <time>2019-03-24T12:38:48Z</time>
      </trkpt>
      <trkpt lat="45.18871" lon="5.63409">
        <ele>1031.8262217372</ele>
        <time>2019-03-24T12:39:42Z</time>
      </trkpt>
      <trkpt lat="45.18872" lon="5.6339">
        <ele>1032.4188188404</ele>
        <time>2019-03-24T12:39:47Z</time>
      </trkpt>
      <trkpt lat="45.18873" lon="5.63372">
        <ele>1033.1316688235</ele>
        <time>2019-03-24T12:39:52Z</time>
      </trkpt>
      <trkpt lat="45.18874" lon="5.63355">
        <ele>1033.7205146118</ele>
        <time>2019-03-24T12:39:56Z</time>
      </trkpt>
      <trkpt lat="45.18876" lon="5.63334">
        <ele>1035.4843372488</ele>
        <time>2019-03-24T12:40:01Z</time>
      </trkpt>
      <trkpt lat="45.18879" lon="5.63317">
        <ele>1035.1259376253</ele>
        <time>2019-03-24T12:40:06Z</time>
      </trkpt>
      <trkpt lat="45.18874" lon="5.63304">
        <ele>1034.6822425641</ele>
        <time>2019-03-24T12:40:10Z</time>
      </trkpt>
      <trkpt lat="45.18865" lon="5.63298">
        <ele>1034.6641208358</ele>
        <time>2019-03-24T12:40:13Z</time>
      </trkpt>
      <trkpt lat="45.18851" lon="5.63292">
        <ele>1037.4221450484</ele>
        <time>2019-03-24T12:40:18Z</time>
      </trkpt>
      <trkpt lat="45.18841" lon="5.63294">
        <ele>1038.8067690744</ele>
        <time>2019-03-24T12:40:22Z</time>
      </trkpt>
      <trkpt lat="45.18836" lon="5.63304">
        <ele>1039.9398229164</ele>
        <time>2019-03-24T12:40:26Z</time>
      </trkpt>
      <trkpt lat="45.18833" lon="5.63312">
        <ele>1040.2347680601</ele>
        <time>2019-03-24T12:40:29Z</time>
      </trkpt>
      <trkpt lat="45.18827" lon="5.63327">
        <ele>1041.5098817047</ele>
        <time>2019-03-24T12:40:34Z</time>
      </trkpt>
      <trkpt lat="45.18822" lon="5.63336">
        <ele>1042.0961579679</ele>
        <time>2019-03-24T12:40:37Z</time>
      </trkpt>
      <trkpt lat="45.18813" lon="5.63348">
        <ele>1044.0635662054</ele>
        <time>2019-03-24T12:40:42Z</time>
      </trkpt>
      <trkpt lat="45.18807" lon="5.63357">
        <ele>1045.4954248653</ele>
        <time>2019-03-24T12:40:46Z</time>
      </trkpt>
      <trkpt lat="45.18799" lon="5.63369">
        <ele>1048.0023042779</ele>
        <time>2019-03-24T12:40:51Z</time>
      </trkpt>
      <trkpt lat="45.18795" lon="5.63377">
        <ele>1047.7567423983</ele>
        <time>2019-03-24T12:40:54Z</time>
      </trkpt>
      <trkpt lat="45.18788" lon="5.63389">
        <ele>1049.0789348639</ele>
        <time>2019-03-24T12:40:58Z</time>
      </trkpt>
      <trkpt lat="45.1878" lon="5.634">
        <ele>1049.6194775063</ele>
        <time>2019-03-24T12:41:02Z</time>
      </trkpt>
      <trkpt lat="45.18774" lon="5.63407">
        <ele>1049.9219283569</ele>
        <time>2019-03-24T12:41:05Z</time>
      </trkpt>
      <trkpt lat="45.18765" lon="5.63418">
        <ele>1050.7716196099</ele>
        <time>2019-03-24T12:41:09Z</time>
      </trkpt>
      <trkpt lat="45.18757" lon="5.63428">
        <ele>1050.9303927508</ele>
        <time>2019-03-24T12:41:13Z</time>
      </trkpt>
      <trkpt lat="45.18747" lon="5.63437">
        <ele>1051.7054474526</ele>
        <time>2019-03-24T12:41:17Z</time>
      </trkpt>
      <trkpt lat="45.18734" lon="5.63449">
        <ele>1053.7258170424</ele>
        <time>2019-03-24T12:41:22Z</time>
      </trkpt>
      <trkpt lat="45.18727" lon="5.63453">
        <ele>1054.8914846545</ele>
        <time>2019-03-24T12:41:25Z</time>
      </trkpt>
      <trkpt lat="45.18716" lon="5.63458">
        <ele>1055.2620239086</ele>
        <time>2019-03-24T12:41:29Z</time>
      </trkpt>
      <trkpt lat="45.18701" lon="5.63466">
        <ele>1054.9954944754</ele>
        <time>2019-03-24T12:41:34Z</time>
      </trkpt>
      <trkpt lat="45.18688" lon="5.63472">
        <ele>1055.2397402795</ele>
        <time>2019-03-24T12:41:38Z</time>
      </trkpt>
      <trkpt lat="45.18674" lon="5.63479">
        <ele>1055.8510173428</ele>
        <time>2019-03-24T12:41:42Z</time>
      </trkpt>
      <trkpt lat="45.1866" lon="5.63484">
        <ele>1056.8855125325</ele>
        <time>2019-03-24T12:41:46Z</time>
      </trkpt>
      <trkpt lat="45.18646" lon="5.63487">
        <ele>1058.0839386086</ele>
        <time>2019-03-24T12:41:50Z</time>
      </trkpt>
      <trkpt lat="45.18634" lon="5.6349">
        <ele>1059.05285716</ele>
        <time>2019-03-24T12:41:54Z</time>
      </trkpt>
      <trkpt lat="45.18618" lon="5.63493">
        <ele>1058.9187259678</ele>
        <time>2019-03-24T12:41:59Z</time>
      </trkpt>
      <trkpt lat="45.186" lon="5.63488">
        <ele>1058.941898389</ele>
        <time>2019-03-24T12:42:04Z</time>
      </trkpt>
      <trkpt lat="45.18582" lon="5.63483">
        <ele>1059.2979708487</ele>
        <time>2019-03-24T12:42:09Z</time>
      </trkpt>
      <trkpt lat="45.18561" lon="5.6348">
        <ele>1060.1042841318</ele>
        <time>2019-03-24T12:42:13Z</time>
      </trkpt>
      <trkpt lat="45.18533" lon="5.63473">
        <ele>1058.5713434974</ele>
        <time>2019-03-24T12:42:17Z</time>
      </trkpt>
      <trkpt lat="45.18509" lon="5.63458">
        <ele>1057.9696970353</ele>
        <time>2019-03-24T12:42:21Z</time>
      </trkpt>
      <trkpt lat="45.18488" lon="5.63448">
        <ele>1056.6630106375</ele>
        <time>2019-03-24T12:42:24Z</time>
      </trkpt>
      <trkpt lat="45.1846" lon="5.63442">
        <ele>1055.9954648893</ele>
        <time>2019-03-24T12:42:28Z</time>
      </trkpt>
      <trkpt lat="45.18429" lon="5.63455">
        <ele>1055.6481746763</ele>
        <time>2019-03-24T12:42:33Z</time>
      </trkpt>
      <trkpt lat="45.18412" lon="5.63467">
        <ele>1056.4383060728</ele>
        <time>2019-03-24T12:42:37Z</time>
      </trkpt>
      <trkpt lat="45.18391" lon="5.63478">
        <ele>1057.8539001557</ele>
        <time>2019-03-24T12:42:42Z</time>
      </trkpt>
      <trkpt lat="45.18375" lon="5.63485">
        <ele>1059.3439752725</ele>
        <time>2019-03-24T12:42:46Z</time>
      </trkpt>
      <trkpt lat="45.18354" lon="5.63486">
        <ele>1060.4205092572</ele>
        <time>2019-03-24T12:42:51Z</time>
      </trkpt>
      <trkpt lat="45.18338" lon="5.63489">
        <ele>1059.5176726037</ele>
        <time>2019-03-24T12:42:55Z</time>
      </trkpt>
      <trkpt lat="45.18324" lon="5.63488">
        <ele>1059.2601762357</ele>
        <time>2019-03-24T12:42:58Z</time>
      </trkpt>
      <trkpt lat="45.183" lon="5.63485">
        <ele>1058.671237824</ele>
        <time>2019-03-24T12:43:03Z</time>
      </trkpt>
      <trkpt lat="45.18279" lon="5.6348">
        <ele>1058.2599307184</ele>
        <time>2019-03-24T12:43:07Z</time>
      </trkpt>
      <trkpt lat="45.18259" lon="5.63475">
        <ele>1058.1764448511</ele>
        <time>2019-03-24T12:43:11Z</time>
      </trkpt>
      <trkpt lat="45.18236" lon="5.63471">
        <ele>1058.4957856882</ele>
        <time>2019-03-24T12:43:16Z</time>
      </trkpt>
      <trkpt lat="45.18217" lon="5.63469">
        <ele>1059.0042315351</ele>
        <time>2019-03-24T12:43:20Z</time>
      </trkpt>
      <trkpt lat="45.18199" lon="5.63472">
        <ele>1058.9504995629</ele>
        <time>2019-03-24T12:43:24Z</time>
      </trkpt>
      <trkpt lat="45.18186" lon="5.63475">
        <ele>1058.985244008</ele>
        <time>2019-03-24T12:43:27Z</time>
      </trkpt>
      <trkpt lat="45.18163" lon="5.63482">
        <ele>1058.2607081582</ele>
        <time>2019-03-24T12:43:32Z</time>
      </trkpt>
      <trkpt lat="45.18143" lon="5.63487">
        <ele>1057.7235130048</ele>
        <time>2019-03-24T12:43:36Z</time>
      </trkpt>
      <trkpt lat="45.18126" lon="5.6349">
        <ele>1057.1791413342</ele>
        <time>2019-03-24T12:43:39Z</time>
      </trkpt>
      <trkpt lat="45.18096" lon="5.63497">
        <ele>1056.2194128258</ele>
        <time>2019-03-24T12:43:44Z</time>
      </trkpt>
      <trkpt lat="45.18064" lon="5.63505">
        <ele>1055.2970267667</ele>
        <time>2019-03-24T12:43:49Z</time>
      </trkpt>
      <trkpt lat="45.18041" lon="5.63512">
        <ele>1055.2429520909</ele>
        <time>2019-03-24T12:43:53Z</time>
      </trkpt>
      <trkpt lat="45.18011" lon="5.63522">
        <ele>1054.907612819</ele>
        <time>2019-03-24T12:43:58Z</time>
      </trkpt>
      <trkpt lat="45.17987" lon="5.63533">
        <ele>1054.9252269524</ele>
        <time>2019-03-24T12:44:02Z</time>
      </trkpt>
      <trkpt lat="45.17964" lon="5.63545">
        <ele>1055.3932637131</ele>
        <time>2019-03-24T12:44:06Z</time>
      </trkpt>
      <trkpt lat="45.17941" lon="5.63557">
        <ele>1056.1322197479</ele>
        <time>2019-03-24T12:44:10Z</time>
      </trkpt>
      <trkpt lat="45.17916" lon="5.6357">
        <ele>1057.3879115685</ele>
        <time>2019-03-24T12:44:15Z</time>
      </trkpt>
      <trkpt lat="45.17896" lon="5.63579">
        <ele>1058.3732528141</ele>
        <time>2019-03-24T12:44:19Z</time>
      </trkpt>
      <trkpt lat="45.17876" lon="5.63587">
        <ele>1058.9346998016</ele>
        <time>2019-03-24T12:44:23Z</time>
      </trkpt>
      <trkpt lat="45.17861" lon="5.63593">
        <ele>1059.4140781377</ele>
        <time>2019-03-24T12:44:26Z</time>
      </trkpt>
      <trkpt lat="45.17835" lon="5.63602">
        <ele>1060.5631464045</ele>
        <time>2019-03-24T12:44:31Z</time>
      </trkpt>
      <trkpt lat="45.1782" lon="5.63608">
        <ele>1061.1775428343</ele>
        <time>2019-03-24T12:44:34Z</time>
      </trkpt>
      <trkpt lat="45.17805" lon="5.63613">
        <ele>1061.7847255826</ele>
        <time>2019-03-24T12:44:37Z</time>
      </trkpt>
      <trkpt lat="45.17779" lon="5.63622">
        <ele>1062.1097253291</ele>
        <time>2019-03-24T12:44:42Z</time>
      </trkpt>
      <trkpt lat="45.17756" lon="5.63629">
        <ele>1061.5959849909</ele>
        <time>2019-03-24T12:44:46Z</time>
      </trkpt>
      <trkpt lat="45.17726" lon="5.63638">
        <ele>1061.2652929939</ele>
        <time>2019-03-24T12:44:51Z</time>
      </trkpt>
      <trkpt lat="45.17709" lon="5.63642">
        <ele>1061.398764098</ele>
        <time>2019-03-24T12:44:54Z</time>
      </trkpt>
      <trkpt lat="45.17686" lon="5.63651">
        <ele>1061.5253518941</ele>
        <time>2019-03-24T12:44:59Z</time>
      </trkpt>
      <trkpt lat="45.17672" lon="5.63648">
        <ele>1063.4309719821</ele>
        <time>2019-03-24T12:45:04Z</time>
      </trkpt>
      <trkpt lat="45.17657" lon="5.63643">
        <ele>1065.2702425231</ele>
        <time>2019-03-24T12:45:09Z</time>
      </trkpt>
      <trkpt lat="45.17646" lon="5.63637">
        <ele>1066.4342239531</ele>
        <time>2019-03-24T12:45:13Z</time>
      </trkpt>
      <trkpt lat="45.17636" lon="5.63631">
        <ele>1067.5297025071</ele>
        <time>2019-03-24T12:45:17Z</time>
      </trkpt>
      <trkpt lat="45.17627" lon="5.63627">
        <ele>1068.396759726</ele>
        <time>2019-03-24T12:45:21Z</time>
      </trkpt>
      <trkpt lat="45.17615" lon="5.63621">
        <ele>1069.7692562543</ele>
        <time>2019-03-24T12:45:26Z</time>
      </trkpt>
      <trkpt lat="45.17605" lon="5.63619">
        <ele>1070.9035576181</ele>
        <time>2019-03-24T12:45:30Z</time>
      </trkpt>
      <trkpt lat="45.17596" lon="5.63617">
        <ele>1071.6026299522</ele>
        <time>2019-03-24T12:45:34Z</time>
      </trkpt>
      <trkpt lat="45.17587" lon="5.63617">
        <ele>1072.1559349116</ele>
        <time>2019-03-24T12:45:38Z</time>
      </trkpt>
      <trkpt lat="45.17577" lon="5.63617">
        <ele>1073.9541515051</ele>
        <time>2019-03-24T12:45:42Z</time>
      </trkpt>
      <trkpt lat="45.17568" lon="5.63619">
        <ele>1073.810913693</ele>
        <time>2019-03-24T12:45:47Z</time>
      </trkpt>
      <trkpt lat="45.17559" lon="5.6362">
        <ele>1075.6351011191</ele>
        <time>2019-03-24T12:45:51Z</time>
      </trkpt>
      <trkpt lat="45.17552" lon="5.6362">
        <ele>1076.9182496826</ele>
        <time>2019-03-24T12:45:54Z</time>
      </trkpt>
      <trkpt lat="45.17544" lon="5.63619">
        <ele>1078.7260803691</ele>
        <time>2019-03-24T12:45:58Z</time>
      </trkpt>
      <trkpt lat="45.17535" lon="5.63621">
        <ele>1080.0081878586</ele>
        <time>2019-03-24T12:46:02Z</time>
      </trkpt>
      <trkpt lat="45.17524" lon="5.63622">
        <ele>1081.7505485149</ele>
        <time>2019-03-24T12:46:07Z</time>
      </trkpt>
      <trkpt lat="45.17515" lon="5.63623">
        <ele>1083.0921702491</ele>
        <time>2019-03-24T12:46:11Z</time>
      </trkpt>
      <trkpt lat="45.17507" lon="5.63626">
        <ele>1084.1551969769</ele>
        <time>2019-03-24T12:46:15Z</time>
      </trkpt>
      <trkpt lat="45.17498" lon="5.63628">
        <ele>1085.3310222218</ele>
        <time>2019-03-24T12:46:19Z</time>
      </trkpt>
      <trkpt lat="45.1749" lon="5.63629">
        <ele>1086.6912300775</ele>
        <time>2019-03-24T12:46:23Z</time>
      </trkpt>
      <trkpt lat="45.17481" lon="5.6363">
        <ele>1087.9350066214</ele>
        <time>2019-03-24T12:46:27Z</time>
      </trkpt>
      <trkpt lat="45.1747" lon="5.63632">
        <ele>1089.3858085156</ele>
        <time>2019-03-24T12:46:32Z</time>
      </trkpt>
      <trkpt lat="45.17464" lon="5.63636">
        <ele>1089.6940482969</ele>
        <time>2019-03-24T12:46:35Z</time>
      </trkpt>
      <trkpt lat="45.17456" lon="5.63642">
        <ele>1090.7830719744</ele>
        <time>2019-03-24T12:46:39Z</time>
      </trkpt>
      <trkpt lat="45.17446" lon="5.63649">
        <ele>1091.8458798402</ele>
        <time>2019-03-24T12:46:44Z</time>
      </trkpt>
      <trkpt lat="45.17438" lon="5.63656">
        <ele>1092.3235270057</ele>
        <time>2019-03-24T12:46:48Z</time>
      </trkpt>
      <trkpt lat="45.17425" lon="5.63661">
        <ele>1092.8923063216</ele>
        <time>2019-03-24T12:46:53Z</time>
      </trkpt>
      <trkpt lat="45.17414" lon="5.63663">
        <ele>1093.5120833255</ele>
        <time>2019-03-24T12:46:57Z</time>
      </trkpt>
      <trkpt lat="45.17405" lon="5.63665">
        <ele>1095.0160841409</ele>
        <time>2019-03-24T12:47:01Z</time>
      </trkpt>
      <trkpt lat="45.17394" lon="5.63663">
        <ele>1096.7831033323</ele>
        <time>2019-03-24T12:47:06Z</time>
      </trkpt>
      <trkpt lat="45.17385" lon="5.63651">
        <ele>1097.7074069819</ele>
        <time>2019-03-24T12:47:11Z</time>
      </trkpt>
      <trkpt lat="45.17377" lon="5.63643">
        <ele>1097.5909376581</ele>
        <time>2019-03-24T12:47:15Z</time>
      </trkpt>
      <trkpt lat="45.17365" lon="5.63633">
        <ele>1097.9699528014</ele>
        <time>2019-03-24T12:47:20Z</time>
      </trkpt>
      <trkpt lat="45.17356" lon="5.63627">
        <ele>1098.018254647</ele>
        <time>2019-03-24T12:47:24Z</time>
      </trkpt>
      <trkpt lat="45.17347" lon="5.63621">
        <ele>1099.2735675485</ele>
        <time>2019-03-24T12:47:28Z</time>
      </trkpt>
      <trkpt lat="45.1734" lon="5.63616">
        <ele>1100.7031467024</ele>
        <time>2019-03-24T12:47:31Z</time>
      </trkpt>
      <trkpt lat="45.1733" lon="5.63606">
        <ele>1100.4109287322</ele>
        <time>2019-03-24T12:47:36Z</time>
      </trkpt>
      <trkpt lat="45.17324" lon="5.63593">
        <ele>1100.6601116387</ele>
        <time>2019-03-24T12:47:41Z</time>
      </trkpt>
      <trkpt lat="45.17318" lon="5.63587">
        <ele>1100.9155295902</ele>
        <time>2019-03-24T12:47:46Z</time>
      </trkpt>
      <trkpt lat="45.17313" lon="5.63585">
        <ele>1101.5724069417</ele>
        <time>2019-03-24T12:47:49Z</time>
      </trkpt>
      <trkpt lat="45.17305" lon="5.63578">
        <ele>1100.5359282353</ele>
        <time>2019-03-24T12:47:53Z</time>
      </trkpt>
      <trkpt lat="45.17299" lon="5.63571">
        <ele>1101.2928975637</ele>
        <time>2019-03-24T12:47:57Z</time>
      </trkpt>
      <trkpt lat="45.17294" lon="5.63566">
        <ele>1103.6402901836</ele>
        <time>2019-03-24T12:48:01Z</time>
      </trkpt>
      <trkpt lat="45.17289" lon="5.63562">
        <ele>1106.0089610593</ele>
        <time>2019-03-24T12:48:05Z</time>
      </trkpt>
      <trkpt lat="45.17286" lon="5.63557">
        <ele>1106.813797227</ele>
        <time>2019-03-24T12:48:08Z</time>
      </trkpt>
      <trkpt lat="45.1728" lon="5.6355">
        <ele>1110.6822441992</ele>
        <time>2019-03-24T12:48:12Z</time>
      </trkpt>
      <trkpt lat="45.17272" lon="5.63539">
        <ele>1113.4524057641</ele>
        <time>2019-03-24T12:48:17Z</time>
      </trkpt>
      <trkpt lat="45.17267" lon="5.6353">
        <ele>1114.4745073393</ele>
        <time>2019-03-24T12:48:21Z</time>
      </trkpt>
      <trkpt lat="45.17265" lon="5.6352">
        <ele>1115.1371728754</ele>
        <time>2019-03-24T12:48:25Z</time>
      </trkpt>
      <trkpt lat="45.1726" lon="5.63509">
        <ele>1118.3758032061</ele>
        <time>2019-03-24T12:48:30Z</time>
      </trkpt>
      <trkpt lat="45.17255" lon="5.63498">
        <ele>1121.3210392247</ele>
        <time>2019-03-24T12:48:35Z</time>
      </trkpt>
      <trkpt lat="45.17253" lon="5.63489">
        <ele>1121.3680543605</ele>
        <time>2019-03-24T12:48:39Z</time>
      </trkpt>
      <trkpt lat="45.17254" lon="5.63483">
        <ele>1123.9037480527</ele>
        <time>2019-03-24T12:48:47Z</time>
      </trkpt>
      <trkpt lat="45.17257" lon="5.63479">
        <ele>1126.5681418021</ele>
        <time>2019-03-24T12:48:52Z</time>
      </trkpt>
      <trkpt lat="45.1726" lon="5.63476">
        <ele>1131.2293998395</ele>
        <time>2019-03-24T12:49:07Z</time>
      </trkpt>
      <trkpt lat="45.17265" lon="5.63468">
        <ele>1128.87613276</ele>
        <time>2019-03-24T12:49:12Z</time>
      </trkpt>
      <trkpt lat="45.17282" lon="5.63449">
        <ele>1129.3700015674</ele>
        <time>2019-03-24T12:49:15Z</time>
      </trkpt>
      <trkpt lat="45.17293" lon="5.6343">
        <ele>1127.9325612871</ele>
        <time>2019-03-24T12:49:19Z</time>
      </trkpt>
      <trkpt lat="45.173" lon="5.63413">
        <ele>1128.7607845465</ele>
        <time>2019-03-24T12:49:22Z</time>
      </trkpt>
      <trkpt lat="45.17305" lon="5.63398">
        <ele>1125.3222646311</ele>
        <time>2019-03-24T12:49:26Z</time>
      </trkpt>
      <trkpt lat="45.17308" lon="5.63383">
        <ele>1123.303121798</ele>
        <time>2019-03-24T12:49:30Z</time>
      </trkpt>
      <trkpt lat="45.17311" lon="5.63373">
        <ele>1121.5961442662</ele>
        <time>2019-03-24T12:49:33Z</time>
      </trkpt>
      <trkpt lat="45.17312" lon="5.63368">
        <ele>1120.2668944275</ele>
        <time>2019-03-24T12:49:37Z</time>
      </trkpt>
      <trkpt lat="45.1731" lon="5.63364">
        <ele>1120.4889199688</ele>
        <time>2019-03-24T12:49:48Z</time>
      </trkpt>
      <trkpt lat="45.17305" lon="5.63374">
        <ele>1119.0551099478</ele>
        <time>2019-03-24T12:49:53Z</time>
      </trkpt>
      <trkpt lat="45.17303" lon="5.63388">
        <ele>1118.5957635738</ele>
        <time>2019-03-24T12:49:58Z</time>
      </trkpt>
      <trkpt lat="45.173" lon="5.63398">
        <ele>1119.0363955846</ele>
        <time>2019-03-24T12:50:01Z</time>
      </trkpt>
      <trkpt lat="45.17296" lon="5.63409">
        <ele>1122.1004242508</ele>
        <time>2019-03-24T12:50:05Z</time>
      </trkpt>
      <trkpt lat="45.17294" lon="5.63421">
        <ele>1127.3761161153</ele>
        <time>2019-03-24T12:50:09Z</time>
      </trkpt>
      <trkpt lat="45.17291" lon="5.63433">
        <ele>1128.0095618599</ele>
        <time>2019-03-24T12:50:13Z</time>
      </trkpt>
      <trkpt lat="45.17286" lon="5.63446">
        <ele>1129.9253574107</ele>
        <time>2019-03-24T12:50:18Z</time>
      </trkpt>
      <trkpt lat="45.1728" lon="5.63456">
        <ele>1130.333400242</ele>
        <time>2019-03-24T12:50:23Z</time>
      </trkpt>
      <trkpt lat="45.17276" lon="5.63462">
        <ele>1131.240268516</ele>
        <time>2019-03-24T12:50:26Z</time>
      </trkpt>
      <trkpt lat="45.17269" lon="5.6347">
        <ele>1131.3240975283</ele>
        <time>2019-03-24T12:50:30Z</time>
      </trkpt>
      <trkpt lat="45.17261" lon="5.63475">
        <ele>1132.0569193637</ele>
        <time>2019-03-24T12:50:34Z</time>
      </trkpt>
      <trkpt lat="45.17261" lon="5.63464">
        <ele>1133.3752718808</ele>
        <time>2019-03-24T12:50:38Z</time>
      </trkpt>
      <trkpt lat="45.17262" lon="5.63447">
        <ele>1133.4743996403</ele>
        <time>2019-03-24T12:50:43Z</time>
      </trkpt>
      <trkpt lat="45.17264" lon="5.63436">
        <ele>1133.230799168</ele>
        <time>2019-03-24T12:50:47Z</time>
      </trkpt>
      <trkpt lat="45.17264" lon="5.63423">
        <ele>1133.0521242248</ele>
        <time>2019-03-24T12:50:51Z</time>
      </trkpt>
      <trkpt lat="45.17262" lon="5.6341">
        <ele>1134.2554974885</ele>
        <time>2019-03-24T12:50:56Z</time>
      </trkpt>
      <trkpt lat="45.17261" lon="5.63402">
        <ele>1134.3305217338</ele>
        <time>2019-03-24T12:50:59Z</time>
      </trkpt>
      <trkpt lat="45.17258" lon="5.6339">
        <ele>1134.7382151491</ele>
        <time>2019-03-24T12:51:03Z</time>
      </trkpt>
      <trkpt lat="45.17253" lon="5.63379">
        <ele>1136.520223653</ele>
        <time>2019-03-24T12:51:07Z</time>
      </trkpt>
      <trkpt lat="45.17247" lon="5.63366">
        <ele>1138.2897722886</ele>
        <time>2019-03-24T12:51:12Z</time>
      </trkpt>
      <trkpt lat="45.17243" lon="5.63357">
        <ele>1139.8514925633</ele>
        <time>2019-03-24T12:51:15Z</time>
      </trkpt>
      <trkpt lat="45.17241" lon="5.63351">
        <ele>1140.0208174473</ele>
        <time>2019-03-24T12:51:18Z</time>
      </trkpt>
      <trkpt lat="45.17238" lon="5.63339">
        <ele>1141.9919029904</ele>
        <time>2019-03-24T12:51:23Z</time>
      </trkpt>
      <trkpt lat="45.17238" lon="5.63328">
        <ele>1143.1103838104</ele>
        <time>2019-03-24T12:51:27Z</time>
      </trkpt>
      <trkpt lat="45.17239" lon="5.63316">
        <ele>1143.9711353008</ele>
        <time>2019-03-24T12:51:31Z</time>
      </trkpt>
      <trkpt lat="45.1724" lon="5.63307">
        <ele>1144.5169197239</ele>
        <time>2019-03-24T12:51:34Z</time>
      </trkpt>
      <trkpt lat="45.17242" lon="5.63291">
        <ele>1146.2776339998</ele>
        <time>2019-03-24T12:51:38Z</time>
      </trkpt>
      <trkpt lat="45.17243" lon="5.63282">
        <ele>1146.9476956135</ele>
        <time>2019-03-24T12:51:41Z</time>
      </trkpt>
      <trkpt lat="45.17245" lon="5.63263">
        <ele>1148.4462012886</ele>
        <time>2019-03-24T12:51:46Z</time>
      </trkpt>
      <trkpt lat="45.17247" lon="5.63249">
        <ele>1149.682148</ele>
        <time>2019-03-24T12:51:50Z</time>
      </trkpt>
      <trkpt lat="45.17248" lon="5.63239">
        <ele>1150.618510551</ele>
        <time>2019-03-24T12:51:53Z</time>
      </trkpt>
      <trkpt lat="45.1725" lon="5.6322">
        <ele>1151.5039819755</ele>
        <time>2019-03-24T12:51:58Z</time>
      </trkpt>
      <trkpt lat="45.17252" lon="5.63207">
        <ele>1152.0271463515</ele>
        <time>2019-03-24T12:52:02Z</time>
      </trkpt>
      <trkpt lat="45.17252" lon="5.63192">
        <ele>1152.6589975194</ele>
        <time>2019-03-24T12:52:06Z</time>
      </trkpt>
      <trkpt lat="45.17252" lon="5.63177">
        <ele>1153.3492825781</ele>
        <time>2019-03-24T12:52:10Z</time>
      </trkpt>
      <trkpt lat="45.17251" lon="5.63163">
        <ele>1153.9335687635</ele>
        <time>2019-03-24T12:52:14Z</time>
      </trkpt>
      <trkpt lat="45.1725" lon="5.63148">
        <ele>1154.1995897795</ele>
        <time>2019-03-24T12:52:18Z</time>
      </trkpt>
      <trkpt lat="45.17248" lon="5.63131">
        <ele>1154.8667001615</ele>
        <time>2019-03-24T12:52:22Z</time>
      </trkpt>
      <trkpt lat="45.17246" lon="5.63113">
        <ele>1155.9245229791</ele>
        <time>2019-03-24T12:52:26Z</time>
      </trkpt>
      <trkpt lat="45.17244" lon="5.63101">
        <ele>1156.512388721</ele>
        <time>2019-03-24T12:52:29Z</time>
      </trkpt>
      <trkpt lat="45.17241" lon="5.63086">
        <ele>1157.0822760359</ele>
        <time>2019-03-24T12:52:33Z</time>
      </trkpt>
      <trkpt lat="45.17236" lon="5.63073">
        <ele>1157.4925796907</ele>
        <time>2019-03-24T12:52:37Z</time>
      </trkpt>
      <trkpt lat="45.17227" lon="5.6306">
        <ele>1158.1388251945</ele>
        <time>2019-03-24T12:52:41Z</time>
      </trkpt>
      <trkpt lat="45.17216" lon="5.63051">
        <ele>1158.7482017631</ele>
        <time>2019-03-24T12:52:45Z</time>
      </trkpt>
      <trkpt lat="45.17205" lon="5.63046">
        <ele>1159.5996711929</ele>
        <time>2019-03-24T12:52:49Z</time>
      </trkpt>
      <trkpt lat="45.17189" lon="5.63047">
        <ele>1160.2728204316</ele>
        <time>2019-03-24T12:52:54Z</time>
      </trkpt>
      <trkpt lat="45.17174" lon="5.63051">
        <ele>1160.9692715319</ele>
        <time>2019-03-24T12:52:58Z</time>
      </trkpt>
      <trkpt lat="45.17163" lon="5.63054">
        <ele>1161.4234499967</ele>
        <time>2019-03-24T12:53:01Z</time>
      </trkpt>
      <trkpt lat="45.17148" lon="5.6306">
        <ele>1161.9409672106</ele>
        <time>2019-03-24T12:53:05Z</time>
      </trkpt>
      <trkpt lat="45.17133" lon="5.63062">
        <ele>1162.5348089213</ele>
        <time>2019-03-24T12:53:08Z</time>
      </trkpt>
      <trkpt lat="45.17114" lon="5.63061">
        <ele>1162.9404279448</ele>
        <time>2019-03-24T12:53:13Z</time>
      </trkpt>
      <trkpt lat="45.17101" lon="5.63071">
        <ele>1162.8614930599</ele>
        <time>2019-03-24T12:53:17Z</time>
      </trkpt>
      <trkpt lat="45.17088" lon="5.63071">
        <ele>1162.4249572713</ele>
        <time>2019-03-24T12:53:20Z</time>
      </trkpt>
      <trkpt lat="45.17074" lon="5.63061">
        <ele>1162.5234032289</ele>
        <time>2019-03-24T12:53:24Z</time>
      </trkpt>
      <trkpt lat="45.17063" lon="5.6305">
        <ele>1162.7028698757</ele>
        <time>2019-03-24T12:53:28Z</time>
      </trkpt>
      <trkpt lat="45.17057" lon="5.6304">
        <ele>1162.783094122</ele>
        <time>2019-03-24T12:53:32Z</time>
      </trkpt>
      <trkpt lat="45.17051" lon="5.63027">
        <ele>1163.0859138755</ele>
        <time>2019-03-24T12:53:36Z</time>
      </trkpt>
      <trkpt lat="45.17045" lon="5.63015">
        <ele>1163.4894867424</ele>
        <time>2019-03-24T12:53:41Z</time>
      </trkpt>
      <trkpt lat="45.17043" lon="5.63009">
        <ele>1163.4675604636</ele>
        <time>2019-03-24T12:53:45Z</time>
      </trkpt>
      <trkpt lat="45.17046" lon="5.63007">
        <ele>1162.9500817955</ele>
        <time>2019-03-24T12:54:10Z</time>
      </trkpt>
      <trkpt lat="45.17048" lon="5.63019">
        <ele>1162.613596801</ele>
        <time>2019-03-24T12:54:15Z</time>
      </trkpt>
      <trkpt lat="45.17046" lon="5.63025">
        <ele>1162.7430066169</ele>
        <time>2019-03-24T12:54:25Z</time>
      </trkpt>
      <trkpt lat="45.17049" lon="5.63024">
        <ele>1162.5470362826</ele>
        <time>2019-03-24T12:55:18Z</time>
      </trkpt>
      <trkpt lat="45.17048" lon="5.6301">
        <ele>1162.7807802778</ele>
        <time>2019-03-24T12:55:23Z</time>
      </trkpt>
      <trkpt lat="45.1704" lon="5.63003">
        <ele>1163.1722111578</ele>
        <time>2019-03-24T12:55:27Z</time>
      </trkpt>
      <trkpt lat="45.1703" lon="5.63004">
        <ele>1163.4169460266</ele>
        <time>2019-03-24T12:55:30Z</time>
      </trkpt>
      <trkpt lat="45.17018" lon="5.63007">
        <ele>1164.0915664163</ele>
        <time>2019-03-24T12:55:34Z</time>
      </trkpt>
      <trkpt lat="45.17009" lon="5.63009">
        <ele>1164.516187613</ele>
        <time>2019-03-24T12:55:37Z</time>
      </trkpt>
      <trkpt lat="45.16994" lon="5.63012">
        <ele>1165.2267418222</ele>
        <time>2019-03-24T12:55:42Z</time>
      </trkpt>
      <trkpt lat="45.16981" lon="5.63015">
        <ele>1165.4872045243</ele>
        <time>2019-03-24T12:55:46Z</time>
      </trkpt>
      <trkpt lat="45.16964" lon="5.63019">
        <ele>1166.3041638677</ele>
        <time>2019-03-24T12:55:51Z</time>
      </trkpt>
      <trkpt lat="45.1695" lon="5.63022">
        <ele>1166.7615463822</ele>
        <time>2019-03-24T12:55:55Z</time>
      </trkpt>
      <trkpt lat="45.1694" lon="5.63023">
        <ele>1167.2291563351</ele>
        <time>2019-03-24T12:55:58Z</time>
      </trkpt>
      <trkpt lat="45.16922" lon="5.63026">
        <ele>1167.8941133893</ele>
        <time>2019-03-24T12:56:03Z</time>
      </trkpt>
      <trkpt lat="45.16912" lon="5.63029">
        <ele>1168.3770006003</ele>
        <time>2019-03-24T12:56:06Z</time>
      </trkpt>
      <trkpt lat="45.16898" lon="5.63031">
        <ele>1169.0763204668</ele>
        <time>2019-03-24T12:56:10Z</time>
      </trkpt>
      <trkpt lat="45.16882" lon="5.63033">
        <ele>1169.5016005117</ele>
        <time>2019-03-24T12:56:15Z</time>
      </trkpt>
      <trkpt lat="45.16869" lon="5.63034">
        <ele>1170.0816223756</ele>
        <time>2019-03-24T12:56:19Z</time>
      </trkpt>
      <trkpt lat="45.16855" lon="5.63035">
        <ele>1170.7546648477</ele>
        <time>2019-03-24T12:56:23Z</time>
      </trkpt>
      <trkpt lat="45.16841" lon="5.63036">
        <ele>1171.3712706551</ele>
        <time>2019-03-24T12:56:27Z</time>
      </trkpt>
      <trkpt lat="45.16823" lon="5.63038">
        <ele>1172.2929482841</ele>
        <time>2019-03-24T12:56:32Z</time>
      </trkpt>
      <trkpt lat="45.16809" lon="5.63038">
        <ele>1172.7924970819</ele>
        <time>2019-03-24T12:56:36Z</time>
      </trkpt>
      <trkpt lat="45.16792" lon="5.6304">
        <ele>1173.7537366704</ele>
        <time>2019-03-24T12:56:41Z</time>
      </trkpt>
      <trkpt lat="45.16778" lon="5.63042">
        <ele>1174.6336721432</ele>
        <time>2019-03-24T12:56:45Z</time>
      </trkpt>
      <trkpt lat="45.16765" lon="5.63045">
        <ele>1175.2257409397</ele>
        <time>2019-03-24T12:56:49Z</time>
      </trkpt>
      <trkpt lat="45.1675" lon="5.63051">
        <ele>1176.3353888665</ele>
        <time>2019-03-24T12:56:54Z</time>
      </trkpt>
      <trkpt lat="45.16741" lon="5.63054">
        <ele>1177.0113672694</ele>
        <time>2019-03-24T12:56:57Z</time>
      </trkpt>
      <trkpt lat="45.1673" lon="5.63059">
        <ele>1178.1106675289</ele>
        <time>2019-03-24T12:57:01Z</time>
      </trkpt>
      <trkpt lat="45.16718" lon="5.63062">
        <ele>1179.1677749237</ele>
        <time>2019-03-24T12:57:05Z</time>
      </trkpt>
      <trkpt lat="45.16706" lon="5.63066">
        <ele>1180.1618496544</ele>
        <time>2019-03-24T12:57:09Z</time>
      </trkpt>
      <trkpt lat="45.16691" lon="5.6307">
        <ele>1181.4408594259</ele>
        <time>2019-03-24T12:57:14Z</time>
      </trkpt>
      <trkpt lat="45.1668" lon="5.63073">
        <ele>1182.15811258</ele>
        <time>2019-03-24T12:57:18Z</time>
      </trkpt>
      <trkpt lat="45.16671" lon="5.63073">
        <ele>1182.9384169748</ele>
        <time>2019-03-24T12:57:21Z</time>
      </trkpt>
      <trkpt lat="45.16661" lon="5.63065">
        <ele>1183.9706860075</ele>
        <time>2019-03-24T12:57:25Z</time>
      </trkpt>
      <trkpt lat="45.16656" lon="5.63046">
        <ele>1185.4960733487</ele>
        <time>2019-03-24T12:57:30Z</time>
      </trkpt>
      <trkpt lat="45.16656" lon="5.6303">
        <ele>1186.5345652585</ele>
        <time>2019-03-24T12:57:34Z</time>
      </trkpt>
      <trkpt lat="45.16656" lon="5.63008">
        <ele>1187.8797995058</ele>
        <time>2019-03-24T12:57:39Z</time>
      </trkpt>
      <trkpt lat="45.16656" lon="5.62992">
        <ele>1188.9144719422</ele>
        <time>2019-03-24T12:57:43Z</time>
      </trkpt>
      <trkpt lat="45.16657" lon="5.62978">
        <ele>1189.4858632627</ele>
        <time>2019-03-24T12:57:46Z</time>
      </trkpt>
      <trkpt lat="45.16657" lon="5.62962">
        <ele>1190.6073915992</ele>
        <time>2019-03-24T12:57:50Z</time>
      </trkpt>
      <trkpt lat="45.16659" lon="5.62942">
        <ele>1191.5398700621</ele>
        <time>2019-03-24T12:57:54Z</time>
      </trkpt>
      <trkpt lat="45.1666" lon="5.62929">
        <ele>1192.2593342159</ele>
        <time>2019-03-24T12:57:57Z</time>
      </trkpt>
      <trkpt lat="45.16663" lon="5.62911">
        <ele>1192.8847961311</ele>
        <time>2019-03-24T12:58:01Z</time>
      </trkpt>
      <trkpt lat="45.16664" lon="5.62889">
        <ele>1193.8544623412</ele>
        <time>2019-03-24T12:58:06Z</time>
      </trkpt>
      <trkpt lat="45.16655" lon="5.62889">
        <ele>1193.7883938164</ele>
        <time>2019-03-24T12:58:10Z</time>
      </trkpt>
      <trkpt lat="45.16644" lon="5.62912">
        <ele>1193.903975462</ele>
        <time>2019-03-24T12:58:15Z</time>
      </trkpt>
      <trkpt lat="45.16637" lon="5.62934">
        <ele>1194.2525722483</ele>
        <time>2019-03-24T12:58:19Z</time>
      </trkpt>
      <trkpt lat="45.16633" lon="5.62961">
        <ele>1194.6700618849</ele>
        <time>2019-03-24T12:58:23Z</time>
      </trkpt>
      <trkpt lat="45.1663" lon="5.62985">
        <ele>1195.1983927426</ele>
        <time>2019-03-24T12:58:27Z</time>
      </trkpt>
      <trkpt lat="45.16623" lon="5.63008">
        <ele>1195.9258212544</ele>
        <time>2019-03-24T12:58:31Z</time>
      </trkpt>
      <trkpt lat="45.16609" lon="5.63031">
        <ele>1196.9772909761</ele>
        <time>2019-03-24T12:58:36Z</time>
      </trkpt>
      <trkpt lat="45.16594" lon="5.63054">
        <ele>1198.1475458873</ele>
        <time>2019-03-24T12:58:41Z</time>
      </trkpt>
      <trkpt lat="45.16583" lon="5.63079">
        <ele>1199.2779231151</ele>
        <time>2019-03-24T12:58:46Z</time>
      </trkpt>
      <trkpt lat="45.16579" lon="5.63095">
        <ele>1200.2339108229</ele>
        <time>2019-03-24T12:58:49Z</time>
      </trkpt>
      <trkpt lat="45.1658" lon="5.63118">
        <ele>1201.2844725607</ele>
        <time>2019-03-24T12:58:53Z</time>
      </trkpt>
      <trkpt lat="45.16587" lon="5.63132">
        <ele>1201.628996803</ele>
        <time>2019-03-24T12:58:56Z</time>
      </trkpt>
      <trkpt lat="45.16601" lon="5.63147">
        <ele>1202.0113458322</ele>
        <time>2019-03-24T12:59:00Z</time>
      </trkpt>
      <trkpt lat="45.16616" lon="5.6316">
        <ele>1202.2320861231</ele>
        <time>2019-03-24T12:59:04Z</time>
      </trkpt>
      <trkpt lat="45.16627" lon="5.6317">
        <ele>1202.4061598314</ele>
        <time>2019-03-24T12:59:07Z</time>
      </trkpt>
      <trkpt lat="45.16645" lon="5.63187">
        <ele>1202.8125713773</ele>
        <time>2019-03-24T12:59:12Z</time>
      </trkpt>
      <trkpt lat="45.16665" lon="5.63203">
        <ele>1203.5579528226</ele>
        <time>2019-03-24T12:59:17Z</time>
      </trkpt>
      <trkpt lat="45.16681" lon="5.63215">
        <ele>1204.0942399223</ele>
        <time>2019-03-24T12:59:21Z</time>
      </trkpt>
      <trkpt lat="45.16692" lon="5.63225">
        <ele>1204.5351970809</ele>
        <time>2019-03-24T12:59:24Z</time>
      </trkpt>
      <trkpt lat="45.16707" lon="5.63237">
        <ele>1205.4784811911</ele>
        <time>2019-03-24T12:59:28Z</time>
      </trkpt>
      <trkpt lat="45.16722" lon="5.63248">
        <ele>1206.2187499708</ele>
        <time>2019-03-24T12:59:32Z</time>
      </trkpt>
      <trkpt lat="45.1674" lon="5.6326">
        <ele>1207.2495548227</ele>
        <time>2019-03-24T12:59:37Z</time>
      </trkpt>
      <trkpt lat="45.16759" lon="5.63272">
        <ele>1208.7264928309</ele>
        <time>2019-03-24T12:59:42Z</time>
      </trkpt>
      <trkpt lat="45.16773" lon="5.63282">
        <ele>1209.5278227284</ele>
        <time>2019-03-24T12:59:46Z</time>
      </trkpt>
      <trkpt lat="45.16791" lon="5.63296">
        <ele>1210.761574606</ele>
        <time>2019-03-24T12:59:51Z</time>
      </trkpt>
      <trkpt lat="45.16801" lon="5.63308">
        <ele>1211.4062469403</ele>
        <time>2019-03-24T12:59:54Z</time>
      </trkpt>
      <trkpt lat="45.16813" lon="5.63324">
        <ele>1212.3896907038</ele>
        <time>2019-03-24T12:59:58Z</time>
      </trkpt>
      <trkpt lat="45.1682" lon="5.63336">
        <ele>1213.1315716501</ele>
        <time>2019-03-24T13:00:01Z</time>
      </trkpt>
      <trkpt lat="45.16827" lon="5.63355">
        <ele>1213.6351736918</ele>
        <time>2019-03-24T13:00:05Z</time>
      </trkpt>
      <trkpt lat="45.16821" lon="5.63364">
        <ele>1213.9455749897</ele>
        <time>2019-03-24T13:00:09Z</time>
      </trkpt>
      <trkpt lat="45.16811" lon="5.63361">
        <ele>1213.5970614783</ele>
        <time>2019-03-24T13:00:12Z</time>
      </trkpt>
      <trkpt lat="45.16796" lon="5.63357">
        <ele>1214.662507076</ele>
        <time>2019-03-24T13:00:17Z</time>
      </trkpt>
      <trkpt lat="45.16784" lon="5.63353">
        <ele>1217.7420573601</ele>
        <time>2019-03-24T13:00:21Z</time>
      </trkpt>
      <trkpt lat="45.1677" lon="5.63348">
        <ele>1219.6088962083</ele>
        <time>2019-03-24T13:00:26Z</time>
      </trkpt>
      <trkpt lat="45.1676" lon="5.63344">
        <ele>1220.8634870044</ele>
        <time>2019-03-24T13:00:30Z</time>
      </trkpt>
      <trkpt lat="45.16749" lon="5.6334">
        <ele>1221.8327926654</ele>
        <time>2019-03-24T13:00:34Z</time>
      </trkpt>
      <trkpt lat="45.1674" lon="5.63338">
        <ele>1222.3394129391</ele>
        <time>2019-03-24T13:00:37Z</time>
      </trkpt>
      <trkpt lat="45.16726" lon="5.63333">
        <ele>1223.640709189</ele>
        <time>2019-03-24T13:00:42Z</time>
      </trkpt>
      <trkpt lat="45.16715" lon="5.63328">
        <ele>1224.2738120561</ele>
        <time>2019-03-24T13:00:46Z</time>
      </trkpt>
      <trkpt lat="45.167" lon="5.63322">
        <ele>1225.521290294</ele>
        <time>2019-03-24T13:00:51Z</time>
      </trkpt>
      <trkpt lat="45.16688" lon="5.63317">
        <ele>1226.7127810163</ele>
        <time>2019-03-24T13:00:55Z</time>
      </trkpt>
      <trkpt lat="45.16677" lon="5.63313">
        <ele>1227.3551405856</ele>
        <time>2019-03-24T13:00:59Z</time>
      </trkpt>
      <trkpt lat="45.16668" lon="5.63309">
        <ele>1227.8535677449</ele>
        <time>2019-03-24T13:01:02Z</time>
      </trkpt>
      <trkpt lat="45.16657" lon="5.63304">
        <ele>1228.7319545559</ele>
        <time>2019-03-24T13:01:06Z</time>
      </trkpt>
      <trkpt lat="45.16648" lon="5.63299">
        <ele>1229.309830684</ele>
        <time>2019-03-24T13:01:09Z</time>
      </trkpt>
      <trkpt lat="45.16633" lon="5.63293">
        <ele>1229.6987918911</ele>
        <time>2019-03-24T13:01:14Z</time>
      </trkpt>
      <trkpt lat="45.16625" lon="5.63289">
        <ele>1230.2115389433</ele>
        <time>2019-03-24T13:01:17Z</time>
      </trkpt>
      <trkpt lat="45.16612" lon="5.63284">
        <ele>1231.2011615288</ele>
        <time>2019-03-24T13:01:21Z</time>
      </trkpt>
      <trkpt lat="45.16599" lon="5.6328">
        <ele>1231.7888015462</ele>
        <time>2019-03-24T13:01:25Z</time>
      </trkpt>
      <trkpt lat="45.16588" lon="5.63278">
        <ele>1232.2774451752</ele>
        <time>2019-03-24T13:01:29Z</time>
      </trkpt>
      <trkpt lat="45.16577" lon="5.63274">
        <ele>1233.3093587006</ele>
        <time>2019-03-24T13:01:33Z</time>
      </trkpt>
      <trkpt lat="45.16562" lon="5.63269">
        <ele>1234.6535975165</ele>
        <time>2019-03-24T13:01:38Z</time>
      </trkpt>
      <trkpt lat="45.16553" lon="5.63266">
        <ele>1235.4683688914</ele>
        <time>2019-03-24T13:01:41Z</time>
      </trkpt>
      <trkpt lat="45.16542" lon="5.63264">
        <ele>1235.5756734713</ele>
        <time>2019-03-24T13:01:45Z</time>
      </trkpt>
      <trkpt lat="45.16531" lon="5.6326">
        <ele>1236.8915569381</ele>
        <time>2019-03-24T13:01:49Z</time>
      </trkpt>
      <trkpt lat="45.16521" lon="5.63256">
        <ele>1240.5383101254</ele>
        <time>2019-03-24T13:01:53Z</time>
      </trkpt>
      <trkpt lat="45.16514" lon="5.63253">
        <ele>1243.4830606436</ele>
        <time>2019-03-24T13:01:57Z</time>
      </trkpt>
      <trkpt lat="45.16503" lon="5.63249">
        <ele>1246.0185231344</ele>
        <time>2019-03-24T13:02:02Z</time>
      </trkpt>
      <trkpt lat="45.16495" lon="5.63247">
        <ele>1248.3924921513</ele>
        <time>2019-03-24T13:02:06Z</time>
      </trkpt>
      <trkpt lat="45.16488" lon="5.63243">
        <ele>1251.2863149832</ele>
        <time>2019-03-24T13:02:10Z</time>
      </trkpt>
      <trkpt lat="45.16479" lon="5.63238">
        <ele>1252.1525866093</ele>
        <time>2019-03-24T13:02:14Z</time>
      </trkpt>
      <trkpt lat="45.16471" lon="5.63228">
        <ele>1250.5807534939</ele>
        <time>2019-03-24T13:02:19Z</time>
      </trkpt>
      <trkpt lat="45.16466" lon="5.63221">
        <ele>1251.4699734123</ele>
        <time>2019-03-24T13:02:22Z</time>
      </trkpt>
      <trkpt lat="45.16457" lon="5.63207">
        <ele>1250.5458038281</ele>
        <time>2019-03-24T13:02:27Z</time>
      </trkpt>
      <trkpt lat="45.1645" lon="5.63202">
        <ele>1252.004872711</ele>
        <time>2019-03-24T13:02:32Z</time>
      </trkpt>
      <trkpt lat="45.16445" lon="5.63195">
        <ele>1254.4165650011</ele>
        <time>2019-03-24T13:02:35Z</time>
      </trkpt>
      <trkpt lat="45.1644" lon="5.63187">
        <ele>1254.4912441952</ele>
        <time>2019-03-24T13:02:39Z</time>
      </trkpt>
      <trkpt lat="45.16433" lon="5.63182">
        <ele>1255.227393521</ele>
        <time>2019-03-24T13:02:42Z</time>
      </trkpt>
      <trkpt lat="45.16426" lon="5.63179">
        <ele>1257.2510268466</ele>
        <time>2019-03-24T13:02:46Z</time>
      </trkpt>
      <trkpt lat="45.16419" lon="5.63175">
        <ele>1256.9588189193</ele>
        <time>2019-03-24T13:02:50Z</time>
      </trkpt>
      <trkpt lat="45.16412" lon="5.6317">
        <ele>1257.6395076467</ele>
        <time>2019-03-24T13:02:54Z</time>
      </trkpt>
      <trkpt lat="45.16404" lon="5.63166">
        <ele>1259.8596831033</ele>
        <time>2019-03-24T13:02:58Z</time>
      </trkpt>
      <trkpt lat="45.16397" lon="5.63161">
        <ele>1261.0658302696</ele>
        <time>2019-03-24T13:03:01Z</time>
      </trkpt>
      <trkpt lat="45.1639" lon="5.63155">
        <ele>1260.7891222657</ele>
        <time>2019-03-24T13:03:05Z</time>
      </trkpt>
      <trkpt lat="45.16383" lon="5.63149">
        <ele>1262.2168876632</ele>
        <time>2019-03-24T13:03:09Z</time>
      </trkpt>
      <trkpt lat="45.16374" lon="5.6314">
        <ele>1262.8531899094</ele>
        <time>2019-03-24T13:03:13Z</time>
      </trkpt>
      <trkpt lat="45.16369" lon="5.63136">
        <ele>1263.2233510897</ele>
        <time>2019-03-24T13:03:17Z</time>
      </trkpt>
      <trkpt lat="45.16362" lon="5.63131">
        <ele>1264.0062382288</ele>
        <time>2019-03-24T13:03:22Z</time>
      </trkpt>
      <trkpt lat="45.16355" lon="5.63125">
        <ele>1264.4989467251</ele>
        <time>2019-03-24T13:03:26Z</time>
      </trkpt>
      <trkpt lat="45.16352" lon="5.63118">
        <ele>1265.4736952619</ele>
        <time>2019-03-24T13:03:29Z</time>
      </trkpt>
      <trkpt lat="45.16346" lon="5.6311">
        <ele>1265.910535728</ele>
        <time>2019-03-24T13:03:33Z</time>
      </trkpt>
      <trkpt lat="45.16339" lon="5.63105">
        <ele>1267.3447040795</ele>
        <time>2019-03-24T13:03:37Z</time>
      </trkpt>
      <trkpt lat="45.16327" lon="5.63099">
        <ele>1269.8101683849</ele>
        <time>2019-03-24T13:03:42Z</time>
      </trkpt>
      <trkpt lat="45.16316" lon="5.63093">
        <ele>1272.1056448615</ele>
        <time>2019-03-24T13:03:47Z</time>
      </trkpt>
      <trkpt lat="45.16308" lon="5.63089">
        <ele>1275.1228741147</ele>
        <time>2019-03-24T13:03:51Z</time>
      </trkpt>
      <trkpt lat="45.16301" lon="5.63086">
        <ele>1276.0158101147</ele>
        <time>2019-03-24T13:03:56Z</time>
      </trkpt>
      <trkpt lat="45.1629" lon="5.63084">
        <ele>1278.0923394536</ele>
        <time>2019-03-24T13:04:00Z</time>
      </trkpt>
      <trkpt lat="45.16282" lon="5.63082">
        <ele>1278.6756360019</ele>
        <time>2019-03-24T13:04:04Z</time>
      </trkpt>
      <trkpt lat="45.16269" lon="5.63077">
        <ele>1279.8329976304</ele>
        <time>2019-03-24T13:04:09Z</time>
      </trkpt>
      <trkpt lat="45.16262" lon="5.63073">
        <ele>1278.5987760215</ele>
        <time>2019-03-24T13:04:13Z</time>
      </trkpt>
      <trkpt lat="45.1625" lon="5.63068">
        <ele>1279.5913154507</ele>
        <time>2019-03-24T13:04:18Z</time>
      </trkpt>
      <trkpt lat="45.16235" lon="5.63063">
        <ele>1279.4933266717</ele>
        <time>2019-03-24T13:04:23Z</time>
      </trkpt>
      <trkpt lat="45.16222" lon="5.63056">
        <ele>1279.0067244304</ele>
        <time>2019-03-24T13:04:27Z</time>
      </trkpt>
      <trkpt lat="45.16211" lon="5.63053">
        <ele>1278.1228695309</ele>
        <time>2019-03-24T13:04:31Z</time>
      </trkpt>
      <trkpt lat="45.16195" lon="5.63045">
        <ele>1276.5011408575</ele>
        <time>2019-03-24T13:04:36Z</time>
      </trkpt>
      <trkpt lat="45.16181" lon="5.63036">
        <ele>1277.8608420411</ele>
        <time>2019-03-24T13:04:40Z</time>
      </trkpt>
      <trkpt lat="45.1617" lon="5.6303">
        <ele>1276.5494737937</ele>
        <time>2019-03-24T13:04:43Z</time>
      </trkpt>
      <trkpt lat="45.16152" lon="5.63016">
        <ele>1274.2269622003</ele>
        <time>2019-03-24T13:04:46Z</time>
      </trkpt>
      <trkpt lat="45.16136" lon="5.62996">
        <ele>1272.7157541382</ele>
        <time>2019-03-24T13:04:50Z</time>
      </trkpt>
      <trkpt lat="45.16119" lon="5.62972">
        <ele>1270.4377173104</ele>
        <time>2019-03-24T13:04:55Z</time>
      </trkpt>
      <trkpt lat="45.16112" lon="5.62961">
        <ele>1269.7075488972</ele>
        <time>2019-03-24T13:04:59Z</time>
      </trkpt>
      <trkpt lat="45.16106" lon="5.62944">
        <ele>1268.8720947219</ele>
        <time>2019-03-24T13:05:04Z</time>
      </trkpt>
      <trkpt lat="45.16105" lon="5.62926">
        <ele>1269.5261671283</ele>
        <time>2019-03-24T13:05:08Z</time>
      </trkpt>
      <trkpt lat="45.16105" lon="5.62911">
        <ele>1270.2597793869</ele>
        <time>2019-03-24T13:05:12Z</time>
      </trkpt>
      <trkpt lat="45.16104" lon="5.62894">
        <ele>1271.4779478309</ele>
        <time>2019-03-24T13:05:16Z</time>
      </trkpt>
      <trkpt lat="45.16103" lon="5.62879">
        <ele>1272.5430053201</ele>
        <time>2019-03-24T13:05:20Z</time>
      </trkpt>
      <trkpt lat="45.16101" lon="5.62861">
        <ele>1272.7159185393</ele>
        <time>2019-03-24T13:05:25Z</time>
      </trkpt>
      <trkpt lat="45.16098" lon="5.62844">
        <ele>1273.4100228505</ele>
        <time>2019-03-24T13:05:30Z</time>
      </trkpt>
      <trkpt lat="45.16095" lon="5.62831">
        <ele>1273.7206683537</ele>
        <time>2019-03-24T13:05:34Z</time>
      </trkpt>
      <trkpt lat="45.16089" lon="5.6281">
        <ele>1273.5562828782</ele>
        <time>2019-03-24T13:05:39Z</time>
      </trkpt>
      <trkpt lat="45.16085" lon="5.62793">
        <ele>1273.1474048344</ele>
        <time>2019-03-24T13:05:44Z</time>
      </trkpt>
      <trkpt lat="45.1608" lon="5.62776">
        <ele>1272.4082258534</ele>
        <time>2019-03-24T13:05:49Z</time>
      </trkpt>
      <trkpt lat="45.16077" lon="5.62763">
        <ele>1271.7587422923</ele>
        <time>2019-03-24T13:05:53Z</time>
      </trkpt>
      <trkpt lat="45.16073" lon="5.62742">
        <ele>1272.101522583</ele>
        <time>2019-03-24T13:05:58Z</time>
      </trkpt>
      <trkpt lat="45.16071" lon="5.62726">
        <ele>1271.3390823687</ele>
        <time>2019-03-24T13:06:02Z</time>
      </trkpt>
      <trkpt lat="45.16069" lon="5.62711">
        <ele>1270.9362771634</ele>
        <time>2019-03-24T13:06:06Z</time>
      </trkpt>
      <trkpt lat="45.16066" lon="5.62698">
        <ele>1270.5211907932</ele>
        <time>2019-03-24T13:06:10Z</time>
      </trkpt>
      <trkpt lat="45.16064" lon="5.62684">
        <ele>1269.856420247</ele>
        <time>2019-03-24T13:06:14Z</time>
      </trkpt>
      <trkpt lat="45.16061" lon="5.62669">
        <ele>1268.9180558694</ele>
        <time>2019-03-24T13:06:18Z</time>
      </trkpt>
      <trkpt lat="45.16058" lon="5.62649">
        <ele>1267.1948560395</ele>
        <time>2019-03-24T13:06:23Z</time>
      </trkpt>
      <trkpt lat="45.16054" lon="5.62622">
        <ele>1265.9629060044</ele>
        <time>2019-03-24T13:06:27Z</time>
      </trkpt>
      <trkpt lat="45.1605" lon="5.62597">
        <ele>1262.668894596</ele>
        <time>2019-03-24T13:06:31Z</time>
      </trkpt>
      <trkpt lat="45.16044" lon="5.6257">
        <ele>1262.3220813693</ele>
        <time>2019-03-24T13:06:36Z</time>
      </trkpt>
      <trkpt lat="45.1604" lon="5.62559">
        <ele>1262.0641420953</ele>
        <time>2019-03-24T13:06:40Z</time>
      </trkpt>
      <trkpt lat="45.16031" lon="5.62544">
        <ele>1263.7901578931</ele>
        <time>2019-03-24T13:06:45Z</time>
      </trkpt>
      <trkpt lat="45.16024" lon="5.62533">
        <ele>1265.4362341531</ele>
        <time>2019-03-24T13:06:49Z</time>
      </trkpt>
      <trkpt lat="45.16012" lon="5.62516">
        <ele>1267.3533158696</ele>
        <time>2019-03-24T13:06:54Z</time>
      </trkpt>
      <trkpt lat="45.16003" lon="5.62502">
        <ele>1267.9726654564</ele>
        <time>2019-03-24T13:06:58Z</time>
      </trkpt>
      <trkpt lat="45.15992" lon="5.62486">
        <ele>1268.4825350765</ele>
        <time>2019-03-24T13:07:02Z</time>
      </trkpt>
      <trkpt lat="45.15983" lon="5.62467">
        <ele>1270.1405409227</ele>
        <time>2019-03-24T13:07:07Z</time>
      </trkpt>
      <trkpt lat="45.15976" lon="5.62451">
        <ele>1271.6545337051</ele>
        <time>2019-03-24T13:07:12Z</time>
      </trkpt>
      <trkpt lat="45.1597" lon="5.62441">
        <ele>1271.2668088764</ele>
        <time>2019-03-24T13:07:15Z</time>
      </trkpt>
      <trkpt lat="45.1596" lon="5.62425">
        <ele>1271.6459356073</ele>
        <time>2019-03-24T13:07:20Z</time>
      </trkpt>
      <trkpt lat="45.15955" lon="5.62416">
        <ele>1272.4185718252</ele>
        <time>2019-03-24T13:07:23Z</time>
      </trkpt>
      <trkpt lat="45.15951" lon="5.62408">
        <ele>1272.8487827516</ele>
        <time>2019-03-24T13:07:26Z</time>
      </trkpt>
      <trkpt lat="45.15944" lon="5.62396">
        <ele>1272.2566688855</ele>
        <time>2019-03-24T13:07:30Z</time>
      </trkpt>
      <trkpt lat="45.15935" lon="5.62382">
        <ele>1272.6999605426</ele>
        <time>2019-03-24T13:07:34Z</time>
      </trkpt>
      <trkpt lat="45.15925" lon="5.62365">
        <ele>1274.1637058892</ele>
        <time>2019-03-24T13:07:38Z</time>
      </trkpt>
      <trkpt lat="45.15907" lon="5.62334">
        <ele>1272.3311303267</ele>
        <time>2019-03-24T13:07:43Z</time>
      </trkpt>
      <trkpt lat="45.15883" lon="5.6231">
        <ele>1266.5230924037</ele>
        <time>2019-03-24T13:07:48Z</time>
      </trkpt>
      <trkpt lat="45.15864" lon="5.62303">
        <ele>1265.7642702276</ele>
        <time>2019-03-24T13:07:52Z</time>
      </trkpt>
      <trkpt lat="45.15841" lon="5.62301">
        <ele>1269.871270913</ele>
        <time>2019-03-24T13:07:57Z</time>
      </trkpt>
      <trkpt lat="45.15816" lon="5.62307">
        <ele>1269.0364422411</ele>
        <time>2019-03-24T13:08:02Z</time>
      </trkpt>
      <trkpt lat="45.15802" lon="5.62307">
        <ele>1269.7326630217</ele>
        <time>2019-03-24T13:08:05Z</time>
      </trkpt>
      <trkpt lat="45.15779" lon="5.62307">
        <ele>1275.0115797879</ele>
        <time>2019-03-24T13:08:09Z</time>
      </trkpt>
      <trkpt lat="45.15759" lon="5.62309">
        <ele>1272.4871083744</ele>
        <time>2019-03-24T13:08:13Z</time>
      </trkpt>
      <trkpt lat="45.15737" lon="5.62314">
        <ele>1269.0345596283</ele>
        <time>2019-03-24T13:08:17Z</time>
      </trkpt>
      <trkpt lat="45.1572" lon="5.62322">
        <ele>1261.5922638895</ele>
        <time>2019-03-24T13:08:20Z</time>
      </trkpt>
      <trkpt lat="45.15686" lon="5.62351">
        <ele>1258.2429959455</ele>
        <time>2019-03-24T13:08:25Z</time>
      </trkpt>
      <trkpt lat="45.1566" lon="5.62383">
        <ele>1260.7343498561</ele>
        <time>2019-03-24T13:08:29Z</time>
      </trkpt>
      <trkpt lat="45.15645" lon="5.62405">
        <ele>1261.5247940287</ele>
        <time>2019-03-24T13:08:33Z</time>
      </trkpt>
      <trkpt lat="45.1564" lon="5.62417">
        <ele>1262.024188534</ele>
        <time>2019-03-24T13:08:37Z</time>
      </trkpt>
      <trkpt lat="45.15632" lon="5.6243">
        <ele>1263.5372228319</ele>
        <time>2019-03-24T13:08:41Z</time>
      </trkpt>
      <trkpt lat="45.15626" lon="5.62441">
        <ele>1264.8099216871</ele>
        <time>2019-03-24T13:08:45Z</time>
      </trkpt>
      <trkpt lat="45.15619" lon="5.62457">
        <ele>1265.1394845854</ele>
        <time>2019-03-24T13:08:50Z</time>
      </trkpt>
      <trkpt lat="45.15613" lon="5.6247">
        <ele>1265.7070425854</ele>
        <time>2019-03-24T13:08:54Z</time>
      </trkpt>
      <trkpt lat="45.15605" lon="5.62484">
        <ele>1266.6861883755</ele>
        <time>2019-03-24T13:08:59Z</time>
      </trkpt>
      <trkpt lat="45.156" lon="5.62496">
        <ele>1267.360697452</ele>
        <time>2019-03-24T13:09:02Z</time>
      </trkpt>
      <trkpt lat="45.15594" lon="5.62509">
        <ele>1269.2732752978</ele>
        <time>2019-03-24T13:09:07Z</time>
      </trkpt>
      <trkpt lat="45.15588" lon="5.62523">
        <ele>1270.0134585435</ele>
        <time>2019-03-24T13:09:11Z</time>
      </trkpt>
      <trkpt lat="45.15581" lon="5.62538">
        <ele>1271.6919255879</ele>
        <time>2019-03-24T13:09:16Z</time>
      </trkpt>
      <trkpt lat="45.15574" lon="5.6255">
        <ele>1272.501592117</ele>
        <time>2019-03-24T13:09:20Z</time>
      </trkpt>
      <trkpt lat="45.15561" lon="5.62564">
        <ele>1274.906495686</ele>
        <time>2019-03-24T13:09:25Z</time>
      </trkpt>
      <trkpt lat="45.1555" lon="5.62574">
        <ele>1278.4320389267</ele>
        <time>2019-03-24T13:09:30Z</time>
      </trkpt>
      <trkpt lat="45.15544" lon="5.62584">
        <ele>1280.1418388462</ele>
        <time>2019-03-24T13:09:34Z</time>
      </trkpt>
      <trkpt lat="45.15537" lon="5.62596">
        <ele>1281.8519591522</ele>
        <time>2019-03-24T13:09:38Z</time>
      </trkpt>
      <trkpt lat="45.15531" lon="5.62607">
        <ele>1281.8304534614</ele>
        <time>2019-03-24T13:09:42Z</time>
      </trkpt>
      <trkpt lat="45.15526" lon="5.6262">
        <ele>1282.6517073343</ele>
        <time>2019-03-24T13:09:46Z</time>
      </trkpt>
      <trkpt lat="45.15523" lon="5.62631">
        <ele>1283.0990232644</ele>
        <time>2019-03-24T13:09:50Z</time>
      </trkpt>
      <trkpt lat="45.15518" lon="5.62642">
        <ele>1283.9274817029</ele>
        <time>2019-03-24T13:09:53Z</time>
      </trkpt>
      <trkpt lat="45.15511" lon="5.62657">
        <ele>1285.0611577409</ele>
        <time>2019-03-24T13:09:58Z</time>
      </trkpt>
      <trkpt lat="45.15508" lon="5.62665">
        <ele>1285.8811753914</ele>
        <time>2019-03-24T13:10:01Z</time>
      </trkpt>
      <trkpt lat="45.15504" lon="5.62682">
        <ele>1287.25204353</ele>
        <time>2019-03-24T13:10:06Z</time>
      </trkpt>
      <trkpt lat="45.15504" lon="5.62697">
        <ele>1289.9920921279</ele>
        <time>2019-03-24T13:10:11Z</time>
      </trkpt>
      <trkpt lat="45.15504" lon="5.62711">
        <ele>1291.6348388982</ele>
        <time>2019-03-24T13:10:15Z</time>
      </trkpt>
      <trkpt lat="45.155" lon="5.62722">
        <ele>1292.6836968617</ele>
        <time>2019-03-24T13:10:20Z</time>
      </trkpt>
      <trkpt lat="45.15498" lon="5.62737">
        <ele>1295.0403636842</ele>
        <time>2019-03-24T13:10:24Z</time>
      </trkpt>
      <trkpt lat="45.15495" lon="5.62746">
        <ele>1295.5344898685</ele>
        <time>2019-03-24T13:10:28Z</time>
      </trkpt>
      <trkpt lat="45.15491" lon="5.62753">
        <ele>1294.6180842308</ele>
        <time>2019-03-24T13:10:31Z</time>
      </trkpt>
      <trkpt lat="45.15485" lon="5.62758">
        <ele>1293.9469756316</ele>
        <time>2019-03-24T13:10:35Z</time>
      </trkpt>
      <trkpt lat="45.15475" lon="5.62764">
        <ele>1293.6036101927</ele>
        <time>2019-03-24T13:10:39Z</time>
      </trkpt>
      <trkpt lat="45.15464" lon="5.62767">
        <ele>1293.7230246551</ele>
        <time>2019-03-24T13:10:43Z</time>
      </trkpt>
      <trkpt lat="45.1545" lon="5.6277">
        <ele>1294.5729173241</ele>
        <time>2019-03-24T13:10:48Z</time>
      </trkpt>
      <trkpt lat="45.15438" lon="5.62772">
        <ele>1294.4779565328</ele>
        <time>2019-03-24T13:10:52Z</time>
      </trkpt>
      <trkpt lat="45.15426" lon="5.62769">
        <ele>1296.9875523939</ele>
        <time>2019-03-24T13:10:56Z</time>
      </trkpt>
      <trkpt lat="45.15414" lon="5.62768">
        <ele>1297.2093237769</ele>
        <time>2019-03-24T13:11:00Z</time>
      </trkpt>
      <trkpt lat="45.15392" lon="5.62763">
        <ele>1294.6677491275</ele>
        <time>2019-03-24T13:11:05Z</time>
      </trkpt>
      <trkpt lat="45.15381" lon="5.62761">
        <ele>1294.2519876687</ele>
        <time>2019-03-24T13:11:09Z</time>
      </trkpt>
      <trkpt lat="45.15373" lon="5.62757">
        <ele>1293.4212376026</ele>
        <time>2019-03-24T13:11:13Z</time>
      </trkpt>
      <trkpt lat="45.15364" lon="5.62746">
        <ele>1290.6894853574</ele>
        <time>2019-03-24T13:11:17Z</time>
      </trkpt>
      <trkpt lat="45.1534" lon="5.62706">
        <ele>1290.1274645419</ele>
        <time>2019-03-24T13:11:22Z</time>
      </trkpt>
      <trkpt lat="45.15332" lon="5.62683">
        <ele>1291.0072033736</ele>
        <time>2019-03-24T13:11:26Z</time>
      </trkpt>
      <trkpt lat="45.15324" lon="5.62673">
        <ele>1291.7499123412</ele>
        <time>2019-03-24T13:11:30Z</time>
      </trkpt>
      <trkpt lat="45.15311" lon="5.62664">
        <ele>1293.6163608848</ele>
        <time>2019-03-24T13:11:35Z</time>
      </trkpt>
      <trkpt lat="45.153" lon="5.62656">
        <ele>1295.1874179439</ele>
        <time>2019-03-24T13:11:39Z</time>
      </trkpt>
      <trkpt lat="45.1529" lon="5.62646">
        <ele>1295.5605744821</ele>
        <time>2019-03-24T13:11:43Z</time>
      </trkpt>
      <trkpt lat="45.15281" lon="5.62631">
        <ele>1299.2129250814</ele>
        <time>2019-03-24T13:11:47Z</time>
      </trkpt>
      <trkpt lat="45.15276" lon="5.62623">
        <ele>1299.8103481132</ele>
        <time>2019-03-24T13:11:50Z</time>
      </trkpt>
      <trkpt lat="45.15268" lon="5.62614">
        <ele>1301.0663649973</ele>
        <time>2019-03-24T13:11:53Z</time>
      </trkpt>
      <trkpt lat="45.15253" lon="5.62597">
        <ele>1299.7359182744</ele>
        <time>2019-03-24T13:11:57Z</time>
      </trkpt>
      <trkpt lat="45.15238" lon="5.62589">
        <ele>1297.474714153</ele>
        <time>2019-03-24T13:12:01Z</time>
      </trkpt>
      <trkpt lat="45.15213" lon="5.62587">
        <ele>1294.1978514653</ele>
        <time>2019-03-24T13:12:06Z</time>
      </trkpt>
      <trkpt lat="45.15186" lon="5.62583">
        <ele>1292.0401900323</ele>
        <time>2019-03-24T13:12:10Z</time>
      </trkpt>
      <trkpt lat="45.15154" lon="5.62575">
        <ele>1292.1298787245</ele>
        <time>2019-03-24T13:12:15Z</time>
      </trkpt>
      <trkpt lat="45.15132" lon="5.62587">
        <ele>1289.4655293036</ele>
        <time>2019-03-24T13:12:19Z</time>
      </trkpt>
      <trkpt lat="45.15102" lon="5.62603">
        <ele>1285.1220564913</ele>
        <time>2019-03-24T13:12:24Z</time>
      </trkpt>
      <trkpt lat="45.15076" lon="5.62589">
        <ele>1284.8495478761</ele>
        <time>2019-03-24T13:12:29Z</time>
      </trkpt>
      <trkpt lat="45.15055" lon="5.62593">
        <ele>1284.594134796</ele>
        <time>2019-03-24T13:12:33Z</time>
      </trkpt>
      <trkpt lat="45.15039" lon="5.62608">
        <ele>1283.5675430894</ele>
        <time>2019-03-24T13:12:36Z</time>
      </trkpt>
      <trkpt lat="45.15023" lon="5.6261">
        <ele>1283.3860329293</ele>
        <time>2019-03-24T13:12:41Z</time>
      </trkpt>
      <trkpt lat="45.15019" lon="5.6261">
        <ele>1281.8061483943</ele>
        <time>2019-03-24T13:12:50Z</time>
      </trkpt>
      <trkpt lat="45.15007" lon="5.62608">
        <ele>1280.4796170171</ele>
        <time>2019-03-24T13:12:54Z</time>
      </trkpt>
      <trkpt lat="45.14991" lon="5.62606">
        <ele>1279.4594812684</ele>
        <time>2019-03-24T13:12:58Z</time>
      </trkpt>
      <trkpt lat="45.14979" lon="5.62605">
        <ele>1278.7661496894</ele>
        <time>2019-03-24T13:13:02Z</time>
      </trkpt>
      <trkpt lat="45.14955" lon="5.62597">
        <ele>1276.5680097272</ele>
        <time>2019-03-24T13:13:07Z</time>
      </trkpt>
      <trkpt lat="45.14937" lon="5.6258">
        <ele>1277.3989771753</ele>
        <time>2019-03-24T13:13:11Z</time>
      </trkpt>
      <trkpt lat="45.14923" lon="5.62565">
        <ele>1274.0131870989</ele>
        <time>2019-03-24T13:13:14Z</time>
      </trkpt>
      <trkpt lat="45.14894" lon="5.62554">
        <ele>1274.2046155882</ele>
        <time>2019-03-24T13:13:19Z</time>
      </trkpt>
      <trkpt lat="45.14874" lon="5.62554">
        <ele>1269.8122183667</ele>
        <time>2019-03-24T13:13:23Z</time>
      </trkpt>
      <trkpt lat="45.14849" lon="5.62574">
        <ele>1265.5206986037</ele>
        <time>2019-03-24T13:13:28Z</time>
      </trkpt>
      <trkpt lat="45.14821" lon="5.62574">
        <ele>1263.7729687602</ele>
        <time>2019-03-24T13:13:32Z</time>
      </trkpt>
      <trkpt lat="45.14801" lon="5.62572">
        <ele>1265.1678399037</ele>
        <time>2019-03-24T13:13:35Z</time>
      </trkpt>
      <trkpt lat="45.14775" lon="5.62566">
        <ele>1260.6176872875</ele>
        <time>2019-03-24T13:13:39Z</time>
      </trkpt>
      <trkpt lat="45.14746" lon="5.62564">
        <ele>1258.3944240463</ele>
        <time>2019-03-24T13:13:43Z</time>
      </trkpt>
      <trkpt lat="45.14715" lon="5.6256">
        <ele>1254.9001267694</ele>
        <time>2019-03-24T13:13:47Z</time>
      </trkpt>
      <trkpt lat="45.14675" lon="5.62552">
        <ele>1254.2040313596</ele>
        <time>2019-03-24T13:13:52Z</time>
      </trkpt>
      <trkpt lat="45.14647" lon="5.62547">
        <ele>1254.1398679897</ele>
        <time>2019-03-24T13:13:56Z</time>
      </trkpt>
      <trkpt lat="45.1462" lon="5.62539">
        <ele>1255.7989321811</ele>
        <time>2019-03-24T13:14:00Z</time>
      </trkpt>
      <trkpt lat="45.14597" lon="5.62537">
        <ele>1253.2892528603</ele>
        <time>2019-03-24T13:14:04Z</time>
      </trkpt>
      <trkpt lat="45.14577" lon="5.62528">
        <ele>1252.0496054941</ele>
        <time>2019-03-24T13:14:09Z</time>
      </trkpt>
      <trkpt lat="45.14568" lon="5.62523">
        <ele>1249.7979031181</ele>
        <time>2019-03-24T13:14:13Z</time>
      </trkpt>
      <trkpt lat="45.14548" lon="5.62506">
        <ele>1248.9785990869</ele>
        <time>2019-03-24T13:14:17Z</time>
      </trkpt>
      <trkpt lat="45.14524" lon="5.62492">
        <ele>1248.1076950735</ele>
        <time>2019-03-24T13:14:22Z</time>
      </trkpt>
      <trkpt lat="45.14495" lon="5.62482">
        <ele>1249.9102279516</ele>
        <time>2019-03-24T13:14:27Z</time>
      </trkpt>
      <trkpt lat="45.14475" lon="5.62479">
        <ele>1252.1242240599</ele>
        <time>2019-03-24T13:14:31Z</time>
      </trkpt>
      <trkpt lat="45.14457" lon="5.6248">
        <ele>1249.5493916182</ele>
        <time>2019-03-24T13:14:35Z</time>
      </trkpt>
      <trkpt lat="45.14444" lon="5.62479">
        <ele>1250.1600659534</ele>
        <time>2019-03-24T13:14:38Z</time>
      </trkpt>
      <trkpt lat="45.14418" lon="5.62472">
        <ele>1251.4139965261</ele>
        <time>2019-03-24T13:14:43Z</time>
      </trkpt>
      <trkpt lat="45.14402" lon="5.62466">
        <ele>1252.1423170433</ele>
        <time>2019-03-24T13:14:46Z</time>
      </trkpt>
      <trkpt lat="45.14379" lon="5.62455">
        <ele>1253.3827106541</ele>
        <time>2019-03-24T13:14:51Z</time>
      </trkpt>
      <trkpt lat="45.14364" lon="5.6245">
        <ele>1252.5155175437</ele>
        <time>2019-03-24T13:14:55Z</time>
      </trkpt>
      <trkpt lat="45.14351" lon="5.62448">
        <ele>1251.2380797982</ele>
        <time>2019-03-24T13:15:00Z</time>
      </trkpt>
      <trkpt lat="45.14332" lon="5.62441">
        <ele>1252.3141911155</ele>
        <time>2019-03-24T13:15:04Z</time>
      </trkpt>
      <trkpt lat="45.14322" lon="5.62437">
        <ele>1251.2944060271</ele>
        <time>2019-03-24T13:15:08Z</time>
      </trkpt>
      <trkpt lat="45.1431" lon="5.62432">
        <ele>1252.1150378597</ele>
        <time>2019-03-24T13:15:12Z</time>
      </trkpt>
      <trkpt lat="45.14301" lon="5.62426">
        <ele>1251.4296758531</ele>
        <time>2019-03-24T13:15:16Z</time>
      </trkpt>
      <trkpt lat="45.14288" lon="5.62414">
        <ele>1253.225134151</ele>
        <time>2019-03-24T13:15:20Z</time>
      </trkpt>
      <trkpt lat="45.14277" lon="5.62401">
        <ele>1252.6657828304</ele>
        <time>2019-03-24T13:15:24Z</time>
      </trkpt>
      <trkpt lat="45.14266" lon="5.62384">
        <ele>1253.562031044</ele>
        <time>2019-03-24T13:15:27Z</time>
      </trkpt>
      <trkpt lat="45.14259" lon="5.62374">
        <ele>1254.0461487343</ele>
        <time>2019-03-24T13:15:31Z</time>
      </trkpt>
      <trkpt lat="45.1425" lon="5.62362">
        <ele>1252.3126339874</ele>
        <time>2019-03-24T13:15:35Z</time>
      </trkpt>
      <trkpt lat="45.14241" lon="5.6235">
        <ele>1251.1966280877</ele>
        <time>2019-03-24T13:15:39Z</time>
      </trkpt>
      <trkpt lat="45.14227" lon="5.62332">
        <ele>1253.7114392261</ele>
        <time>2019-03-24T13:15:44Z</time>
      </trkpt>
      <trkpt lat="45.1422" lon="5.62326">
        <ele>1253.0994372224</ele>
        <time>2019-03-24T13:15:48Z</time>
      </trkpt>
      <trkpt lat="45.14211" lon="5.62318">
        <ele>1252.5143541172</ele>
        <time>2019-03-24T13:15:52Z</time>
      </trkpt>
      <trkpt lat="45.142" lon="5.62306">
        <ele>1253.8610424635</ele>
        <time>2019-03-24T13:15:57Z</time>
      </trkpt>
      <trkpt lat="45.14194" lon="5.62299">
        <ele>1252.1911256965</ele>
        <time>2019-03-24T13:16:01Z</time>
      </trkpt>
      <trkpt lat="45.14184" lon="5.62289">
        <ele>1252.7135013784</ele>
        <time>2019-03-24T13:16:05Z</time>
      </trkpt>
      <trkpt lat="45.14176" lon="5.62277">
        <ele>1251.8583365959</ele>
        <time>2019-03-24T13:16:10Z</time>
      </trkpt>
      <trkpt lat="45.1417" lon="5.62271">
        <ele>1252.9348636913</ele>
        <time>2019-03-24T13:16:13Z</time>
      </trkpt>
      <trkpt lat="45.14161" lon="5.62261">
        <ele>1253.0541497855</ele>
        <time>2019-03-24T13:16:18Z</time>
      </trkpt>
      <trkpt lat="45.14155" lon="5.62252">
        <ele>1252.7088804286</ele>
        <time>2019-03-24T13:16:22Z</time>
      </trkpt>
      <trkpt lat="45.14147" lon="5.6224">
        <ele>1251.4157597783</ele>
        <time>2019-03-24T13:16:26Z</time>
      </trkpt>
      <trkpt lat="45.1414" lon="5.62229">
        <ele>1250.1534979517</ele>
        <time>2019-03-24T13:16:30Z</time>
      </trkpt>
      <trkpt lat="45.14134" lon="5.62213">
        <ele>1250.2420365425</ele>
        <time>2019-03-24T13:16:34Z</time>
      </trkpt>
      <trkpt lat="45.14129" lon="5.62194">
        <ele>1250.9191952006</ele>
        <time>2019-03-24T13:16:38Z</time>
      </trkpt>
      <trkpt lat="45.14122" lon="5.62174">
        <ele>1252.7069429474</ele>
        <time>2019-03-24T13:16:43Z</time>
      </trkpt>
      <trkpt lat="45.14119" lon="5.62164">
        <ele>1252.1543346873</ele>
        <time>2019-03-24T13:16:46Z</time>
      </trkpt>
      <trkpt lat="45.14113" lon="5.62151">
        <ele>1253.1839157265</ele>
        <time>2019-03-24T13:16:51Z</time>
      </trkpt>
      <trkpt lat="45.14104" lon="5.62132">
        <ele>1256.6544676589</ele>
        <time>2019-03-24T13:16:56Z</time>
      </trkpt>
      <trkpt lat="45.14098" lon="5.62122">
        <ele>1256.1998717566</ele>
        <time>2019-03-24T13:17:00Z</time>
      </trkpt>
      <trkpt lat="45.1409" lon="5.62112">
        <ele>1256.803999876</ele>
        <time>2019-03-24T13:17:04Z</time>
      </trkpt>
      <trkpt lat="45.1408" lon="5.62105">
        <ele>1257.6068843765</ele>
        <time>2019-03-24T13:17:08Z</time>
      </trkpt>
      <trkpt lat="45.14071" lon="5.62098">
        <ele>1255.8546383437</ele>
        <time>2019-03-24T13:17:12Z</time>
      </trkpt>
      <trkpt lat="45.14063" lon="5.62091">
        <ele>1256.223643952</ele>
        <time>2019-03-24T13:17:16Z</time>
      </trkpt>
      <trkpt lat="45.14059" lon="5.62085">
        <ele>1259.1025731177</ele>
        <time>2019-03-24T13:17:20Z</time>
      </trkpt>
      <trkpt lat="45.14057" lon="5.6208">
        <ele>1258.9478772773</ele>
        <time>2019-03-24T13:17:30Z</time>
      </trkpt>
      <trkpt lat="45.14055" lon="5.62076">
        <ele>1259.7028785979</ele>
        <time>2019-03-24T13:17:39Z</time>
      </trkpt>
      <trkpt lat="45.1405" lon="5.6207">
        <ele>1260.5836608129</ele>
        <time>2019-03-24T13:17:44Z</time>
      </trkpt>
      <trkpt lat="45.14047" lon="5.62064">
        <ele>1257.9190922547</ele>
        <time>2019-03-24T13:17:49Z</time>
      </trkpt>
      <trkpt lat="45.14045" lon="5.6206">
        <ele>1257.1339155373</ele>
        <time>2019-03-24T13:17:53Z</time>
      </trkpt>
      <trkpt lat="45.14043" lon="5.62055">
        <ele>1256.0748308785</ele>
        <time>2019-03-24T13:17:59Z</time>
      </trkpt>
      <trkpt lat="45.14038" lon="5.62044">
        <ele>1259.2958188973</ele>
        <time>2019-03-24T13:18:04Z</time>
      </trkpt>
      <trkpt lat="45.14034" lon="5.62036">
        <ele>1259.9041888231</ele>
        <time>2019-03-24T13:18:07Z</time>
      </trkpt>
      <trkpt lat="45.14028" lon="5.62022">
        <ele>1259.7358368666</ele>
        <time>2019-03-24T13:18:11Z</time>
      </trkpt>
      <trkpt lat="45.14023" lon="5.62006">
        <ele>1260.0409053673</ele>
        <time>2019-03-24T13:18:16Z</time>
      </trkpt>
      <trkpt lat="45.14017" lon="5.6199">
        <ele>1260.3225368019</ele>
        <time>2019-03-24T13:18:20Z</time>
      </trkpt>
      <trkpt lat="45.14013" lon="5.61977">
        <ele>1260.7677733041</ele>
        <time>2019-03-24T13:18:24Z</time>
      </trkpt>
      <trkpt lat="45.14008" lon="5.61961">
        <ele>1258.9974109553</ele>
        <time>2019-03-24T13:18:29Z</time>
      </trkpt>
      <trkpt lat="45.14003" lon="5.61946">
        <ele>1259.8915770403</ele>
        <time>2019-03-24T13:18:33Z</time>
      </trkpt>
      <trkpt lat="45.13999" lon="5.61933">
        <ele>1260.5671539442</ele>
        <time>2019-03-24T13:18:37Z</time>
      </trkpt>
      <trkpt lat="45.1399" lon="5.61916">
        <ele>1258.0446580305</ele>
        <time>2019-03-24T13:18:42Z</time>
      </trkpt>
      <trkpt lat="45.13986" lon="5.61906">
        <ele>1259.4074407599</ele>
        <time>2019-03-24T13:18:45Z</time>
      </trkpt>
      <trkpt lat="45.1398" lon="5.61893">
        <ele>1260.921142109</ele>
        <time>2019-03-24T13:18:49Z</time>
      </trkpt>
      <trkpt lat="45.13976" lon="5.61884">
        <ele>1260.5439986612</ele>
        <time>2019-03-24T13:18:52Z</time>
      </trkpt>
      <trkpt lat="45.13972" lon="5.61875">
        <ele>1262.2651087219</ele>
        <time>2019-03-24T13:18:55Z</time>
      </trkpt>
      <trkpt lat="45.13965" lon="5.61858">
        <ele>1261.9988884673</ele>
        <time>2019-03-24T13:19:00Z</time>
      </trkpt>
      <trkpt lat="45.13962" lon="5.61849">
        <ele>1259.7632835481</ele>
        <time>2019-03-24T13:19:03Z</time>
      </trkpt>
      <trkpt lat="45.13958" lon="5.61835">
        <ele>1261.46037981</ele>
        <time>2019-03-24T13:19:07Z</time>
      </trkpt>
      <trkpt lat="45.13953" lon="5.61821">
        <ele>1261.9309046056</ele>
        <time>2019-03-24T13:19:11Z</time>
      </trkpt>
      <trkpt lat="45.13949" lon="5.61807">
        <ele>1261.8965531959</ele>
        <time>2019-03-24T13:19:16Z</time>
      </trkpt>
      <trkpt lat="45.13946" lon="5.61792">
        <ele>1263.2673707501</ele>
        <time>2019-03-24T13:19:21Z</time>
      </trkpt>
      <trkpt lat="45.13944" lon="5.61779">
        <ele>1264.0751270528</ele>
        <time>2019-03-24T13:19:25Z</time>
      </trkpt>
      <trkpt lat="45.13942" lon="5.61762">
        <ele>1264.1263183253</ele>
        <time>2019-03-24T13:19:30Z</time>
      </trkpt>
      <trkpt lat="45.13941" lon="5.61745">
        <ele>1264.4983188651</ele>
        <time>2019-03-24T13:19:34Z</time>
      </trkpt>
      <trkpt lat="45.13939" lon="5.61733">
        <ele>1265.314488346</ele>
        <time>2019-03-24T13:19:37Z</time>
      </trkpt>
      <trkpt lat="45.13938" lon="5.61719">
        <ele>1265.3626555386</ele>
        <time>2019-03-24T13:19:41Z</time>
      </trkpt>
      <trkpt lat="45.13937" lon="5.61705">
        <ele>1265.269417313</ele>
        <time>2019-03-24T13:19:45Z</time>
      </trkpt>
      <trkpt lat="45.13938" lon="5.61692">
        <ele>1264.6613922347</ele>
        <time>2019-03-24T13:19:49Z</time>
      </trkpt>
      <trkpt lat="45.13938" lon="5.61682">
        <ele>1264.3962939789</ele>
        <time>2019-03-24T13:19:52Z</time>
      </trkpt>
      <trkpt lat="45.1394" lon="5.61665">
        <ele>1265.3935790467</ele>
        <time>2019-03-24T13:19:56Z</time>
      </trkpt>
      <trkpt lat="45.13943" lon="5.61649">
        <ele>1264.7497933831</ele>
        <time>2019-03-24T13:20:00Z</time>
      </trkpt>
      <trkpt lat="45.13949" lon="5.6163">
        <ele>1265.3698262743</ele>
        <time>2019-03-24T13:20:05Z</time>
      </trkpt>
      <trkpt lat="45.13953" lon="5.61621">
        <ele>1265.2217460904</ele>
        <time>2019-03-24T13:20:08Z</time>
      </trkpt>
      <trkpt lat="45.13959" lon="5.6161">
        <ele>1265.3898186024</ele>
        <time>2019-03-24T13:20:12Z</time>
      </trkpt>
      <trkpt lat="45.13969" lon="5.61601">
        <ele>1264.3086415511</ele>
        <time>2019-03-24T13:20:17Z</time>
      </trkpt>
      <trkpt lat="45.13975" lon="5.61596">
        <ele>1264.916377018</ele>
        <time>2019-03-24T13:20:20Z</time>
      </trkpt>
      <trkpt lat="45.13982" lon="5.61589">
        <ele>1265.3149532493</ele>
        <time>2019-03-24T13:20:24Z</time>
      </trkpt>
      <trkpt lat="45.13987" lon="5.61583">
        <ele>1265.6513024035</ele>
        <time>2019-03-24T13:20:28Z</time>
      </trkpt>
      <trkpt lat="45.1399" lon="5.61579">
        <ele>1265.6022945308</ele>
        <time>2019-03-24T13:20:36Z</time>
      </trkpt>
      <trkpt lat="45.13992" lon="5.61575">
        <ele>1264.9005568282</ele>
        <time>2019-03-24T13:20:41Z</time>
      </trkpt>
      <trkpt lat="45.13995" lon="5.61568">
        <ele>1266.1379709906</ele>
        <time>2019-03-24T13:20:46Z</time>
      </trkpt>
      <trkpt lat="45.13998" lon="5.61561">
        <ele>1267.4785021291</ele>
        <time>2019-03-24T13:20:50Z</time>
      </trkpt>
      <trkpt lat="45.13999" lon="5.61557">
        <ele>1267.834967433</ele>
        <time>2019-03-24T13:20:53Z</time>
      </trkpt>
      <trkpt lat="45.13999" lon="5.6155">
        <ele>1268.2161568008</ele>
        <time>2019-03-24T13:20:58Z</time>
      </trkpt>
      <trkpt lat="45.14" lon="5.61544">
        <ele>1268.0550263502</ele>
        <time>2019-03-24T13:21:02Z</time>
      </trkpt>
      <trkpt lat="45.14" lon="5.61539">
        <ele>1266.7426675954</ele>
        <time>2019-03-24T13:21:08Z</time>
      </trkpt>
      <trkpt lat="45.14001" lon="5.61531">
        <ele>1266.8259744685</ele>
        <time>2019-03-24T13:21:12Z</time>
      </trkpt>
      <trkpt lat="45.14004" lon="5.61517">
        <ele>1266.9231887237</ele>
        <time>2019-03-24T13:21:17Z</time>
      </trkpt>
      <trkpt lat="45.14009" lon="5.61507">
        <ele>1266.2313730652</ele>
        <time>2019-03-24T13:21:21Z</time>
      </trkpt>
      <trkpt lat="45.14013" lon="5.61499">
        <ele>1266.3774730007</ele>
        <time>2019-03-24T13:21:25Z</time>
      </trkpt>
      <trkpt lat="45.14016" lon="5.61494">
        <ele>1266.6657084128</ele>
        <time>2019-03-24T13:21:32Z</time>
      </trkpt>
      <trkpt lat="45.14018" lon="5.6149">
        <ele>1266.5481981226</ele>
        <time>2019-03-24T13:21:36Z</time>
      </trkpt>
      <trkpt lat="45.14023" lon="5.61477">
        <ele>1266.5415387608</ele>
        <time>2019-03-24T13:21:40Z</time>
      </trkpt>
      <trkpt lat="45.14026" lon="5.6147">
        <ele>1266.7643199025</ele>
        <time>2019-03-24T13:21:43Z</time>
      </trkpt>
      <trkpt lat="45.1403" lon="5.61455">
        <ele>1267.1184243236</ele>
        <time>2019-03-24T13:21:47Z</time>
      </trkpt>
      <trkpt lat="45.14036" lon="5.6144">
        <ele>1267.1512488213</ele>
        <time>2019-03-24T13:21:52Z</time>
      </trkpt>
      <trkpt lat="45.14043" lon="5.61425">
        <ele>1268.2401044076</ele>
        <time>2019-03-24T13:21:57Z</time>
      </trkpt>
      <trkpt lat="45.14046" lon="5.61416">
        <ele>1267.3613008998</ele>
        <time>2019-03-24T13:22:01Z</time>
      </trkpt>
      <trkpt lat="45.14049" lon="5.61413">
        <ele>1267.6907742799</ele>
        <time>2019-03-24T13:22:06Z</time>
      </trkpt>
      <trkpt lat="45.1405" lon="5.61408">
        <ele>1268.2505014578</ele>
        <time>2019-03-24T13:22:10Z</time>
      </trkpt>
      <trkpt lat="45.14052" lon="5.61399">
        <ele>1268.5577035814</ele>
        <time>2019-03-24T13:22:15Z</time>
      </trkpt>
      <trkpt lat="45.14052" lon="5.61394">
        <ele>1269.0726453115</ele>
        <time>2019-03-24T13:22:20Z</time>
      </trkpt>
      <trkpt lat="45.14053" lon="5.61387">
        <ele>1269.3552178879</ele>
        <time>2019-03-24T13:22:24Z</time>
      </trkpt>
      <trkpt lat="45.14054" lon="5.61379">
        <ele>1269.1936254803</ele>
        <time>2019-03-24T13:22:29Z</time>
      </trkpt>
      <trkpt lat="45.14055" lon="5.61373">
        <ele>1269.6094695049</ele>
        <time>2019-03-24T13:22:33Z</time>
      </trkpt>
      <trkpt lat="45.14055" lon="5.6137">
        <ele>1269.7261242966</ele>
        <time>2019-03-24T13:22:39Z</time>
      </trkpt>
      <trkpt lat="45.14056" lon="5.61359">
        <ele>1270.1062920151</ele>
        <time>2019-03-24T13:22:42Z</time>
      </trkpt>
      <trkpt lat="45.14057" lon="5.61346">
        <ele>1270.1631212426</ele>
        <time>2019-03-24T13:22:46Z</time>
      </trkpt>
      <trkpt lat="45.14059" lon="5.61326">
        <ele>1270.9268490777</ele>
        <time>2019-03-24T13:22:51Z</time>
      </trkpt>
      <trkpt lat="45.14062" lon="5.61313">
        <ele>1272.1278524602</ele>
        <time>2019-03-24T13:22:56Z</time>
      </trkpt>
      <trkpt lat="45.14063" lon="5.61309">
        <ele>1272.1333385956</ele>
        <time>2019-03-24T13:23:02Z</time>
      </trkpt>
      <trkpt lat="45.14065" lon="5.61304">
        <ele>1272.6434588203</ele>
        <time>2019-03-24T13:23:06Z</time>
      </trkpt>
      <trkpt lat="45.14066" lon="5.61297">
        <ele>1273.3123576975</ele>
        <time>2019-03-24T13:23:11Z</time>
      </trkpt>
      <trkpt lat="45.14066" lon="5.61291">
        <ele>1273.4765211673</ele>
        <time>2019-03-24T13:23:15Z</time>
      </trkpt>
      <trkpt lat="45.14066" lon="5.61285">
        <ele>1273.3458175716</ele>
        <time>2019-03-24T13:23:19Z</time>
      </trkpt>
      <trkpt lat="45.14065" lon="5.6128">
        <ele>1273.5525385612</ele>
        <time>2019-03-24T13:23:24Z</time>
      </trkpt>
      <trkpt lat="45.14064" lon="5.61273">
        <ele>1273.7595291408</ele>
        <time>2019-03-24T13:23:28Z</time>
      </trkpt>
      <trkpt lat="45.14063" lon="5.61267">
        <ele>1273.9441563502</ele>
        <time>2019-03-24T13:23:34Z</time>
      </trkpt>
      <trkpt lat="45.14059" lon="5.61251">
        <ele>1274.013285861</ele>
        <time>2019-03-24T13:23:39Z</time>
      </trkpt>
      <trkpt lat="45.14055" lon="5.61232">
        <ele>1273.9240979193</ele>
        <time>2019-03-24T13:23:43Z</time>
      </trkpt>
      <trkpt lat="45.1405" lon="5.61211">
        <ele>1273.3297365499</ele>
        <time>2019-03-24T13:23:48Z</time>
      </trkpt>
      <trkpt lat="45.14044" lon="5.6119">
        <ele>1273.235391223</ele>
        <time>2019-03-24T13:23:53Z</time>
      </trkpt>
      <trkpt lat="45.1404" lon="5.61175">
        <ele>1273.1065503356</ele>
        <time>2019-03-24T13:23:57Z</time>
      </trkpt>
      <trkpt lat="45.14036" lon="5.61159">
        <ele>1273.6118958064</ele>
        <time>2019-03-24T13:24:01Z</time>
      </trkpt>
      <trkpt lat="45.1403" lon="5.61138">
        <ele>1273.4182248398</ele>
        <time>2019-03-24T13:24:06Z</time>
      </trkpt>
      <trkpt lat="45.14024" lon="5.61122">
        <ele>1272.3796717699</ele>
        <time>2019-03-24T13:24:10Z</time>
      </trkpt>
      <trkpt lat="45.14019" lon="5.61108">
        <ele>1272.3205344192</ele>
        <time>2019-03-24T13:24:13Z</time>
      </trkpt>
      <trkpt lat="45.14011" lon="5.61093">
        <ele>1272.8019344545</ele>
        <time>2019-03-24T13:24:17Z</time>
      </trkpt>
      <trkpt lat="45.13996" lon="5.61074">
        <ele>1271.3451431896</ele>
        <time>2019-03-24T13:24:22Z</time>
      </trkpt>
      <trkpt lat="45.13986" lon="5.61063">
        <ele>1270.9007817263</ele>
        <time>2019-03-24T13:24:25Z</time>
      </trkpt>
      <trkpt lat="45.13971" lon="5.6105">
        <ele>1270.9832980673</ele>
        <time>2019-03-24T13:24:30Z</time>
      </trkpt>
      <trkpt lat="45.13956" lon="5.61036">
        <ele>1271.270959354</ele>
        <time>2019-03-24T13:24:34Z</time>
      </trkpt>
      <trkpt lat="45.13936" lon="5.61021">
        <ele>1269.5049734285</ele>
        <time>2019-03-24T13:24:39Z</time>
      </trkpt>
      <trkpt lat="45.13916" lon="5.61006">
        <ele>1268.9890764465</ele>
        <time>2019-03-24T13:24:43Z</time>
      </trkpt>
      <trkpt lat="45.13893" lon="5.60989">
        <ele>1269.6714627151</ele>
        <time>2019-03-24T13:24:48Z</time>
      </trkpt>
      <trkpt lat="45.13873" lon="5.60978">
        <ele>1269.7994050025</ele>
        <time>2019-03-24T13:24:52Z</time>
      </trkpt>
      <trkpt lat="45.13857" lon="5.6097">
        <ele>1268.7527512995</ele>
        <time>2019-03-24T13:24:55Z</time>
      </trkpt>
      <trkpt lat="45.13837" lon="5.60961">
        <ele>1269.0016910508</ele>
        <time>2019-03-24T13:24:59Z</time>
      </trkpt>
      <trkpt lat="45.13814" lon="5.60954">
        <ele>1268.9562444565</ele>
        <time>2019-03-24T13:25:04Z</time>
      </trkpt>
      <trkpt lat="45.13796" lon="5.60951">
        <ele>1268.5054651508</ele>
        <time>2019-03-24T13:25:08Z</time>
      </trkpt>
      <trkpt lat="45.13772" lon="5.60949">
        <ele>1268.2682877004</ele>
        <time>2019-03-24T13:25:13Z</time>
      </trkpt>
      <trkpt lat="45.13751" lon="5.6095">
        <ele>1267.8900669503</ele>
        <time>2019-03-24T13:25:17Z</time>
      </trkpt>
      <trkpt lat="45.13721" lon="5.60957">
        <ele>1264.6846980265</ele>
        <time>2019-03-24T13:25:22Z</time>
      </trkpt>
      <trkpt lat="45.13701" lon="5.6096">
        <ele>1264.1023009557</ele>
        <time>2019-03-24T13:25:25Z</time>
      </trkpt>
      <trkpt lat="45.13672" lon="5.6096">
        <ele>1262.659390785</ele>
        <time>2019-03-24T13:25:30Z</time>
      </trkpt>
      <trkpt lat="45.13652" lon="5.60964">
        <ele>1256.4654706976</ele>
        <time>2019-03-24T13:25:34Z</time>
      </trkpt>
      <trkpt lat="45.13627" lon="5.6098">
        <ele>1255.2735476941</ele>
        <time>2019-03-24T13:25:39Z</time>
      </trkpt>
      <trkpt lat="45.13609" lon="5.60987">
        <ele>1254.3462622833</ele>
        <time>2019-03-24T13:25:43Z</time>
      </trkpt>
      <trkpt lat="45.13597" lon="5.60994">
        <ele>1256.0327030697</ele>
        <time>2019-03-24T13:25:47Z</time>
      </trkpt>
      <trkpt lat="45.13591" lon="5.60999">
        <ele>1254.3691232032</ele>
        <time>2019-03-24T13:25:50Z</time>
      </trkpt>
      <trkpt lat="45.13579" lon="5.6101">
        <ele>1250.5213947955</ele>
        <time>2019-03-24T13:25:55Z</time>
      </trkpt>
      <trkpt lat="45.13569" lon="5.61019">
        <ele>1249.6495585901</ele>
        <time>2019-03-24T13:25:59Z</time>
      </trkpt>
      <trkpt lat="45.13543" lon="5.61032">
        <ele>1248.966351104</ele>
        <time>2019-03-24T13:26:04Z</time>
      </trkpt>
      <trkpt lat="45.13519" lon="5.61041">
        <ele>1243.3523020227</ele>
        <time>2019-03-24T13:26:09Z</time>
      </trkpt>
      <trkpt lat="45.13501" lon="5.61045">
        <ele>1240.2477064666</ele>
        <time>2019-03-24T13:26:13Z</time>
      </trkpt>
      <trkpt lat="45.13484" lon="5.61041">
        <ele>1238.8402550803</ele>
        <time>2019-03-24T13:26:16Z</time>
      </trkpt>
      <trkpt lat="45.13469" lon="5.61031">
        <ele>1237.2751792738</ele>
        <time>2019-03-24T13:26:19Z</time>
      </trkpt>
      <trkpt lat="45.13446" lon="5.61016">
        <ele>1231.1118588399</ele>
        <time>2019-03-24T13:26:24Z</time>
      </trkpt>
      <trkpt lat="45.13438" lon="5.61019">
        <ele>1221.6617987518</ele>
        <time>2019-03-24T13:26:28Z</time>
      </trkpt>
      <trkpt lat="45.13432" lon="5.61024">
        <ele>1219.6538518288</ele>
        <time>2019-03-24T13:26:32Z</time>
      </trkpt>
      <trkpt lat="45.13427" lon="5.61025">
        <ele>1215.5886926209</ele>
        <time>2019-03-24T13:26:35Z</time>
      </trkpt>
      <trkpt lat="45.13384" lon="5.61029">
        <ele>1207.4032492617</ele>
        <time>2019-03-24T13:26:40Z</time>
      </trkpt>
      <trkpt lat="45.13363" lon="5.61018">
        <ele>1204.6995419486</ele>
        <time>2019-03-24T13:26:44Z</time>
      </trkpt>
      <trkpt lat="45.1335" lon="5.61011">
        <ele>1208.0695371008</ele>
        <time>2019-03-24T13:26:49Z</time>
      </trkpt>
      <trkpt lat="45.1334" lon="5.61003">
        <ele>1206.9895077061</ele>
        <time>2019-03-24T13:26:53Z</time>
      </trkpt>
      <trkpt lat="45.13328" lon="5.60993">
        <ele>1204.2146969098</ele>
        <time>2019-03-24T13:26:58Z</time>
      </trkpt>
      <trkpt lat="45.13318" lon="5.60987">
        <ele>1202.0244758607</ele>
        <time>2019-03-24T13:27:01Z</time>
      </trkpt>
      <trkpt lat="45.13303" lon="5.60976">
        <ele>1206.0981389627</ele>
        <time>2019-03-24T13:27:05Z</time>
      </trkpt>
      <trkpt lat="45.13288" lon="5.60967">
        <ele>1208.8675554752</ele>
        <time>2019-03-24T13:27:10Z</time>
      </trkpt>
      <trkpt lat="45.13276" lon="5.60962">
        <ele>1210.4169727949</ele>
        <time>2019-03-24T13:27:14Z</time>
      </trkpt>
      <trkpt lat="45.13263" lon="5.60958">
        <ele>1211.9278107304</ele>
        <time>2019-03-24T13:27:19Z</time>
      </trkpt>
      <trkpt lat="45.13255" lon="5.60957">
        <ele>1210.0651954321</ele>
        <time>2019-03-24T13:27:22Z</time>
      </trkpt>
      <trkpt lat="45.13242" lon="5.60952">
        <ele>1209.6968767455</ele>
        <time>2019-03-24T13:27:27Z</time>
      </trkpt>
      <trkpt lat="45.13232" lon="5.60946">
        <ele>1213.4701395594</ele>
        <time>2019-03-24T13:27:30Z</time>
      </trkpt>
      <trkpt lat="45.13218" lon="5.60939">
        <ele>1214.6790829631</ele>
        <time>2019-03-24T13:27:35Z</time>
      </trkpt>
      <trkpt lat="45.13203" lon="5.60934">
        <ele>1212.6131113487</ele>
        <time>2019-03-24T13:27:40Z</time>
      </trkpt>
      <trkpt lat="45.13179" lon="5.60927">
        <ele>1210.5462144167</ele>
        <time>2019-03-24T13:27:44Z</time>
      </trkpt>
      <trkpt lat="45.13169" lon="5.60925">
        <ele>1203.8208039878</ele>
        <time>2019-03-24T13:27:48Z</time>
      </trkpt>
      <trkpt lat="45.13156" lon="5.60923">
        <ele>1204.0751743522</ele>
        <time>2019-03-24T13:27:52Z</time>
      </trkpt>
      <trkpt lat="45.1313" lon="5.60916">
        <ele>1203.1595888481</ele>
        <time>2019-03-24T13:27:57Z</time>
      </trkpt>
      <trkpt lat="45.13111" lon="5.60899">
        <ele>1196.3528241453</ele>
        <time>2019-03-24T13:28:01Z</time>
      </trkpt>
      <trkpt lat="45.13104" lon="5.6089">
        <ele>1195.5364437124</ele>
        <time>2019-03-24T13:28:04Z</time>
      </trkpt>
      <trkpt lat="45.13089" lon="5.60875">
        <ele>1191.0640103645</ele>
        <time>2019-03-24T13:28:08Z</time>
      </trkpt>
      <trkpt lat="45.13079" lon="5.60863">
        <ele>1181.4418156824</ele>
        <time>2019-03-24T13:28:13Z</time>
      </trkpt>
      <trkpt lat="45.13066" lon="5.6084">
        <ele>1183.6130932851</ele>
        <time>2019-03-24T13:28:16Z</time>
      </trkpt>
      <trkpt lat="45.13062" lon="5.60816">
        <ele>1176.7715097508</ele>
        <time>2019-03-24T13:28:21Z</time>
      </trkpt>
      <trkpt lat="45.1308" lon="5.60796">
        <ele>1169.7139300907</ele>
        <time>2019-03-24T13:28:26Z</time>
      </trkpt>
      <trkpt lat="45.13099" lon="5.60777">
        <ele>1165.4255001117</ele>
        <time>2019-03-24T13:28:30Z</time>
      </trkpt>
      <trkpt lat="45.13106" lon="5.60761">
        <ele>1159.7851429483</ele>
        <time>2019-03-24T13:28:34Z</time>
      </trkpt>
      <trkpt lat="45.13112" lon="5.60742">
        <ele>1156.9812193566</ele>
        <time>2019-03-24T13:28:37Z</time>
      </trkpt>
      <trkpt lat="45.13127" lon="5.60712">
        <ele>1149.6543180404</ele>
        <time>2019-03-24T13:28:42Z</time>
      </trkpt>
      <trkpt lat="45.13135" lon="5.60692">
        <ele>1146.3804910129</ele>
        <time>2019-03-24T13:28:45Z</time>
      </trkpt>
      <trkpt lat="45.13144" lon="5.60654">
        <ele>1140.4668236781</ele>
        <time>2019-03-24T13:28:50Z</time>
      </trkpt>
      <trkpt lat="45.13157" lon="5.60618">
        <ele>1133.8679824339</ele>
        <time>2019-03-24T13:28:54Z</time>
      </trkpt>
      <trkpt lat="45.13173" lon="5.60574">
        <ele>1127.7425733635</ele>
        <time>2019-03-24T13:28:59Z</time>
      </trkpt>
      <trkpt lat="45.1318" lon="5.6055">
        <ele>1123.4625463688</ele>
        <time>2019-03-24T13:29:02Z</time>
      </trkpt>
      <trkpt lat="45.13191" lon="5.6052">
        <ele>1116.5637555181</ele>
        <time>2019-03-24T13:29:06Z</time>
      </trkpt>
      <trkpt lat="45.13198" lon="5.60487">
        <ele>1111.7278093892</ele>
        <time>2019-03-24T13:29:10Z</time>
      </trkpt>
      <trkpt lat="45.1322" lon="5.60456">
        <ele>1104.5841474264</ele>
        <time>2019-03-24T13:29:15Z</time>
      </trkpt>
      <trkpt lat="45.13231" lon="5.60447">
        <ele>1100.2966562815</ele>
        <time>2019-03-24T13:29:19Z</time>
      </trkpt>
      <trkpt lat="45.13248" lon="5.60431">
        <ele>1095.2835647203</ele>
        <time>2019-03-24T13:29:24Z</time>
      </trkpt>
      <trkpt lat="45.1326" lon="5.60428">
        <ele>1092.6690036756</ele>
        <time>2019-03-24T13:29:27Z</time>
      </trkpt>
      <trkpt lat="45.13285" lon="5.6043">
        <ele>1087.9118080868</ele>
        <time>2019-03-24T13:29:32Z</time>
      </trkpt>
      <trkpt lat="45.13312" lon="5.60414">
        <ele>1082.6229397474</ele>
        <time>2019-03-24T13:29:36Z</time>
      </trkpt>
      <trkpt lat="45.13334" lon="5.60406">
        <ele>1077.3468435526</ele>
        <time>2019-03-24T13:29:40Z</time>
      </trkpt>
      <trkpt lat="45.13343" lon="5.60425">
        <ele>1077.1364502503</ele>
        <time>2019-03-24T13:29:45Z</time>
      </trkpt>
      <trkpt lat="45.13348" lon="5.60437">
        <ele>1077.5234001638</ele>
        <time>2019-03-24T13:29:48Z</time>
      </trkpt>
      <trkpt lat="45.13356" lon="5.60457">
        <ele>1077.7781743954</ele>
        <time>2019-03-24T13:29:52Z</time>
      </trkpt>
      <trkpt lat="45.1337" lon="5.60475">
        <ele>1078.3714409237</ele>
        <time>2019-03-24T13:29:57Z</time>
      </trkpt>
      <trkpt lat="45.13384" lon="5.60484">
        <ele>1078.664749711</ele>
        <time>2019-03-24T13:30:01Z</time>
      </trkpt>
      <trkpt lat="45.13402" lon="5.60491">
        <ele>1079.5259610185</ele>
        <time>2019-03-24T13:30:06Z</time>
      </trkpt>
      <trkpt lat="45.13416" lon="5.60497">
        <ele>1079.7015323905</ele>
        <time>2019-03-24T13:30:10Z</time>
      </trkpt>
      <trkpt lat="45.13432" lon="5.60506">
        <ele>1080.1084546223</ele>
        <time>2019-03-24T13:30:15Z</time>
      </trkpt>
      <trkpt lat="45.13443" lon="5.60513">
        <ele>1080.7777222756</ele>
        <time>2019-03-24T13:30:18Z</time>
      </trkpt>
      <trkpt lat="45.13456" lon="5.60522">
        <ele>1081.3873841625</ele>
        <time>2019-03-24T13:30:22Z</time>
      </trkpt>
      <trkpt lat="45.13467" lon="5.6053">
        <ele>1082.147078298</ele>
        <time>2019-03-24T13:30:26Z</time>
      </trkpt>
      <trkpt lat="45.13482" lon="5.6054">
        <ele>1083.1504051394</ele>
        <time>2019-03-24T13:30:30Z</time>
      </trkpt>
      <trkpt lat="45.13498" lon="5.60552">
        <ele>1084.464143072</ele>
        <time>2019-03-24T13:30:35Z</time>
      </trkpt>
      <trkpt lat="45.13511" lon="5.6056">
        <ele>1085.5093353418</ele>
        <time>2019-03-24T13:30:39Z</time>
      </trkpt>
      <trkpt lat="45.13526" lon="5.60562">
        <ele>1086.3123990438</ele>
        <time>2019-03-24T13:30:43Z</time>
      </trkpt>
      <trkpt lat="45.13545" lon="5.60557">
        <ele>1087.2178186708</ele>
        <time>2019-03-24T13:30:48Z</time>
      </trkpt>
      <trkpt lat="45.13562" lon="5.60549">
        <ele>1088.2091458325</ele>
        <time>2019-03-24T13:30:53Z</time>
      </trkpt>
      <trkpt lat="45.13573" lon="5.60545">
        <ele>1088.7775001289</ele>
        <time>2019-03-24T13:30:56Z</time>
      </trkpt>
      <trkpt lat="45.13587" lon="5.60541">
        <ele>1089.7685972491</ele>
        <time>2019-03-24T13:31:00Z</time>
      </trkpt>
      <trkpt lat="45.13602" lon="5.60539">
        <ele>1090.357344029</ele>
        <time>2019-03-24T13:31:04Z</time>
      </trkpt>
      <trkpt lat="45.13617" lon="5.60542">
        <ele>1091.3682582029</ele>
        <time>2019-03-24T13:31:08Z</time>
      </trkpt>
      <trkpt lat="45.13634" lon="5.60545">
        <ele>1092.1788079492</ele>
        <time>2019-03-24T13:31:12Z</time>
      </trkpt>
      <trkpt lat="45.13651" lon="5.60537">
        <ele>1092.7289561642</ele>
        <time>2019-03-24T13:31:16Z</time>
      </trkpt>
      <trkpt lat="45.13665" lon="5.60522">
        <ele>1093.6719110723</ele>
        <time>2019-03-24T13:31:20Z</time>
      </trkpt>
      <trkpt lat="45.13677" lon="5.60504">
        <ele>1094.3486073382</ele>
        <time>2019-03-24T13:31:24Z</time>
      </trkpt>
      <trkpt lat="45.13691" lon="5.60483">
        <ele>1095.0437963534</ele>
        <time>2019-03-24T13:31:29Z</time>
      </trkpt>
      <trkpt lat="45.13704" lon="5.60467">
        <ele>1095.3686062332</ele>
        <time>2019-03-24T13:31:33Z</time>
      </trkpt>
      <trkpt lat="45.13722" lon="5.60451">
        <ele>1095.6035344727</ele>
        <time>2019-03-24T13:31:38Z</time>
      </trkpt>
      <trkpt lat="45.13737" lon="5.6044">
        <ele>1095.5807028054</ele>
        <time>2019-03-24T13:31:42Z</time>
      </trkpt>
      <trkpt lat="45.1375" lon="5.60436">
        <ele>1095.6040030394</ele>
        <time>2019-03-24T13:31:45Z</time>
      </trkpt>
      <trkpt lat="45.13763" lon="5.60435">
        <ele>1095.6609653976</ele>
        <time>2019-03-24T13:31:48Z</time>
      </trkpt>
      <trkpt lat="45.13776" lon="5.60438">
        <ele>1095.6351782168</ele>
        <time>2019-03-24T13:31:51Z</time>
      </trkpt>
      <trkpt lat="45.13788" lon="5.60444">
        <ele>1095.4888860223</ele>
        <time>2019-03-24T13:31:54Z</time>
      </trkpt>
      <trkpt lat="45.13802" lon="5.60459">
        <ele>1095.4168192713</ele>
        <time>2019-03-24T13:31:58Z</time>
      </trkpt>
      <trkpt lat="45.13815" lon="5.60476">
        <ele>1096.0449211904</ele>
        <time>2019-03-24T13:32:02Z</time>
      </trkpt>
      <trkpt lat="45.13831" lon="5.60498">
        <ele>1096.5046954227</ele>
        <time>2019-03-24T13:32:07Z</time>
      </trkpt>
      <trkpt lat="45.13843" lon="5.60516">
        <ele>1096.7035006752</ele>
        <time>2019-03-24T13:32:11Z</time>
      </trkpt>
      <trkpt lat="45.13854" lon="5.6053">
        <ele>1096.895408037</ele>
        <time>2019-03-24T13:32:14Z</time>
      </trkpt>
      <trkpt lat="45.13869" lon="5.60551">
        <ele>1097.2432878365</ele>
        <time>2019-03-24T13:32:18Z</time>
      </trkpt>
      <trkpt lat="45.13883" lon="5.60571">
        <ele>1097.5899042823</ele>
        <time>2019-03-24T13:32:22Z</time>
      </trkpt>
      <trkpt lat="45.13898" lon="5.60591">
        <ele>1098.158727383</ele>
        <time>2019-03-24T13:32:26Z</time>
      </trkpt>
      <trkpt lat="45.13923" lon="5.60605">
        <ele>1098.5333055308</ele>
        <time>2019-03-24T13:32:31Z</time>
      </trkpt>
      <trkpt lat="45.13945" lon="5.60599">
        <ele>1098.1427044517</ele>
        <time>2019-03-24T13:32:35Z</time>
      </trkpt>
      <trkpt lat="45.13971" lon="5.60581">
        <ele>1097.4635546204</ele>
        <time>2019-03-24T13:32:40Z</time>
      </trkpt>
      <trkpt lat="45.13992" lon="5.6057">
        <ele>1097.6330209622</ele>
        <time>2019-03-24T13:32:44Z</time>
      </trkpt>
      <trkpt lat="45.14013" lon="5.60567">
        <ele>1097.542271971</ele>
        <time>2019-03-24T13:32:48Z</time>
      </trkpt>
      <trkpt lat="45.14029" lon="5.60569">
        <ele>1097.8531530143</ele>
        <time>2019-03-24T13:32:51Z</time>
      </trkpt>
      <trkpt lat="45.1405" lon="5.60577">
        <ele>1097.4344450392</ele>
        <time>2019-03-24T13:32:55Z</time>
      </trkpt>
      <trkpt lat="45.14066" lon="5.60584">
        <ele>1097.4716092437</ele>
        <time>2019-03-24T13:32:58Z</time>
      </trkpt>
      <trkpt lat="45.14086" lon="5.60594">
        <ele>1097.760611235</ele>
        <time>2019-03-24T13:33:02Z</time>
      </trkpt>
      <trkpt lat="45.14101" lon="5.60603">
        <ele>1097.0692916745</ele>
        <time>2019-03-24T13:33:05Z</time>
      </trkpt>
      <trkpt lat="45.14125" lon="5.60625">
        <ele>1096.9083796265</ele>
        <time>2019-03-24T13:33:10Z</time>
      </trkpt>
      <trkpt lat="45.14135" lon="5.60643">
        <ele>1097.3101594955</ele>
        <time>2019-03-24T13:33:13Z</time>
      </trkpt>
      <trkpt lat="45.14145" lon="5.60671">
        <ele>1097.9988558854</ele>
        <time>2019-03-24T13:33:17Z</time>
      </trkpt>
      <trkpt lat="45.14151" lon="5.60694">
        <ele>1098.0873404718</ele>
        <time>2019-03-24T13:33:20Z</time>
      </trkpt>
      <trkpt lat="45.14164" lon="5.60725">
        <ele>1099.6773215949</ele>
        <time>2019-03-24T13:33:25Z</time>
      </trkpt>
      <trkpt lat="45.14189" lon="5.60738">
        <ele>1100.7481013241</ele>
        <time>2019-03-24T13:33:30Z</time>
      </trkpt>
      <trkpt lat="45.14217" lon="5.60735">
        <ele>1101.7123519677</ele>
        <time>2019-03-24T13:33:35Z</time>
      </trkpt>
      <trkpt lat="45.14238" lon="5.60732">
        <ele>1101.9736837574</ele>
        <time>2019-03-24T13:33:39Z</time>
      </trkpt>
      <trkpt lat="45.14258" lon="5.60729">
        <ele>1102.0758528195</ele>
        <time>2019-03-24T13:33:43Z</time>
      </trkpt>
      <trkpt lat="45.14279" lon="5.60726">
        <ele>1102.6454049953</ele>
        <time>2019-03-24T13:33:47Z</time>
      </trkpt>
      <trkpt lat="45.14303" lon="5.60723">
        <ele>1103.4997909408</ele>
        <time>2019-03-24T13:33:52Z</time>
      </trkpt>
      <trkpt lat="45.14329" lon="5.60719">
        <ele>1104.0450343344</ele>
        <time>2019-03-24T13:33:57Z</time>
      </trkpt>
      <trkpt lat="45.14344" lon="5.60717">
        <ele>1104.9914774193</ele>
        <time>2019-03-24T13:34:00Z</time>
      </trkpt>
      <trkpt lat="45.14362" lon="5.60716">
        <ele>1106.387752563</ele>
        <time>2019-03-24T13:34:04Z</time>
      </trkpt>
      <trkpt lat="45.14381" lon="5.6072">
        <ele>1107.828566899</ele>
        <time>2019-03-24T13:34:08Z</time>
      </trkpt>
      <trkpt lat="45.14396" lon="5.60729">
        <ele>1109.0357783088</ele>
        <time>2019-03-24T13:34:12Z</time>
      </trkpt>
      <trkpt lat="45.14416" lon="5.60742">
        <ele>1109.878896992</ele>
        <time>2019-03-24T13:34:17Z</time>
      </trkpt>
      <trkpt lat="45.1443" lon="5.60748">
        <ele>1110.909066115</ele>
        <time>2019-03-24T13:34:20Z</time>
      </trkpt>
      <trkpt lat="45.14448" lon="5.60752">
        <ele>1113.3885457096</ele>
        <time>2019-03-24T13:34:24Z</time>
      </trkpt>
      <trkpt lat="45.14469" lon="5.60757">
        <ele>1111.177550994</ele>
        <time>2019-03-24T13:34:29Z</time>
      </trkpt>
      <trkpt lat="45.14492" lon="5.60755">
        <ele>1112.6947616605</ele>
        <time>2019-03-24T13:34:34Z</time>
      </trkpt>
      <trkpt lat="45.14514" lon="5.60762">
        <ele>1110.1019758105</ele>
        <time>2019-03-24T13:34:39Z</time>
      </trkpt>
      <trkpt lat="45.14525" lon="5.60761">
        <ele>1110.5128463205</ele>
        <time>2019-03-24T13:34:42Z</time>
      </trkpt>
      <trkpt lat="45.14537" lon="5.60761">
        <ele>1111.9118305144</ele>
        <time>2019-03-24T13:34:47Z</time>
      </trkpt>
      <trkpt lat="45.14553" lon="5.60763">
        <ele>1114.2964620322</ele>
        <time>2019-03-24T13:34:52Z</time>
      </trkpt>
      <trkpt lat="45.14566" lon="5.60759">
        <ele>1113.5186245889</ele>
        <time>2019-03-24T13:34:57Z</time>
      </trkpt>
      <trkpt lat="45.14579" lon="5.60751">
        <ele>1116.3425891075</ele>
        <time>2019-03-24T13:35:01Z</time>
      </trkpt>
      <trkpt lat="45.14588" lon="5.60746">
        <ele>1116.9087438102</ele>
        <time>2019-03-24T13:35:04Z</time>
      </trkpt>
      <trkpt lat="45.146" lon="5.6074">
        <ele>1118.7375296663</ele>
        <time>2019-03-24T13:35:08Z</time>
      </trkpt>
      <trkpt lat="45.14615" lon="5.6073">
        <ele>1118.0926624938</ele>
        <time>2019-03-24T13:35:13Z</time>
      </trkpt>
      <trkpt lat="45.14631" lon="5.60721">
        <ele>1120.6135826985</ele>
        <time>2019-03-24T13:35:18Z</time>
      </trkpt>
      <trkpt lat="45.14642" lon="5.60717">
        <ele>1123.0903955055</ele>
        <time>2019-03-24T13:35:22Z</time>
      </trkpt>
      <trkpt lat="45.14656" lon="5.60709">
        <ele>1122.4436129346</ele>
        <time>2019-03-24T13:35:26Z</time>
      </trkpt>
      <trkpt lat="45.14668" lon="5.607">
        <ele>1125.3716932228</ele>
        <time>2019-03-24T13:35:30Z</time>
      </trkpt>
      <trkpt lat="45.14679" lon="5.6069">
        <ele>1126.789797237</ele>
        <time>2019-03-24T13:35:33Z</time>
      </trkpt>
      <trkpt lat="45.14688" lon="5.60682">
        <ele>1127.9728516835</ele>
        <time>2019-03-24T13:35:37Z</time>
      </trkpt>
      <trkpt lat="45.14703" lon="5.6067">
        <ele>1128.6684067061</ele>
        <time>2019-03-24T13:35:42Z</time>
      </trkpt>
      <trkpt lat="45.14713" lon="5.60657">
        <ele>1126.8488824903</ele>
        <time>2019-03-24T13:35:46Z</time>
      </trkpt>
      <trkpt lat="45.14724" lon="5.60646">
        <ele>1126.4221954464</ele>
        <time>2019-03-24T13:35:51Z</time>
      </trkpt>
      <trkpt lat="45.1473" lon="5.6064">
        <ele>1125.514827886</ele>
        <time>2019-03-24T13:35:54Z</time>
      </trkpt>
      <trkpt lat="45.14738" lon="5.60632">
        <ele>1124.6900254526</ele>
        <time>2019-03-24T13:35:58Z</time>
      </trkpt>
      <trkpt lat="45.14746" lon="5.60625">
        <ele>1126.8645427468</ele>
        <time>2019-03-24T13:36:02Z</time>
      </trkpt>
      <trkpt lat="45.14763" lon="5.60615">
        <ele>1128.5753255207</ele>
        <time>2019-03-24T13:36:07Z</time>
      </trkpt>
      <trkpt lat="45.14777" lon="5.6061">
        <ele>1130.6966488816</ele>
        <time>2019-03-24T13:36:11Z</time>
      </trkpt>
      <trkpt lat="45.14791" lon="5.606">
        <ele>1132.1500850752</ele>
        <time>2019-03-24T13:36:16Z</time>
      </trkpt>
      <trkpt lat="45.14794" lon="5.60597">
        <ele>1133.3858482785</ele>
        <time>2019-03-24T13:36:21Z</time>
      </trkpt>
      <trkpt lat="45.14798" lon="5.60594">
        <ele>1140.0563869187</ele>
        <time>2019-03-24T13:36:36Z</time>
      </trkpt>
      <trkpt lat="45.14809" lon="5.60579">
        <ele>1136.4218094523</ele>
        <time>2019-03-24T13:36:40Z</time>
      </trkpt>
      <trkpt lat="45.14822" lon="5.60562">
        <ele>1132.9495668433</ele>
        <time>2019-03-24T13:36:44Z</time>
      </trkpt>
      <trkpt lat="45.14839" lon="5.60553">
        <ele>1129.9433971285</ele>
        <time>2019-03-24T13:36:49Z</time>
      </trkpt>
      <trkpt lat="45.14854" lon="5.6055">
        <ele>1129.2986444283</ele>
        <time>2019-03-24T13:36:53Z</time>
      </trkpt>
      <trkpt lat="45.14872" lon="5.60549">
        <ele>1127.3138105827</ele>
        <time>2019-03-24T13:36:58Z</time>
      </trkpt>
      <trkpt lat="45.14883" lon="5.60552">
        <ele>1125.1068252698</ele>
        <time>2019-03-24T13:37:02Z</time>
      </trkpt>
      <trkpt lat="45.14905" lon="5.60562">
        <ele>1123.0399827121</ele>
        <time>2019-03-24T13:37:06Z</time>
      </trkpt>
      <trkpt lat="45.14933" lon="5.60582">
        <ele>1117.890369487</ele>
        <time>2019-03-24T13:37:10Z</time>
      </trkpt>
      <trkpt lat="45.14949" lon="5.60598">
        <ele>1114.7311078607</ele>
        <time>2019-03-24T13:37:14Z</time>
      </trkpt>
      <trkpt lat="45.14956" lon="5.60608">
        <ele>1114.7922567234</ele>
        <time>2019-03-24T13:37:18Z</time>
      </trkpt>
      <trkpt lat="45.1496" lon="5.60613">
        <ele>1113.031644258</ele>
        <time>2019-03-24T13:37:21Z</time>
      </trkpt>
      <trkpt lat="45.14973" lon="5.6062">
        <ele>1108.837378772</ele>
        <time>2019-03-24T13:37:26Z</time>
      </trkpt>
      <trkpt lat="45.14983" lon="5.60624">
        <ele>1108.2863708477</ele>
        <time>2019-03-24T13:37:30Z</time>
      </trkpt>
      <trkpt lat="45.14999" lon="5.60631">
        <ele>1105.4531096236</ele>
        <time>2019-03-24T13:37:34Z</time>
      </trkpt>
      <trkpt lat="45.15014" lon="5.60628">
        <ele>1105.2327524056</ele>
        <time>2019-03-24T13:37:38Z</time>
      </trkpt>
      <trkpt lat="45.1503" lon="5.60613">
        <ele>1102.7730393941</ele>
        <time>2019-03-24T13:37:42Z</time>
      </trkpt>
      <trkpt lat="45.15043" lon="5.60586">
        <ele>1099.6842356761</ele>
        <time>2019-03-24T13:37:46Z</time>
      </trkpt>
      <trkpt lat="45.15032" lon="5.60573">
        <ele>1095.5616663201</ele>
        <time>2019-03-24T13:37:51Z</time>
      </trkpt>
      <trkpt lat="45.1502" lon="5.60535">
        <ele>1091.5633522227</ele>
        <time>2019-03-24T13:37:55Z</time>
      </trkpt>
      <trkpt lat="45.15013" lon="5.60506">
        <ele>1089.6405431096</ele>
        <time>2019-03-24T13:37:59Z</time>
      </trkpt>
      <trkpt lat="45.15011" lon="5.60494">
        <ele>1083.6944825975</ele>
        <time>2019-03-24T13:38:03Z</time>
      </trkpt>
      <trkpt lat="45.15006" lon="5.60475">
        <ele>1082.7094467668</ele>
        <time>2019-03-24T13:38:08Z</time>
      </trkpt>
      <trkpt lat="45.14997" lon="5.60449">
        <ele>1083.5749301569</ele>
        <time>2019-03-24T13:38:12Z</time>
      </trkpt>
      <trkpt lat="45.14985" lon="5.60429">
        <ele>1084.4470426704</ele>
        <time>2019-03-24T13:38:16Z</time>
      </trkpt>
      <trkpt lat="45.14969" lon="5.6041">
        <ele>1086.3809495958</ele>
        <time>2019-03-24T13:38:21Z</time>
      </trkpt>
      <trkpt lat="45.14957" lon="5.60401">
        <ele>1086.8217283456</ele>
        <time>2019-03-24T13:38:25Z</time>
      </trkpt>
      <trkpt lat="45.14944" lon="5.60393">
        <ele>1085.0362352316</ele>
        <time>2019-03-24T13:38:29Z</time>
      </trkpt>
      <trkpt lat="45.14934" lon="5.60389">
        <ele>1083.4388184545</ele>
        <time>2019-03-24T13:38:32Z</time>
      </trkpt>
      <trkpt lat="45.14916" lon="5.60381">
        <ele>1079.4075249742</ele>
        <time>2019-03-24T13:38:36Z</time>
      </trkpt>
      <trkpt lat="45.14903" lon="5.60375">
        <ele>1080.5900235232</ele>
        <time>2019-03-24T13:38:41Z</time>
      </trkpt>
      <trkpt lat="45.14899" lon="5.60373">
        <ele>1082.2985190899</ele>
        <time>2019-03-24T13:38:44Z</time>
      </trkpt>
      <trkpt lat="45.14875" lon="5.60336">
        <ele>1080.2611141261</ele>
        <time>2019-03-24T13:38:49Z</time>
      </trkpt>
      <trkpt lat="45.14859" lon="5.60315">
        <ele>1082.5361179764</ele>
        <time>2019-03-24T13:38:52Z</time>
      </trkpt>
      <trkpt lat="45.14843" lon="5.60296">
        <ele>1082.2759257079</ele>
        <time>2019-03-24T13:38:56Z</time>
      </trkpt>
      <trkpt lat="45.14828" lon="5.60279">
        <ele>1081.5833158285</ele>
        <time>2019-03-24T13:39:01Z</time>
      </trkpt>
      <trkpt lat="45.14817" lon="5.60271">
        <ele>1077.7884689696</ele>
        <time>2019-03-24T13:39:06Z</time>
      </trkpt>
      <trkpt lat="45.14806" lon="5.60264">
        <ele>1072.9917024475</ele>
        <time>2019-03-24T13:39:10Z</time>
      </trkpt>
      <trkpt lat="45.14797" lon="5.60261">
        <ele>1069.4765592693</ele>
        <time>2019-03-24T13:39:13Z</time>
      </trkpt>
      <trkpt lat="45.14783" lon="5.60259">
        <ele>1063.9350897826</ele>
        <time>2019-03-24T13:39:17Z</time>
      </trkpt>
      <trkpt lat="45.14744" lon="5.6026">
        <ele>1066.9753561226</ele>
        <time>2019-03-24T13:39:22Z</time>
      </trkpt>
      <trkpt lat="45.14721" lon="5.60267">
        <ele>1069.5739465718</ele>
        <time>2019-03-24T13:39:26Z</time>
      </trkpt>
      <trkpt lat="45.14687" lon="5.60281">
        <ele>1068.8526518532</ele>
        <time>2019-03-24T13:39:30Z</time>
      </trkpt>
      <trkpt lat="45.14636" lon="5.603">
        <ele>1051.6880912638</ele>
        <time>2019-03-24T13:39:34Z</time>
      </trkpt>
      <trkpt lat="45.14618" lon="5.60298">
        <ele>1053.8159594248</ele>
        <time>2019-03-24T13:39:37Z</time>
      </trkpt>
      <trkpt lat="45.14601" lon="5.60303">
        <ele>1047.2867777592</ele>
        <time>2019-03-24T13:39:42Z</time>
      </trkpt>
      <trkpt lat="45.14571" lon="5.6031">
        <ele>1047.0654497344</ele>
        <time>2019-03-24T13:39:47Z</time>
      </trkpt>
      <trkpt lat="45.14549" lon="5.60315">
        <ele>1046.4929643903</ele>
        <time>2019-03-24T13:39:52Z</time>
      </trkpt>
      <trkpt lat="45.14535" lon="5.60326">
        <ele>1039.1935538074</ele>
        <time>2019-03-24T13:39:57Z</time>
      </trkpt>
      <trkpt lat="45.14518" lon="5.60341">
        <ele>1039.001581118</ele>
        <time>2019-03-24T13:40:01Z</time>
      </trkpt>
      <trkpt lat="45.14516" lon="5.60323">
        <ele>1039.800496689</ele>
        <time>2019-03-24T13:40:06Z</time>
      </trkpt>
      <trkpt lat="45.14525" lon="5.60306">
        <ele>1038.9670231337</ele>
        <time>2019-03-24T13:40:10Z</time>
      </trkpt>
      <trkpt lat="45.1453" lon="5.60288">
        <ele>1040.7662549234</ele>
        <time>2019-03-24T13:40:14Z</time>
      </trkpt>
      <trkpt lat="45.14534" lon="5.6027">
        <ele>1039.742737023</ele>
        <time>2019-03-24T13:40:18Z</time>
      </trkpt>
      <trkpt lat="45.1454" lon="5.60241">
        <ele>1042.9166970546</ele>
        <time>2019-03-24T13:40:23Z</time>
      </trkpt>
      <trkpt lat="45.14542" lon="5.60224">
        <ele>1043.8783392712</ele>
        <time>2019-03-24T13:40:27Z</time>
      </trkpt>
      <trkpt lat="45.14541" lon="5.60212">
        <ele>1043.9602411635</ele>
        <time>2019-03-24T13:40:30Z</time>
      </trkpt>
      <trkpt lat="45.14538" lon="5.60196">
        <ele>1043.2681624684</ele>
        <time>2019-03-24T13:40:34Z</time>
      </trkpt>
      <trkpt lat="45.14529" lon="5.60175">
        <ele>1041.5063407006</ele>
        <time>2019-03-24T13:40:38Z</time>
      </trkpt>
      <trkpt lat="45.14513" lon="5.60142">
        <ele>1038.7401761604</ele>
        <time>2019-03-24T13:40:43Z</time>
      </trkpt>
      <trkpt lat="45.14495" lon="5.60118">
        <ele>1040.6179446656</ele>
        <time>2019-03-24T13:40:47Z</time>
      </trkpt>
      <trkpt lat="45.14471" lon="5.60099">
        <ele>1037.4467842149</ele>
        <time>2019-03-24T13:40:52Z</time>
      </trkpt>
      <trkpt lat="45.14455" lon="5.60089">
        <ele>1036.6927966702</ele>
        <time>2019-03-24T13:40:55Z</time>
      </trkpt>
      <trkpt lat="45.14431" lon="5.60073">
        <ele>1034.7725133557</ele>
        <time>2019-03-24T13:40:59Z</time>
      </trkpt>
      <trkpt lat="45.14414" lon="5.60053">
        <ele>1031.0569671021</ele>
        <time>2019-03-24T13:41:03Z</time>
      </trkpt>
      <trkpt lat="45.14399" lon="5.60036">
        <ele>1032.6501770446</ele>
        <time>2019-03-24T13:41:07Z</time>
      </trkpt>
      <trkpt lat="45.14388" lon="5.60027">
        <ele>1032.0580131731</ele>
        <time>2019-03-24T13:41:10Z</time>
      </trkpt>
      <trkpt lat="45.14382" lon="5.60024">
        <ele>1034.9224925558</ele>
        <time>2019-03-24T13:41:15Z</time>
      </trkpt>
      <trkpt lat="45.14382" lon="5.60024">
        <ele>1037.2311788897</ele>
        <time>2019-03-24T13:42:44Z</time>
      </trkpt>
      <trkpt lat="45.14365" lon="5.6001">
        <ele>1038.4843372897</ele>
        <time>2019-03-24T13:42:49Z</time>
      </trkpt>
      <trkpt lat="45.14334" lon="5.59991">
        <ele>1034.1194067709</ele>
        <time>2019-03-24T13:42:53Z</time>
      </trkpt>
      <trkpt lat="45.14294" lon="5.59967">
        <ele>1026.2578083669</ele>
        <time>2019-03-24T13:42:58Z</time>
      </trkpt>
      <trkpt lat="45.14255" lon="5.59959">
        <ele>1020.8855314095</ele>
        <time>2019-03-24T13:43:03Z</time>
      </trkpt>
      <trkpt lat="45.14234" lon="5.59948">
        <ele>1019.354193674</ele>
        <time>2019-03-24T13:43:06Z</time>
      </trkpt>
      <trkpt lat="45.14208" lon="5.59929">
        <ele>1019.1049925328</ele>
        <time>2019-03-24T13:43:11Z</time>
      </trkpt>
      <trkpt lat="45.14188" lon="5.5992">
        <ele>1017.7441828826</ele>
        <time>2019-03-24T13:43:15Z</time>
      </trkpt>
      <trkpt lat="45.14166" lon="5.59912">
        <ele>1016.4075041049</ele>
        <time>2019-03-24T13:43:19Z</time>
      </trkpt>
      <trkpt lat="45.14143" lon="5.59906">
        <ele>1015.5986507812</ele>
        <time>2019-03-24T13:43:23Z</time>
      </trkpt>
      <trkpt lat="45.14127" lon="5.59898">
        <ele>1015.1512622331</ele>
        <time>2019-03-24T13:43:26Z</time>
      </trkpt>
      <trkpt lat="45.14108" lon="5.59884">
        <ele>1013.9578820693</ele>
        <time>2019-03-24T13:43:30Z</time>
      </trkpt>
      <trkpt lat="45.14089" lon="5.59866">
        <ele>1012.8266788981</ele>
        <time>2019-03-24T13:43:34Z</time>
      </trkpt>
      <trkpt lat="45.14072" lon="5.5984">
        <ele>1011.9770566646</ele>
        <time>2019-03-24T13:43:38Z</time>
      </trkpt>
      <trkpt lat="45.14065" lon="5.59818">
        <ele>1011.8885441266</ele>
        <time>2019-03-24T13:43:41Z</time>
      </trkpt>
      <trkpt lat="45.14062" lon="5.59794">
        <ele>1012.3583954612</ele>
        <time>2019-03-24T13:43:45Z</time>
      </trkpt>
      <trkpt lat="45.1406" lon="5.59774">
        <ele>1012.2200436276</ele>
        <time>2019-03-24T13:43:49Z</time>
      </trkpt>
      <trkpt lat="45.14053" lon="5.59743">
        <ele>1008.2246659981</ele>
        <time>2019-03-24T13:43:53Z</time>
      </trkpt>
      <trkpt lat="45.14041" lon="5.5971">
        <ele>1005.1690114629</ele>
        <time>2019-03-24T13:43:57Z</time>
      </trkpt>
      <trkpt lat="45.14023" lon="5.59666">
        <ele>1000.7767489149</ele>
        <time>2019-03-24T13:44:01Z</time>
      </trkpt>
      <trkpt lat="45.14004" lon="5.59621">
        <ele>996.69988912605</ele>
        <time>2019-03-24T13:44:05Z</time>
      </trkpt>
      <trkpt lat="45.13992" lon="5.59573">
        <ele>995.03578377467</ele>
        <time>2019-03-24T13:44:09Z</time>
      </trkpt>
      <trkpt lat="45.13996" lon="5.59541">
        <ele>995.01287090789</ele>
        <time>2019-03-24T13:44:12Z</time>
      </trkpt>
      <trkpt lat="45.14009" lon="5.59509">
        <ele>993.89190753048</ele>
        <time>2019-03-24T13:44:16Z</time>
      </trkpt>
      <trkpt lat="45.14013" lon="5.5949">
        <ele>993.71597208992</ele>
        <time>2019-03-24T13:44:21Z</time>
      </trkpt>
      <trkpt lat="45.14011" lon="5.59462">
        <ele>992.34645517783</ele>
        <time>2019-03-24T13:44:25Z</time>
      </trkpt>
      <trkpt lat="45.14009" lon="5.59435">
        <ele>990.08458275929</ele>
        <time>2019-03-24T13:44:28Z</time>
      </trkpt>
      <trkpt lat="45.14006" lon="5.59397">
        <ele>986.30598722141</ele>
        <time>2019-03-24T13:44:32Z</time>
      </trkpt>
      <trkpt lat="45.13992" lon="5.59365">
        <ele>982.16447753601</ele>
        <time>2019-03-24T13:44:36Z</time>
      </trkpt>
      <trkpt lat="45.13986" lon="5.59321">
        <ele>976.83193076386</ele>
        <time>2019-03-24T13:44:41Z</time>
      </trkpt>
      <trkpt lat="45.13993" lon="5.59287">
        <ele>972.47439506282</ele>
        <time>2019-03-24T13:44:45Z</time>
      </trkpt>
      <trkpt lat="45.14001" lon="5.59254">
        <ele>968.74557954321</ele>
        <time>2019-03-24T13:44:49Z</time>
      </trkpt>
      <trkpt lat="45.14009" lon="5.59231">
        <ele>965.26114685644</ele>
        <time>2019-03-24T13:44:53Z</time>
      </trkpt>
      <trkpt lat="45.14002" lon="5.59212">
        <ele>961.99883645244</ele>
        <time>2019-03-24T13:44:57Z</time>
      </trkpt>
      <trkpt lat="45.14003" lon="5.59186">
        <ele>958.40840264273</ele>
        <time>2019-03-24T13:45:01Z</time>
      </trkpt>
      <trkpt lat="45.14022" lon="5.59161">
        <ele>956.51165069722</ele>
        <time>2019-03-24T13:45:06Z</time>
      </trkpt>
      <trkpt lat="45.14035" lon="5.59151">
        <ele>955.64710172794</ele>
        <time>2019-03-24T13:45:10Z</time>
      </trkpt>
      <trkpt lat="45.14048" lon="5.59139">
        <ele>954.54905232815</ele>
        <time>2019-03-24T13:45:14Z</time>
      </trkpt>
      <trkpt lat="45.1406" lon="5.59125">
        <ele>953.74703040544</ele>
        <time>2019-03-24T13:45:18Z</time>
      </trkpt>
      <trkpt lat="45.14071" lon="5.59113">
        <ele>952.65836210496</ele>
        <time>2019-03-24T13:45:22Z</time>
      </trkpt>
      <trkpt lat="45.14079" lon="5.59102">
        <ele>951.09205161187</ele>
        <time>2019-03-24T13:45:27Z</time>
      </trkpt>
      <trkpt lat="45.14083" lon="5.59094">
        <ele>950.65758912426</ele>
        <time>2019-03-24T13:45:31Z</time>
      </trkpt>
      <trkpt lat="45.14087" lon="5.59083">
        <ele>951.46222721972</ele>
        <time>2019-03-24T13:45:36Z</time>
      </trkpt>
      <trkpt lat="45.14096" lon="5.59064">
        <ele>952.45131167411</ele>
        <time>2019-03-24T13:45:41Z</time>
      </trkpt>
      <trkpt lat="45.14097" lon="5.59048">
        <ele>953.18319671856</ele>
        <time>2019-03-24T13:45:45Z</time>
      </trkpt>
      <trkpt lat="45.14097" lon="5.59028">
        <ele>953.95486522086</ele>
        <time>2019-03-24T13:45:50Z</time>
      </trkpt>
      <trkpt lat="45.14095" lon="5.59015">
        <ele>954.5241936831</ele>
        <time>2019-03-24T13:45:53Z</time>
      </trkpt>
      <trkpt lat="45.14092" lon="5.58998">
        <ele>954.98609538561</ele>
        <time>2019-03-24T13:45:57Z</time>
      </trkpt>
      <trkpt lat="45.14087" lon="5.58982">
        <ele>955.34957794982</ele>
        <time>2019-03-24T13:46:01Z</time>
      </trkpt>
      <trkpt lat="45.14083" lon="5.58971">
        <ele>955.73281633715</ele>
        <time>2019-03-24T13:46:04Z</time>
      </trkpt>
      <trkpt lat="45.14075" lon="5.58952">
        <ele>956.55301649165</ele>
        <time>2019-03-24T13:46:09Z</time>
      </trkpt>
      <trkpt lat="45.14068" lon="5.58938">
        <ele>957.14329571307</ele>
        <time>2019-03-24T13:46:13Z</time>
      </trkpt>
      <trkpt lat="45.14059" lon="5.5892">
        <ele>957.93270832341</ele>
        <time>2019-03-24T13:46:18Z</time>
      </trkpt>
      <trkpt lat="45.14054" lon="5.58909">
        <ele>958.3365619537</ele>
        <time>2019-03-24T13:46:21Z</time>
      </trkpt>
      <trkpt lat="45.14044" lon="5.58893">
        <ele>959.24904961285</ele>
        <time>2019-03-24T13:46:26Z</time>
      </trkpt>
      <trkpt lat="45.14036" lon="5.5888">
        <ele>959.84519718014</ele>
        <time>2019-03-24T13:46:30Z</time>
      </trkpt>
      <trkpt lat="45.14027" lon="5.58864">
        <ele>960.68998740583</ele>
        <time>2019-03-24T13:46:35Z</time>
      </trkpt>
      <trkpt lat="45.14019" lon="5.58851">
        <ele>961.1607520443</ele>
        <time>2019-03-24T13:46:39Z</time>
      </trkpt>
      <trkpt lat="45.1401" lon="5.58838">
        <ele>961.7555839926</ele>
        <time>2019-03-24T13:46:43Z</time>
      </trkpt>
      <trkpt lat="45.13999" lon="5.58822">
        <ele>962.32886855247</ele>
        <time>2019-03-24T13:46:48Z</time>
      </trkpt>
      <trkpt lat="45.13992" lon="5.58813">
        <ele>962.89067867658</ele>
        <time>2019-03-24T13:46:51Z</time>
      </trkpt>
      <trkpt lat="45.13983" lon="5.588">
        <ele>963.31629862583</ele>
        <time>2019-03-24T13:46:55Z</time>
      </trkpt>
      <trkpt lat="45.13974" lon="5.58788">
        <ele>963.90817557751</ele>
        <time>2019-03-24T13:46:59Z</time>
      </trkpt>
      <trkpt lat="45.13964" lon="5.58778">
        <ele>964.56863476895</ele>
        <time>2019-03-24T13:47:03Z</time>
      </trkpt>
      <trkpt lat="45.13953" lon="5.58767">
        <ele>965.20505186812</ele>
        <time>2019-03-24T13:47:07Z</time>
      </trkpt>
      <trkpt lat="45.1394" lon="5.58755">
        <ele>965.13764997694</ele>
        <time>2019-03-24T13:47:12Z</time>
      </trkpt>
      <trkpt lat="45.13931" lon="5.58747">
        <ele>965.75163110232</ele>
        <time>2019-03-24T13:47:15Z</time>
      </trkpt>
      <trkpt lat="45.13919" lon="5.58737">
        <ele>966.23837385936</ele>
        <time>2019-03-24T13:47:19Z</time>
      </trkpt>
      <trkpt lat="45.13901" lon="5.58724">
        <ele>967.09323801002</ele>
        <time>2019-03-24T13:47:24Z</time>
      </trkpt>
      <trkpt lat="45.13887" lon="5.58715">
        <ele>967.43810570432</ele>
        <time>2019-03-24T13:47:28Z</time>
      </trkpt>
      <trkpt lat="45.13873" lon="5.58706">
        <ele>968.17280127648</ele>
        <time>2019-03-24T13:47:32Z</time>
      </trkpt>
      <trkpt lat="45.13855" lon="5.58696">
        <ele>968.99477645236</ele>
        <time>2019-03-24T13:47:37Z</time>
      </trkpt>
      <trkpt lat="45.13845" lon="5.5869">
        <ele>969.31658848709</ele>
        <time>2019-03-24T13:47:40Z</time>
      </trkpt>
      <trkpt lat="45.1383" lon="5.58682">
        <ele>969.92168883983</ele>
        <time>2019-03-24T13:47:44Z</time>
      </trkpt>
      <trkpt lat="45.13813" lon="5.58672">
        <ele>970.54809533664</ele>
        <time>2019-03-24T13:47:49Z</time>
      </trkpt>
      <trkpt lat="45.13802" lon="5.58666">
        <ele>971.34222466452</ele>
        <time>2019-03-24T13:47:52Z</time>
      </trkpt>
      <trkpt lat="45.13787" lon="5.58658">
        <ele>972.36098290224</ele>
        <time>2019-03-24T13:47:57Z</time>
      </trkpt>
      <trkpt lat="45.13776" lon="5.58651">
        <ele>973.60459604238</ele>
        <time>2019-03-24T13:48:01Z</time>
      </trkpt>
      <trkpt lat="45.13762" lon="5.58641">
        <ele>974.80150627314</ele>
        <time>2019-03-24T13:48:06Z</time>
      </trkpt>
      <trkpt lat="45.13753" lon="5.58635">
        <ele>975.57573211375</ele>
        <time>2019-03-24T13:48:09Z</time>
      </trkpt>
      <trkpt lat="45.13742" lon="5.58627">
        <ele>976.38353742579</ele>
        <time>2019-03-24T13:48:13Z</time>
      </trkpt>
      <trkpt lat="45.13731" lon="5.58619">
        <ele>977.25125633809</ele>
        <time>2019-03-24T13:48:17Z</time>
      </trkpt>
      <trkpt lat="45.13721" lon="5.58606">
        <ele>977.91456355023</ele>
        <time>2019-03-24T13:48:22Z</time>
      </trkpt>
      <trkpt lat="45.13734" lon="5.58607">
        <ele>977.30891109333</ele>
        <time>2019-03-24T13:48:27Z</time>
      </trkpt>
      <trkpt lat="45.13749" lon="5.58616">
        <ele>977.42194321487</ele>
        <time>2019-03-24T13:48:31Z</time>
      </trkpt>
      <trkpt lat="45.13766" lon="5.58619">
        <ele>978.15879044299</ele>
        <time>2019-03-24T13:48:35Z</time>
      </trkpt>
      <trkpt lat="45.13779" lon="5.5862">
        <ele>978.40959651784</ele>
        <time>2019-03-24T13:48:39Z</time>
      </trkpt>
      <trkpt lat="45.13789" lon="5.5862">
        <ele>978.75459580366</ele>
        <time>2019-03-24T13:48:42Z</time>
      </trkpt>
      <trkpt lat="45.13802" lon="5.58623">
        <ele>979.28349265872</ele>
        <time>2019-03-24T13:48:46Z</time>
      </trkpt>
      <trkpt lat="45.13816" lon="5.58626">
        <ele>979.38351057739</ele>
        <time>2019-03-24T13:48:50Z</time>
      </trkpt>
      <trkpt lat="45.13829" lon="5.58629">
        <ele>979.3698159984</ele>
        <time>2019-03-24T13:48:54Z</time>
      </trkpt>
      <trkpt lat="45.13845" lon="5.58633">
        <ele>979.10981965779</ele>
        <time>2019-03-24T13:48:58Z</time>
      </trkpt>
      <trkpt lat="45.13861" lon="5.58638">
        <ele>978.54359129924</ele>
        <time>2019-03-24T13:49:02Z</time>
      </trkpt>
      <trkpt lat="45.13874" lon="5.58644">
        <ele>978.11993146627</ele>
        <time>2019-03-24T13:49:05Z</time>
      </trkpt>
      <trkpt lat="45.13896" lon="5.58654">
        <ele>977.9146340735</ele>
        <time>2019-03-24T13:49:10Z</time>
      </trkpt>
      <trkpt lat="45.13909" lon="5.58662">
        <ele>977.59831949906</ele>
        <time>2019-03-24T13:49:13Z</time>
      </trkpt>
      <trkpt lat="45.13927" lon="5.58672">
        <ele>977.26881670169</ele>
        <time>2019-03-24T13:49:17Z</time>
      </trkpt>
      <trkpt lat="45.13949" lon="5.58685">
        <ele>977.12325170922</ele>
        <time>2019-03-24T13:49:22Z</time>
      </trkpt>
      <trkpt lat="45.13965" lon="5.58695">
        <ele>976.9638220044</ele>
        <time>2019-03-24T13:49:26Z</time>
      </trkpt>
      <trkpt lat="45.1398" lon="5.58705">
        <ele>977.08679014921</ele>
        <time>2019-03-24T13:49:30Z</time>
      </trkpt>
      <trkpt lat="45.13992" lon="5.58714">
        <ele>977.03662776339</ele>
        <time>2019-03-24T13:49:33Z</time>
      </trkpt>
      <trkpt lat="45.14004" lon="5.58721">
        <ele>977.13640554557</ele>
        <time>2019-03-24T13:49:36Z</time>
      </trkpt>
      <trkpt lat="45.14023" lon="5.58734">
        <ele>977.39512576653</ele>
        <time>2019-03-24T13:49:41Z</time>
      </trkpt>
      <trkpt lat="45.14038" lon="5.58744">
        <ele>977.72121923151</ele>
        <time>2019-03-24T13:49:45Z</time>
      </trkpt>
      <trkpt lat="45.14052" lon="5.58754">
        <ele>978.84081525346</ele>
        <time>2019-03-24T13:49:49Z</time>
      </trkpt>
      <trkpt lat="45.14065" lon="5.58765">
        <ele>980.10244056653</ele>
        <time>2019-03-24T13:49:53Z</time>
      </trkpt>
      <trkpt lat="45.14077" lon="5.58776">
        <ele>980.98974281593</ele>
        <time>2019-03-24T13:49:57Z</time>
      </trkpt>
      <trkpt lat="45.1409" lon="5.58787">
        <ele>981.67346659765</ele>
        <time>2019-03-24T13:50:01Z</time>
      </trkpt>
      <trkpt lat="45.14103" lon="5.58799">
        <ele>982.29265318401</ele>
        <time>2019-03-24T13:50:05Z</time>
      </trkpt>
      <trkpt lat="45.14116" lon="5.5881">
        <ele>982.80387235406</ele>
        <time>2019-03-24T13:50:09Z</time>
      </trkpt>
      <trkpt lat="45.14126" lon="5.58818">
        <ele>983.22761468452</ele>
        <time>2019-03-24T13:50:12Z</time>
      </trkpt>
      <trkpt lat="45.14143" lon="5.58832">
        <ele>984.18356915254</ele>
        <time>2019-03-24T13:50:17Z</time>
      </trkpt>
      <trkpt lat="45.14157" lon="5.58842">
        <ele>985.06609188341</ele>
        <time>2019-03-24T13:50:21Z</time>
      </trkpt>
      <trkpt lat="45.14171" lon="5.5885">
        <ele>986.34566044956</ele>
        <time>2019-03-24T13:50:25Z</time>
      </trkpt>
      <trkpt lat="45.14188" lon="5.58856">
        <ele>988.00045640026</ele>
        <time>2019-03-24T13:50:30Z</time>
      </trkpt>
      <trkpt lat="45.14202" lon="5.58862">
        <ele>988.73150149611</ele>
        <time>2019-03-24T13:50:34Z</time>
      </trkpt>
      <trkpt lat="45.14219" lon="5.58874">
        <ele>990.50196753151</ele>
        <time>2019-03-24T13:50:39Z</time>
      </trkpt>
      <trkpt lat="45.14225" lon="5.58881">
        <ele>991.65274483625</ele>
        <time>2019-03-24T13:50:42Z</time>
      </trkpt>
      <trkpt lat="45.14234" lon="5.58895">
        <ele>992.73146685112</ele>
        <time>2019-03-24T13:50:46Z</time>
      </trkpt>
      <trkpt lat="45.14244" lon="5.58908">
        <ele>993.75409379138</ele>
        <time>2019-03-24T13:50:50Z</time>
      </trkpt>
      <trkpt lat="45.14254" lon="5.58921">
        <ele>994.5070764893</ele>
        <time>2019-03-24T13:50:54Z</time>
      </trkpt>
      <trkpt lat="45.14264" lon="5.58933">
        <ele>995.61337870776</ele>
        <time>2019-03-24T13:50:58Z</time>
      </trkpt>
      <trkpt lat="45.14278" lon="5.58945">
        <ele>996.9727684017</ele>
        <time>2019-03-24T13:51:03Z</time>
      </trkpt>
      <trkpt lat="45.14286" lon="5.58952">
        <ele>997.90967818329</ele>
        <time>2019-03-24T13:51:06Z</time>
      </trkpt>
      <trkpt lat="45.14297" lon="5.58961">
        <ele>999.25018736033</ele>
        <time>2019-03-24T13:51:10Z</time>
      </trkpt>
      <trkpt lat="45.1431" lon="5.5897">
        <ele>1001.0179115446</ele>
        <time>2019-03-24T13:51:15Z</time>
      </trkpt>
      <trkpt lat="45.1432" lon="5.58978">
        <ele>1002.461195519</ele>
        <time>2019-03-24T13:51:19Z</time>
      </trkpt>
      <trkpt lat="45.14329" lon="5.58984">
        <ele>1003.9241272609</ele>
        <time>2019-03-24T13:51:23Z</time>
      </trkpt>
      <trkpt lat="45.14339" lon="5.5899">
        <ele>1005.1506065871</ele>
        <time>2019-03-24T13:51:27Z</time>
      </trkpt>
      <trkpt lat="45.1435" lon="5.58995">
        <ele>1006.2978472681</ele>
        <time>2019-03-24T13:51:31Z</time>
      </trkpt>
      <trkpt lat="45.14362" lon="5.59001">
        <ele>1008.1849532382</ele>
        <time>2019-03-24T13:51:36Z</time>
      </trkpt>
      <trkpt lat="45.1437" lon="5.59005">
        <ele>1009.0133150732</ele>
        <time>2019-03-24T13:51:39Z</time>
      </trkpt>
      <trkpt lat="45.14384" lon="5.59011">
        <ele>1010.1683753421</ele>
        <time>2019-03-24T13:51:44Z</time>
      </trkpt>
      <trkpt lat="45.14395" lon="5.59013">
        <ele>1011.4802408454</ele>
        <time>2019-03-24T13:51:48Z</time>
      </trkpt>
      <trkpt lat="45.14404" lon="5.59015">
        <ele>1013.0618099735</ele>
        <time>2019-03-24T13:51:51Z</time>
      </trkpt>
      <trkpt lat="45.14418" lon="5.59017">
        <ele>1013.3089721135</ele>
        <time>2019-03-24T13:51:56Z</time>
      </trkpt>
      <trkpt lat="45.14427" lon="5.59019">
        <ele>1014.1936479142</ele>
        <time>2019-03-24T13:51:59Z</time>
      </trkpt>
      <trkpt lat="45.14438" lon="5.59022">
        <ele>1015.3073495981</ele>
        <time>2019-03-24T13:52:03Z</time>
      </trkpt>
      <trkpt lat="45.14449" lon="5.59028">
        <ele>1015.8085155109</ele>
        <time>2019-03-24T13:52:07Z</time>
      </trkpt>
      <trkpt lat="45.1446" lon="5.59035">
        <ele>1016.749532475</ele>
        <time>2019-03-24T13:52:11Z</time>
      </trkpt>
      <trkpt lat="45.14471" lon="5.59043">
        <ele>1017.6591639753</ele>
        <time>2019-03-24T13:52:15Z</time>
      </trkpt>
      <trkpt lat="45.14481" lon="5.59052">
        <ele>1018.959498508</ele>
        <time>2019-03-24T13:52:19Z</time>
      </trkpt>
      <trkpt lat="45.14491" lon="5.59061">
        <ele>1020.1034982532</ele>
        <time>2019-03-24T13:52:23Z</time>
      </trkpt>
      <trkpt lat="45.14502" lon="5.59074">
        <ele>1021.8529402555</ele>
        <time>2019-03-24T13:52:28Z</time>
      </trkpt>
      <trkpt lat="45.14512" lon="5.59088">
        <ele>1023.3008480746</ele>
        <time>2019-03-24T13:52:33Z</time>
      </trkpt>
      <trkpt lat="45.1452" lon="5.591">
        <ele>1024.9302263069</ele>
        <time>2019-03-24T13:52:37Z</time>
      </trkpt>
      <trkpt lat="45.14526" lon="5.59107">
        <ele>1026.0100887563</ele>
        <time>2019-03-24T13:52:40Z</time>
      </trkpt>
      <trkpt lat="45.14535" lon="5.59115">
        <ele>1027.2426914629</ele>
        <time>2019-03-24T13:52:44Z</time>
      </trkpt>
      <trkpt lat="45.1455" lon="5.59121">
        <ele>1028.1658670804</ele>
        <time>2019-03-24T13:52:49Z</time>
      </trkpt>
      <trkpt lat="45.14565" lon="5.59123">
        <ele>1028.4550403402</ele>
        <time>2019-03-24T13:52:54Z</time>
      </trkpt>
      <trkpt lat="45.14579" lon="5.59123">
        <ele>1028.4615486627</ele>
        <time>2019-03-24T13:52:58Z</time>
      </trkpt>
      <trkpt lat="45.14588" lon="5.59126">
        <ele>1028.9125116845</ele>
        <time>2019-03-24T13:53:01Z</time>
      </trkpt>
      <trkpt lat="45.14602" lon="5.59138">
        <ele>1030.2981306938</ele>
        <time>2019-03-24T13:53:06Z</time>
      </trkpt>
      <trkpt lat="45.14609" lon="5.59147">
        <ele>1031.0258382177</ele>
        <time>2019-03-24T13:53:09Z</time>
      </trkpt>
      <trkpt lat="45.14621" lon="5.5916">
        <ele>1032.384654078</ele>
        <time>2019-03-24T13:53:14Z</time>
      </trkpt>
      <trkpt lat="45.14632" lon="5.59169">
        <ele>1033.4765477754</ele>
        <time>2019-03-24T13:53:18Z</time>
      </trkpt>
      <trkpt lat="45.14642" lon="5.59177">
        <ele>1034.5003735199</ele>
        <time>2019-03-24T13:53:22Z</time>
      </trkpt>
      <trkpt lat="45.14654" lon="5.59185">
        <ele>1035.5573923503</ele>
        <time>2019-03-24T13:53:26Z</time>
      </trkpt>
      <trkpt lat="45.14665" lon="5.59193">
        <ele>1036.3007852165</ele>
        <time>2019-03-24T13:53:30Z</time>
      </trkpt>
      <trkpt lat="45.14677" lon="5.59199">
        <ele>1036.9991491957</ele>
        <time>2019-03-24T13:53:34Z</time>
      </trkpt>
      <trkpt lat="45.14689" lon="5.59207">
        <ele>1037.7491266584</ele>
        <time>2019-03-24T13:53:38Z</time>
      </trkpt>
      <trkpt lat="45.14701" lon="5.59216">
        <ele>1038.7033214414</ele>
        <time>2019-03-24T13:53:42Z</time>
      </trkpt>
      <trkpt lat="45.14714" lon="5.59228">
        <ele>1039.5955599679</ele>
        <time>2019-03-24T13:53:47Z</time>
      </trkpt>
      <trkpt lat="45.14726" lon="5.59238">
        <ele>1039.9418048115</ele>
        <time>2019-03-24T13:53:51Z</time>
      </trkpt>
      <trkpt lat="45.1474" lon="5.5925">
        <ele>1040.2050612836</ele>
        <time>2019-03-24T13:53:56Z</time>
      </trkpt>
      <trkpt lat="45.14751" lon="5.59261">
        <ele>1041.2155797812</ele>
        <time>2019-03-24T13:54:00Z</time>
      </trkpt>
      <trkpt lat="45.1476" lon="5.59268">
        <ele>1041.9441558053</ele>
        <time>2019-03-24T13:54:03Z</time>
      </trkpt>
      <trkpt lat="45.1477" lon="5.59278">
        <ele>1042.5619111187</ele>
        <time>2019-03-24T13:54:07Z</time>
      </trkpt>
      <trkpt lat="45.14782" lon="5.59289">
        <ele>1043.702628858</ele>
        <time>2019-03-24T13:54:11Z</time>
      </trkpt>
      <trkpt lat="45.14794" lon="5.593">
        <ele>1044.3661856622</ele>
        <time>2019-03-24T13:54:15Z</time>
      </trkpt>
      <trkpt lat="45.14809" lon="5.59314">
        <ele>1045.2838591866</ele>
        <time>2019-03-24T13:54:20Z</time>
      </trkpt>
      <trkpt lat="45.14823" lon="5.59326">
        <ele>1045.9242680152</ele>
        <time>2019-03-24T13:54:24Z</time>
      </trkpt>
      <trkpt lat="45.14829" lon="5.59331">
        <ele>1046.6184563708</ele>
        <time>2019-03-24T13:54:27Z</time>
      </trkpt>
      <trkpt lat="45.14842" lon="5.59345">
        <ele>1050.0197212831</ele>
        <time>2019-03-24T13:54:32Z</time>
      </trkpt>
      <trkpt lat="45.14852" lon="5.59361">
        <ele>1050.7342694621</ele>
        <time>2019-03-24T13:54:36Z</time>
      </trkpt>
      <trkpt lat="45.14862" lon="5.59377">
        <ele>1051.9917666074</ele>
        <time>2019-03-24T13:54:40Z</time>
      </trkpt>
      <trkpt lat="45.14872" lon="5.59392">
        <ele>1052.7930220969</ele>
        <time>2019-03-24T13:54:44Z</time>
      </trkpt>
      <trkpt lat="45.14882" lon="5.59408">
        <ele>1053.3215044039</ele>
        <time>2019-03-24T13:54:48Z</time>
      </trkpt>
      <trkpt lat="45.14892" lon="5.59423">
        <ele>1054.1354416665</ele>
        <time>2019-03-24T13:54:52Z</time>
      </trkpt>
      <trkpt lat="45.14906" lon="5.59438">
        <ele>1054.403499449</ele>
        <time>2019-03-24T13:54:56Z</time>
      </trkpt>
      <trkpt lat="45.1492" lon="5.5945">
        <ele>1054.3333927481</ele>
        <time>2019-03-24T13:55:00Z</time>
      </trkpt>
      <trkpt lat="45.14932" lon="5.59457">
        <ele>1054.2601859897</ele>
        <time>2019-03-24T13:55:03Z</time>
      </trkpt>
      <trkpt lat="45.14953" lon="5.5947">
        <ele>1054.0009859513</ele>
        <time>2019-03-24T13:55:08Z</time>
      </trkpt>
      <trkpt lat="45.14973" lon="5.59476">
        <ele>1054.2885623947</ele>
        <time>2019-03-24T13:55:12Z</time>
      </trkpt>
      <trkpt lat="45.14995" lon="5.59472">
        <ele>1055.5014614971</ele>
        <time>2019-03-24T13:55:17Z</time>
      </trkpt>
      <trkpt lat="45.1501" lon="5.59469">
        <ele>1056.2862976237</ele>
        <time>2019-03-24T13:55:22Z</time>
      </trkpt>
      <trkpt lat="45.15023" lon="5.59466">
        <ele>1056.8522012824</ele>
        <time>2019-03-24T13:55:26Z</time>
      </trkpt>
      <trkpt lat="45.15038" lon="5.59462">
        <ele>1058.1254992472</ele>
        <time>2019-03-24T13:55:31Z</time>
      </trkpt>
      <trkpt lat="45.15052" lon="5.59458">
        <ele>1059.376843031</ele>
        <time>2019-03-24T13:55:36Z</time>
      </trkpt>
      <trkpt lat="45.15061" lon="5.59457">
        <ele>1059.9760127802</ele>
        <time>2019-03-24T13:55:39Z</time>
      </trkpt>
      <trkpt lat="45.15069" lon="5.59458">
        <ele>1060.3130926597</ele>
        <time>2019-03-24T13:55:42Z</time>
      </trkpt>
      <trkpt lat="45.1508" lon="5.59464">
        <ele>1061.3653544206</ele>
        <time>2019-03-24T13:55:46Z</time>
      </trkpt>
      <trkpt lat="45.15091" lon="5.59475">
        <ele>1062.5377242162</ele>
        <time>2019-03-24T13:55:51Z</time>
      </trkpt>
      <trkpt lat="45.15099" lon="5.59484">
        <ele>1065.3145673688</ele>
        <time>2019-03-24T13:55:55Z</time>
      </trkpt>
      <trkpt lat="45.1511" lon="5.59494">
        <ele>1069.0523272165</ele>
        <time>2019-03-24T13:56:00Z</time>
      </trkpt>
      <trkpt lat="45.15119" lon="5.59503">
        <ele>1071.0147561744</ele>
        <time>2019-03-24T13:56:04Z</time>
      </trkpt>
      <trkpt lat="45.1513" lon="5.59512">
        <ele>1071.9903471705</ele>
        <time>2019-03-24T13:56:08Z</time>
      </trkpt>
      <trkpt lat="45.15144" lon="5.59521">
        <ele>1072.9751560205</ele>
        <time>2019-03-24T13:56:13Z</time>
      </trkpt>
      <trkpt lat="45.15152" lon="5.59525">
        <ele>1073.0464823718</ele>
        <time>2019-03-24T13:56:16Z</time>
      </trkpt>
      <trkpt lat="45.15166" lon="5.59531">
        <ele>1074.0306673615</ele>
        <time>2019-03-24T13:56:21Z</time>
      </trkpt>
      <trkpt lat="45.15174" lon="5.59534">
        <ele>1074.5111134293</ele>
        <time>2019-03-24T13:56:24Z</time>
      </trkpt>
      <trkpt lat="45.15182" lon="5.59539">
        <ele>1075.3235031887</ele>
        <time>2019-03-24T13:56:27Z</time>
      </trkpt>
      <trkpt lat="45.15193" lon="5.59543">
        <ele>1076.6826996683</ele>
        <time>2019-03-24T13:56:31Z</time>
      </trkpt>
      <trkpt lat="45.15204" lon="5.59546">
        <ele>1077.9937710515</ele>
        <time>2019-03-24T13:56:35Z</time>
      </trkpt>
      <trkpt lat="45.15218" lon="5.59547">
        <ele>1079.5565864711</ele>
        <time>2019-03-24T13:56:40Z</time>
      </trkpt>
      <trkpt lat="45.1523" lon="5.59545">
        <ele>1080.0245317144</ele>
        <time>2019-03-24T13:56:44Z</time>
      </trkpt>
      <trkpt lat="45.15244" lon="5.5955">
        <ele>1081.1414461885</ele>
        <time>2019-03-24T13:56:49Z</time>
      </trkpt>
      <trkpt lat="45.15251" lon="5.59562">
        <ele>1082.4349047878</ele>
        <time>2019-03-24T13:56:53Z</time>
      </trkpt>
      <trkpt lat="45.15256" lon="5.59581">
        <ele>1083.8225847084</ele>
        <time>2019-03-24T13:56:58Z</time>
      </trkpt>
      <trkpt lat="45.15262" lon="5.59596">
        <ele>1084.8994586228</ele>
        <time>2019-03-24T13:57:02Z</time>
      </trkpt>
      <trkpt lat="45.1527" lon="5.59609">
        <ele>1085.7532447753</ele>
        <time>2019-03-24T13:57:06Z</time>
      </trkpt>
      <trkpt lat="45.15281" lon="5.59624">
        <ele>1086.9571801459</ele>
        <time>2019-03-24T13:57:11Z</time>
      </trkpt>
      <trkpt lat="45.15291" lon="5.59632">
        <ele>1087.5328395539</ele>
        <time>2019-03-24T13:57:15Z</time>
      </trkpt>
      <trkpt lat="45.15305" lon="5.59642">
        <ele>1088.2614315802</ele>
        <time>2019-03-24T13:57:20Z</time>
      </trkpt>
      <trkpt lat="45.15313" lon="5.59648">
        <ele>1088.6756024855</ele>
        <time>2019-03-24T13:57:23Z</time>
      </trkpt>
      <trkpt lat="45.15326" lon="5.59656">
        <ele>1089.9966190281</ele>
        <time>2019-03-24T13:57:28Z</time>
      </trkpt>
      <trkpt lat="45.15337" lon="5.59663">
        <ele>1091.0142135557</ele>
        <time>2019-03-24T13:57:32Z</time>
      </trkpt>
      <trkpt lat="45.15348" lon="5.59669">
        <ele>1091.7861709373</ele>
        <time>2019-03-24T13:57:36Z</time>
      </trkpt>
      <trkpt lat="45.15356" lon="5.59673">
        <ele>1092.4961586192</ele>
        <time>2019-03-24T13:57:39Z</time>
      </trkpt>
      <trkpt lat="45.15368" lon="5.59678">
        <ele>1092.5377331938</ele>
        <time>2019-03-24T13:57:43Z</time>
      </trkpt>
      <trkpt lat="45.1538" lon="5.59686">
        <ele>1093.8954521286</ele>
        <time>2019-03-24T13:57:48Z</time>
      </trkpt>
      <trkpt lat="45.15391" lon="5.59691">
        <ele>1094.6984660186</ele>
        <time>2019-03-24T13:57:52Z</time>
      </trkpt>
      <trkpt lat="45.15403" lon="5.59697">
        <ele>1096.5311145244</ele>
        <time>2019-03-24T13:57:57Z</time>
      </trkpt>
      <trkpt lat="45.15412" lon="5.59698">
        <ele>1097.6040305846</ele>
        <time>2019-03-24T13:58:00Z</time>
      </trkpt>
      <trkpt lat="45.15423" lon="5.59695">
        <ele>1099.6484501241</ele>
        <time>2019-03-24T13:58:04Z</time>
      </trkpt>
      <trkpt lat="45.15431" lon="5.59689">
        <ele>1100.1316338759</ele>
        <time>2019-03-24T13:58:07Z</time>
      </trkpt>
      <trkpt lat="45.15444" lon="5.5968">
        <ele>1101.81707063</ele>
        <time>2019-03-24T13:58:11Z</time>
      </trkpt>
      <trkpt lat="45.15466" lon="5.59672">
        <ele>1106.5478009696</ele>
        <time>2019-03-24T13:58:16Z</time>
      </trkpt>
      <trkpt lat="45.15479" lon="5.5968">
        <ele>1105.6214994983</ele>
        <time>2019-03-24T13:58:19Z</time>
      </trkpt>
      <trkpt lat="45.15479" lon="5.59699">
        <ele>1107.5805954515</ele>
        <time>2019-03-24T13:58:24Z</time>
      </trkpt>
      <trkpt lat="45.15478" lon="5.5971">
        <ele>1108.7364819213</ele>
        <time>2019-03-24T13:58:27Z</time>
      </trkpt>
      <trkpt lat="45.15476" lon="5.59725">
        <ele>1110.3402293739</ele>
        <time>2019-03-24T13:58:31Z</time>
      </trkpt>
      <trkpt lat="45.15474" lon="5.5974">
        <ele>1111.7174445991</ele>
        <time>2019-03-24T13:58:35Z</time>
      </trkpt>
      <trkpt lat="45.15475" lon="5.59754">
        <ele>1114.6124636867</ele>
        <time>2019-03-24T13:58:39Z</time>
      </trkpt>
      <trkpt lat="45.15476" lon="5.59769">
        <ele>1118.6794676917</ele>
        <time>2019-03-24T13:58:43Z</time>
      </trkpt>
      <trkpt lat="45.15481" lon="5.59781">
        <ele>1120.8714119079</ele>
        <time>2019-03-24T13:58:47Z</time>
      </trkpt>
      <trkpt lat="45.15488" lon="5.5979">
        <ele>1122.6834297731</ele>
        <time>2019-03-24T13:58:52Z</time>
      </trkpt>
      <trkpt lat="45.15493" lon="5.59795">
        <ele>1125.51740899</ele>
        <time>2019-03-24T13:58:55Z</time>
      </trkpt>
      <trkpt lat="45.15499" lon="5.59803">
        <ele>1129.2581771986</ele>
        <time>2019-03-24T13:58:59Z</time>
      </trkpt>
      <trkpt lat="45.15508" lon="5.59813">
        <ele>1129.3972573692</ele>
        <time>2019-03-24T13:59:03Z</time>
      </trkpt>
      <trkpt lat="45.15519" lon="5.5982">
        <ele>1130.0379553044</ele>
        <time>2019-03-24T13:59:07Z</time>
      </trkpt>
      <trkpt lat="45.15531" lon="5.59818">
        <ele>1128.4718018365</ele>
        <time>2019-03-24T13:59:11Z</time>
      </trkpt>
      <trkpt lat="45.15531" lon="5.59803">
        <ele>1126.6955092836</ele>
        <time>2019-03-24T13:59:16Z</time>
      </trkpt>
      <trkpt lat="45.15527" lon="5.59791">
        <ele>1124.8002392166</ele>
        <time>2019-03-24T13:59:20Z</time>
      </trkpt>
      <trkpt lat="45.15522" lon="5.59777">
        <ele>1124.8958647835</ele>
        <time>2019-03-24T13:59:24Z</time>
      </trkpt>
      <trkpt lat="45.15519" lon="5.59762">
        <ele>1130.6820503427</ele>
        <time>2019-03-24T13:59:29Z</time>
      </trkpt>
      <trkpt lat="45.15518" lon="5.59745">
        <ele>1131.1038870568</ele>
        <time>2019-03-24T13:59:32Z</time>
      </trkpt>
      <trkpt lat="45.15521" lon="5.59723">
        <ele>1131.9048351698</ele>
        <time>2019-03-24T13:59:37Z</time>
      </trkpt>
      <trkpt lat="45.1553" lon="5.59715">
        <ele>1129.2374906348</ele>
        <time>2019-03-24T13:59:41Z</time>
      </trkpt>
      <trkpt lat="45.15535" lon="5.59727">
        <ele>1126.3603752548</ele>
        <time>2019-03-24T13:59:45Z</time>
      </trkpt>
      <trkpt lat="45.15539" lon="5.59745">
        <ele>1126.5492427032</ele>
        <time>2019-03-24T13:59:50Z</time>
      </trkpt>
      <trkpt lat="45.15546" lon="5.59756">
        <ele>1127.4523895669</ele>
        <time>2019-03-24T13:59:54Z</time>
      </trkpt>
      <trkpt lat="45.15556" lon="5.59763">
        <ele>1129.0652061313</ele>
        <time>2019-03-24T13:59:58Z</time>
      </trkpt>
      <trkpt lat="45.15566" lon="5.59767">
        <ele>1130.8663834823</ele>
        <time>2019-03-24T14:00:02Z</time>
      </trkpt>
      <trkpt lat="45.15573" lon="5.59769">
        <ele>1134.9936822158</ele>
        <time>2019-03-24T14:00:05Z</time>
      </trkpt>
      <trkpt lat="45.15587" lon="5.59773">
        <ele>1133.5674212082</ele>
        <time>2019-03-24T14:00:10Z</time>
      </trkpt>
      <trkpt lat="45.15594" lon="5.59775">
        <ele>1137.2960401957</ele>
        <time>2019-03-24T14:00:13Z</time>
      </trkpt>
      <trkpt lat="45.15611" lon="5.5977">
        <ele>1134.1003851032</ele>
        <time>2019-03-24T14:00:17Z</time>
      </trkpt>
      <trkpt lat="45.15618" lon="5.59762">
        <ele>1132.7851257744</ele>
        <time>2019-03-24T14:00:21Z</time>
      </trkpt>
      <trkpt lat="45.15627" lon="5.59752">
        <ele>1134.3085273105</ele>
        <time>2019-03-24T14:00:25Z</time>
      </trkpt>
      <trkpt lat="45.15635" lon="5.59747">
        <ele>1142.1438033278</ele>
        <time>2019-03-24T14:00:30Z</time>
      </trkpt>
      <trkpt lat="45.1564" lon="5.59746">
        <ele>1148.5159041312</ele>
        <time>2019-03-24T14:00:33Z</time>
      </trkpt>
      <trkpt lat="45.15652" lon="5.59745">
        <ele>1154.3201369552</ele>
        <time>2019-03-24T14:00:38Z</time>
      </trkpt>
      <trkpt lat="45.1566" lon="5.59745">
        <ele>1157.2858558066</ele>
        <time>2019-03-24T14:00:41Z</time>
      </trkpt>
      <trkpt lat="45.15669" lon="5.59748">
        <ele>1161.338015911</ele>
        <time>2019-03-24T14:00:45Z</time>
      </trkpt>
      <trkpt lat="45.1568" lon="5.59755">
        <ele>1161.7266521433</ele>
        <time>2019-03-24T14:00:49Z</time>
      </trkpt>
      <trkpt lat="45.15691" lon="5.59763">
        <ele>1162.1923273954</ele>
        <time>2019-03-24T14:00:53Z</time>
      </trkpt>
      <trkpt lat="45.15698" lon="5.59766">
        <ele>1162.3569224447</ele>
        <time>2019-03-24T14:00:56Z</time>
      </trkpt>
      <trkpt lat="45.15708" lon="5.59775">
        <ele>1164.0487499212</ele>
        <time>2019-03-24T14:01:01Z</time>
      </trkpt>
      <trkpt lat="45.15707" lon="5.59788">
        <ele>1165.2429884966</ele>
        <time>2019-03-24T14:01:06Z</time>
      </trkpt>
      <trkpt lat="45.15706" lon="5.59792">
        <ele>1164.7412790568</ele>
        <time>2019-03-24T14:01:09Z</time>
      </trkpt>
      <trkpt lat="45.15698" lon="5.59797">
        <ele>1160.0556598954</ele>
        <time>2019-03-24T14:01:13Z</time>
      </trkpt>
      <trkpt lat="45.15686" lon="5.59813">
        <ele>1158.0398385409</ele>
        <time>2019-03-24T14:01:17Z</time>
      </trkpt>
      <trkpt lat="45.15691" lon="5.59829">
        <ele>1157.436224287</ele>
        <time>2019-03-24T14:01:22Z</time>
      </trkpt>
      <trkpt lat="45.157" lon="5.59842">
        <ele>1157.8315994877</ele>
        <time>2019-03-24T14:01:27Z</time>
      </trkpt>
      <trkpt lat="45.15708" lon="5.59852">
        <ele>1157.8146491779</ele>
        <time>2019-03-24T14:01:32Z</time>
      </trkpt>
      <trkpt lat="45.15717" lon="5.59861">
        <ele>1158.0122716206</ele>
        <time>2019-03-24T14:01:36Z</time>
      </trkpt>
      <trkpt lat="45.15723" lon="5.59868">
        <ele>1158.2729443816</ele>
        <time>2019-03-24T14:01:39Z</time>
      </trkpt>
      <trkpt lat="45.15734" lon="5.5988">
        <ele>1159.2643381149</ele>
        <time>2019-03-24T14:01:44Z</time>
      </trkpt>
      <trkpt lat="45.15743" lon="5.59888">
        <ele>1160.4360060628</ele>
        <time>2019-03-24T14:01:48Z</time>
      </trkpt>
      <trkpt lat="45.15752" lon="5.59895">
        <ele>1162.1385500062</ele>
        <time>2019-03-24T14:01:52Z</time>
      </trkpt>
      <trkpt lat="45.15765" lon="5.59901">
        <ele>1164.646980461</ele>
        <time>2019-03-24T14:01:57Z</time>
      </trkpt>
      <trkpt lat="45.15773" lon="5.59905">
        <ele>1165.3165984721</ele>
        <time>2019-03-24T14:02:00Z</time>
      </trkpt>
      <trkpt lat="45.15787" lon="5.59911">
        <ele>1167.0972190748</ele>
        <time>2019-03-24T14:02:05Z</time>
      </trkpt>
      <trkpt lat="45.15795" lon="5.59916">
        <ele>1167.612133591</ele>
        <time>2019-03-24T14:02:08Z</time>
      </trkpt>
      <trkpt lat="45.15809" lon="5.59924">
        <ele>1169.3658485319</ele>
        <time>2019-03-24T14:02:13Z</time>
      </trkpt>
      <trkpt lat="45.1582" lon="5.5993">
        <ele>1170.7657930661</ele>
        <time>2019-03-24T14:02:17Z</time>
      </trkpt>
      <trkpt lat="45.15831" lon="5.59936">
        <ele>1172.1810162283</ele>
        <time>2019-03-24T14:02:21Z</time>
      </trkpt>
      <trkpt lat="45.15842" lon="5.59942">
        <ele>1172.7256319353</ele>
        <time>2019-03-24T14:02:25Z</time>
      </trkpt>
      <trkpt lat="45.15849" lon="5.59945">
        <ele>1174.1001935035</ele>
        <time>2019-03-24T14:02:28Z</time>
      </trkpt>
      <trkpt lat="45.15862" lon="5.5995">
        <ele>1175.1419350241</ele>
        <time>2019-03-24T14:02:33Z</time>
      </trkpt>
      <trkpt lat="45.15871" lon="5.59953">
        <ele>1177.1441057105</ele>
        <time>2019-03-24T14:02:37Z</time>
      </trkpt>
      <trkpt lat="45.15882" lon="5.59957">
        <ele>1179.0916366329</ele>
        <time>2019-03-24T14:02:41Z</time>
      </trkpt>
      <trkpt lat="45.15895" lon="5.5996">
        <ele>1179.5059137392</ele>
        <time>2019-03-24T14:02:46Z</time>
      </trkpt>
      <trkpt lat="45.15908" lon="5.59965">
        <ele>1179.7090791148</ele>
        <time>2019-03-24T14:02:51Z</time>
      </trkpt>
      <trkpt lat="45.15918" lon="5.59967">
        <ele>1180.3021842388</ele>
        <time>2019-03-24T14:02:55Z</time>
      </trkpt>
      <trkpt lat="45.15931" lon="5.5997">
        <ele>1180.4940070248</ele>
        <time>2019-03-24T14:03:00Z</time>
      </trkpt>
      <trkpt lat="45.15941" lon="5.59972">
        <ele>1181.5386358127</ele>
        <time>2019-03-24T14:03:04Z</time>
      </trkpt>
      <trkpt lat="45.15952" lon="5.59973">
        <ele>1183.299193837</ele>
        <time>2019-03-24T14:03:09Z</time>
      </trkpt>
      <trkpt lat="45.15964" lon="5.59975">
        <ele>1184.7591574701</ele>
        <time>2019-03-24T14:03:14Z</time>
      </trkpt>
      <trkpt lat="45.15976" lon="5.59978">
        <ele>1185.9415658876</ele>
        <time>2019-03-24T14:03:19Z</time>
      </trkpt>
      <trkpt lat="45.15985" lon="5.59983">
        <ele>1187.1139596224</ele>
        <time>2019-03-24T14:03:23Z</time>
      </trkpt>
      <trkpt lat="45.15993" lon="5.59992">
        <ele>1188.3633569076</ele>
        <time>2019-03-24T14:03:27Z</time>
      </trkpt>
      <trkpt lat="45.16003" lon="5.60003">
        <ele>1189.2616638268</ele>
        <time>2019-03-24T14:03:32Z</time>
      </trkpt>
      <trkpt lat="45.1601" lon="5.6001">
        <ele>1189.6989571282</ele>
        <time>2019-03-24T14:03:35Z</time>
      </trkpt>
      <trkpt lat="45.1602" lon="5.60017">
        <ele>1190.3395774428</ele>
        <time>2019-03-24T14:03:39Z</time>
      </trkpt>
      <trkpt lat="45.16028" lon="5.60019">
        <ele>1190.9802619639</ele>
        <time>2019-03-24T14:03:42Z</time>
      </trkpt>
      <trkpt lat="45.16039" lon="5.60017">
        <ele>1191.6364199118</ele>
        <time>2019-03-24T14:03:46Z</time>
      </trkpt>
      <trkpt lat="45.16048" lon="5.6001">
        <ele>1192.3829724771</ele>
        <time>2019-03-24T14:03:50Z</time>
      </trkpt>
      <trkpt lat="45.16057" lon="5.60002">
        <ele>1193.0470495934</ele>
        <time>2019-03-24T14:03:54Z</time>
      </trkpt>
      <trkpt lat="45.16068" lon="5.59992">
        <ele>1194.4788461372</ele>
        <time>2019-03-24T14:03:59Z</time>
      </trkpt>
      <trkpt lat="45.16075" lon="5.59984">
        <ele>1195.8207459378</ele>
        <time>2019-03-24T14:04:03Z</time>
      </trkpt>
      <trkpt lat="45.16082" lon="5.59973">
        <ele>1197.0308850454</ele>
        <time>2019-03-24T14:04:08Z</time>
      </trkpt>
      <trkpt lat="45.16086" lon="5.59963">
        <ele>1198.2374504921</ele>
        <time>2019-03-24T14:04:12Z</time>
      </trkpt>
      <trkpt lat="45.1609" lon="5.59953">
        <ele>1199.6084843788</ele>
        <time>2019-03-24T14:04:16Z</time>
      </trkpt>
      <trkpt lat="45.16093" lon="5.5994">
        <ele>1201.0720462637</ele>
        <time>2019-03-24T14:04:21Z</time>
      </trkpt>
      <trkpt lat="45.16096" lon="5.59929">
        <ele>1201.612540289</ele>
        <time>2019-03-24T14:04:25Z</time>
      </trkpt>
      <trkpt lat="45.16101" lon="5.59917">
        <ele>1202.6485221569</ele>
        <time>2019-03-24T14:04:30Z</time>
      </trkpt>
      <trkpt lat="45.16106" lon="5.59912">
        <ele>1203.3716636452</ele>
        <time>2019-03-24T14:04:33Z</time>
      </trkpt>
      <trkpt lat="45.16114" lon="5.59909">
        <ele>1204.5924766711</ele>
        <time>2019-03-24T14:04:37Z</time>
      </trkpt>
      <trkpt lat="45.1612" lon="5.59908">
        <ele>1205.6969025383</ele>
        <time>2019-03-24T14:04:40Z</time>
      </trkpt>
      <trkpt lat="45.1613" lon="5.59906">
        <ele>1206.426351243</ele>
        <time>2019-03-24T14:04:45Z</time>
      </trkpt>
      <trkpt lat="45.16139" lon="5.59902">
        <ele>1207.2614474607</ele>
        <time>2019-03-24T14:04:49Z</time>
      </trkpt>
      <trkpt lat="45.16148" lon="5.59897">
        <ele>1207.3369296581</ele>
        <time>2019-03-24T14:04:53Z</time>
      </trkpt>
      <trkpt lat="45.16156" lon="5.59892">
        <ele>1207.7255157645</ele>
        <time>2019-03-24T14:04:57Z</time>
      </trkpt>
      <trkpt lat="45.16166" lon="5.59885">
        <ele>1210.0124817049</ele>
        <time>2019-03-24T14:05:02Z</time>
      </trkpt>
      <trkpt lat="45.16172" lon="5.59876">
        <ele>1210.8921537167</ele>
        <time>2019-03-24T14:05:06Z</time>
      </trkpt>
      <trkpt lat="45.16172" lon="5.59861">
        <ele>1212.0935590616</ele>
        <time>2019-03-24T14:05:11Z</time>
      </trkpt>
      <trkpt lat="45.16169" lon="5.5985">
        <ele>1213.2351244888</ele>
        <time>2019-03-24T14:05:15Z</time>
      </trkpt>
      <trkpt lat="45.16166" lon="5.5984">
        <ele>1214.3620360948</ele>
        <time>2019-03-24T14:05:19Z</time>
      </trkpt>
      <trkpt lat="45.16165" lon="5.59831">
        <ele>1215.2965785278</ele>
        <time>2019-03-24T14:05:22Z</time>
      </trkpt>
      <trkpt lat="45.16166" lon="5.59819">
        <ele>1216.2536051762</ele>
        <time>2019-03-24T14:05:26Z</time>
      </trkpt>
      <trkpt lat="45.16167" lon="5.59807">
        <ele>1217.496621142</ele>
        <time>2019-03-24T14:05:30Z</time>
      </trkpt>
      <trkpt lat="45.16169" lon="5.59796">
        <ele>1218.7155093967</ele>
        <time>2019-03-24T14:05:34Z</time>
      </trkpt>
      <trkpt lat="45.16171" lon="5.59788">
        <ele>1219.5742048692</ele>
        <time>2019-03-24T14:05:37Z</time>
      </trkpt>
      <trkpt lat="45.16176" lon="5.59778">
        <ele>1221.0456065675</ele>
        <time>2019-03-24T14:05:41Z</time>
      </trkpt>
      <trkpt lat="45.16182" lon="5.59772">
        <ele>1222.5661199575</ele>
        <time>2019-03-24T14:05:45Z</time>
      </trkpt>
      <trkpt lat="45.16192" lon="5.59768">
        <ele>1224.2527056987</ele>
        <time>2019-03-24T14:05:50Z</time>
      </trkpt>
      <trkpt lat="45.16199" lon="5.59768">
        <ele>1224.9899030366</ele>
        <time>2019-03-24T14:05:53Z</time>
      </trkpt>
      <trkpt lat="45.16208" lon="5.59767">
        <ele>1226.1162063509</ele>
        <time>2019-03-24T14:05:57Z</time>
      </trkpt>
      <trkpt lat="45.16214" lon="5.59766">
        <ele>1226.9549692341</ele>
        <time>2019-03-24T14:06:00Z</time>
      </trkpt>
      <trkpt lat="45.16223" lon="5.59762">
        <ele>1227.9328831651</ele>
        <time>2019-03-24T14:06:04Z</time>
      </trkpt>
      <trkpt lat="45.16229" lon="5.59757">
        <ele>1228.582396482</ele>
        <time>2019-03-24T14:06:07Z</time>
      </trkpt>
      <trkpt lat="45.16239" lon="5.59746">
        <ele>1229.8209809683</ele>
        <time>2019-03-24T14:06:12Z</time>
      </trkpt>
      <trkpt lat="45.16244" lon="5.59739">
        <ele>1230.7042425579</ele>
        <time>2019-03-24T14:06:15Z</time>
      </trkpt>
      <trkpt lat="45.16249" lon="5.59733">
        <ele>1231.712564449</ele>
        <time>2019-03-24T14:06:18Z</time>
      </trkpt>
      <trkpt lat="45.16256" lon="5.59724">
        <ele>1232.9322901337</ele>
        <time>2019-03-24T14:06:22Z</time>
      </trkpt>
      <trkpt lat="45.16263" lon="5.59717">
        <ele>1234.2240478671</ele>
        <time>2019-03-24T14:06:26Z</time>
      </trkpt>
      <trkpt lat="45.16272" lon="5.5971">
        <ele>1234.5889603292</ele>
        <time>2019-03-24T14:06:30Z</time>
      </trkpt>
      <trkpt lat="45.16279" lon="5.59707">
        <ele>1235.8231705648</ele>
        <time>2019-03-24T14:06:34Z</time>
      </trkpt>
      <trkpt lat="45.16288" lon="5.59713">
        <ele>1235.3032815051</ele>
        <time>2019-03-24T14:06:38Z</time>
      </trkpt>
      <trkpt lat="45.16295" lon="5.59721">
        <ele>1236.4074030399</ele>
        <time>2019-03-24T14:06:42Z</time>
      </trkpt>
      <trkpt lat="45.16305" lon="5.59729">
        <ele>1238.4449599868</ele>
        <time>2019-03-24T14:06:47Z</time>
      </trkpt>
      <trkpt lat="45.16311" lon="5.59732">
        <ele>1239.8785545554</ele>
        <time>2019-03-24T14:06:50Z</time>
      </trkpt>
      <trkpt lat="45.16319" lon="5.59736">
        <ele>1240.8826016011</ele>
        <time>2019-03-24T14:06:54Z</time>
      </trkpt>
      <trkpt lat="45.16329" lon="5.5974">
        <ele>1242.9127849314</ele>
        <time>2019-03-24T14:06:59Z</time>
      </trkpt>
      <trkpt lat="45.16339" lon="5.59742">
        <ele>1244.6784566184</ele>
        <time>2019-03-24T14:07:04Z</time>
      </trkpt>
      <trkpt lat="45.16345" lon="5.59743">
        <ele>1245.768655039</ele>
        <time>2019-03-24T14:07:07Z</time>
      </trkpt>
      <trkpt lat="45.16353" lon="5.59745">
        <ele>1247.5860356081</ele>
        <time>2019-03-24T14:07:11Z</time>
      </trkpt>
      <trkpt lat="45.16361" lon="5.59748">
        <ele>1248.676036535</ele>
        <time>2019-03-24T14:07:15Z</time>
      </trkpt>
      <trkpt lat="45.1637" lon="5.59745">
        <ele>1249.8720700697</ele>
        <time>2019-03-24T14:07:19Z</time>
      </trkpt>
      <trkpt lat="45.16379" lon="5.59742">
        <ele>1251.1061837525</ele>
        <time>2019-03-24T14:07:23Z</time>
      </trkpt>
      <trkpt lat="45.16384" lon="5.59733">
        <ele>1252.3104672967</ele>
        <time>2019-03-24T14:07:27Z</time>
      </trkpt>
      <trkpt lat="45.16387" lon="5.59721">
        <ele>1253.4783951023</ele>
        <time>2019-03-24T14:07:31Z</time>
      </trkpt>
      <trkpt lat="45.16389" lon="5.59703">
        <ele>1254.0034938424</ele>
        <time>2019-03-24T14:07:36Z</time>
      </trkpt>
      <trkpt lat="45.16392" lon="5.59691">
        <ele>1253.0674916883</ele>
        <time>2019-03-24T14:07:39Z</time>
      </trkpt>
      <trkpt lat="45.16403" lon="5.59655">
        <ele>1252.4117237266</ele>
        <time>2019-03-24T14:07:44Z</time>
      </trkpt>
      <trkpt lat="45.16413" lon="5.59648">
        <ele>1255.2041876382</ele>
        <time>2019-03-24T14:07:47Z</time>
      </trkpt>
      <trkpt lat="45.16419" lon="5.59663">
        <ele>1257.9631650588</ele>
        <time>2019-03-24T14:07:51Z</time>
      </trkpt>
      <trkpt lat="45.16419" lon="5.59678">
        <ele>1260.0682028057</ele>
        <time>2019-03-24T14:07:55Z</time>
      </trkpt>
      <trkpt lat="45.1642" lon="5.59694">
        <ele>1261.3269768391</ele>
        <time>2019-03-24T14:08:00Z</time>
      </trkpt>
      <trkpt lat="45.16428" lon="5.5972">
        <ele>1260.2585470101</ele>
        <time>2019-03-24T14:08:05Z</time>
      </trkpt>
      <trkpt lat="45.16438" lon="5.59747">
        <ele>1260.1162912093</ele>
        <time>2019-03-24T14:08:10Z</time>
      </trkpt>
      <trkpt lat="45.16444" lon="5.5976">
        <ele>1259.8757264725</ele>
        <time>2019-03-24T14:08:14Z</time>
      </trkpt>
      <trkpt lat="45.16453" lon="5.59775">
        <ele>1259.666417966</ele>
        <time>2019-03-24T14:08:18Z</time>
      </trkpt>
      <trkpt lat="45.16464" lon="5.59792">
        <ele>1259.3235569665</ele>
        <time>2019-03-24T14:08:22Z</time>
      </trkpt>
      <trkpt lat="45.16476" lon="5.59804">
        <ele>1259.0329801929</ele>
        <time>2019-03-24T14:08:26Z</time>
      </trkpt>
      <trkpt lat="45.16495" lon="5.59815">
        <ele>1258.8851664925</ele>
        <time>2019-03-24T14:08:31Z</time>
      </trkpt>
      <trkpt lat="45.16512" lon="5.59823">
        <ele>1258.6504203837</ele>
        <time>2019-03-24T14:08:35Z</time>
      </trkpt>
      <trkpt lat="45.16531" lon="5.59832">
        <ele>1258.3842228781</ele>
        <time>2019-03-24T14:08:39Z</time>
      </trkpt>
      <trkpt lat="45.1655" lon="5.59842">
        <ele>1260.356256929</ele>
        <time>2019-03-24T14:08:44Z</time>
      </trkpt>
      <trkpt lat="45.16562" lon="5.59847">
        <ele>1261.1006706994</ele>
        <time>2019-03-24T14:08:48Z</time>
      </trkpt>
      <trkpt lat="45.16574" lon="5.59849">
        <ele>1261.8974540436</ele>
        <time>2019-03-24T14:08:52Z</time>
      </trkpt>
      <trkpt lat="45.16589" lon="5.5985">
        <ele>1263.9584480035</ele>
        <time>2019-03-24T14:08:57Z</time>
      </trkpt>
      <trkpt lat="45.16603" lon="5.5985">
        <ele>1264.8654734952</ele>
        <time>2019-03-24T14:09:01Z</time>
      </trkpt>
      <trkpt lat="45.16616" lon="5.59848">
        <ele>1264.5382379253</ele>
        <time>2019-03-24T14:09:05Z</time>
      </trkpt>
      <trkpt lat="45.16641" lon="5.59843">
        <ele>1266.2342112708</ele>
        <time>2019-03-24T14:09:10Z</time>
      </trkpt>
      <trkpt lat="45.1666" lon="5.59831">
        <ele>1265.3454115298</ele>
        <time>2019-03-24T14:09:13Z</time>
      </trkpt>
      <trkpt lat="45.16679" lon="5.59828">
        <ele>1269.7846408765</ele>
        <time>2019-03-24T14:09:16Z</time>
      </trkpt>
      <trkpt lat="45.16699" lon="5.59864">
        <ele>1264.8896105732</ele>
        <time>2019-03-24T14:09:20Z</time>
      </trkpt>
      <trkpt lat="45.16716" lon="5.59888">
        <ele>1263.0537558457</ele>
        <time>2019-03-24T14:09:23Z</time>
      </trkpt>
      <trkpt lat="45.16739" lon="5.59903">
        <ele>1257.8770662696</ele>
        <time>2019-03-24T14:09:26Z</time>
      </trkpt>
      <trkpt lat="45.16773" lon="5.59923">
        <ele>1252.2669070717</ele>
        <time>2019-03-24T14:09:30Z</time>
      </trkpt>
      <trkpt lat="45.16809" lon="5.59939">
        <ele>1246.0413026979</ele>
        <time>2019-03-24T14:09:34Z</time>
      </trkpt>
      <trkpt lat="45.16844" lon="5.59931">
        <ele>1241.1380909937</ele>
        <time>2019-03-24T14:09:38Z</time>
      </trkpt>
      <trkpt lat="45.16881" lon="5.59911">
        <ele>1234.7344964568</ele>
        <time>2019-03-24T14:09:43Z</time>
      </trkpt>
      <trkpt lat="45.16882" lon="5.59938">
        <ele>1232.5437389038</ele>
        <time>2019-03-24T14:09:48Z</time>
      </trkpt>
      <trkpt lat="45.16865" lon="5.59972">
        <ele>1233.1332579119</ele>
        <time>2019-03-24T14:09:53Z</time>
      </trkpt>
      <trkpt lat="45.16858" lon="5.59994">
        <ele>1233.9962278997</ele>
        <time>2019-03-24T14:09:57Z</time>
      </trkpt>
      <trkpt lat="45.16855" lon="5.60006">
        <ele>1236.3595853386</ele>
        <time>2019-03-24T14:10:02Z</time>
      </trkpt>
      <trkpt lat="45.16853" lon="5.60015">
        <ele>1237.7234250928</ele>
        <time>2019-03-24T14:10:06Z</time>
      </trkpt>
      <trkpt lat="45.16851" lon="5.60024">
        <ele>1239.1068060986</ele>
        <time>2019-03-24T14:10:10Z</time>
      </trkpt>
      <trkpt lat="45.16848" lon="5.60035">
        <ele>1240.2924012972</ele>
        <time>2019-03-24T14:10:14Z</time>
      </trkpt>
      <trkpt lat="45.16845" lon="5.60043">
        <ele>1240.963170042</ele>
        <time>2019-03-24T14:10:17Z</time>
      </trkpt>
      <trkpt lat="45.16838" lon="5.60057">
        <ele>1242.2806150638</ele>
        <time>2019-03-24T14:10:22Z</time>
      </trkpt>
      <trkpt lat="45.16832" lon="5.60067">
        <ele>1242.0738351517</ele>
        <time>2019-03-24T14:10:26Z</time>
      </trkpt>
      <trkpt lat="45.16823" lon="5.60079">
        <ele>1242.2274648278</ele>
        <time>2019-03-24T14:10:31Z</time>
      </trkpt>
      <trkpt lat="45.16816" lon="5.60089">
        <ele>1241.9281526195</ele>
        <time>2019-03-24T14:10:35Z</time>
      </trkpt>
      <trkpt lat="45.16819" lon="5.60104">
        <ele>1242.0882237816</ele>
        <time>2019-03-24T14:10:40Z</time>
      </trkpt>
      <trkpt lat="45.16826" lon="5.60114">
        <ele>1242.3605475472</ele>
        <time>2019-03-24T14:10:44Z</time>
      </trkpt>
      <trkpt lat="45.16834" lon="5.60126">
        <ele>1242.0392692347</ele>
        <time>2019-03-24T14:10:48Z</time>
      </trkpt>
      <trkpt lat="45.16843" lon="5.60134">
        <ele>1243.2176559239</ele>
        <time>2019-03-24T14:10:52Z</time>
      </trkpt>
      <trkpt lat="45.16849" lon="5.60139">
        <ele>1243.8991679714</ele>
        <time>2019-03-24T14:10:55Z</time>
      </trkpt>
      <trkpt lat="45.1686" lon="5.60147">
        <ele>1244.8110979703</ele>
        <time>2019-03-24T14:11:00Z</time>
      </trkpt>
      <trkpt lat="45.16868" lon="5.60151">
        <ele>1245.5973711206</ele>
        <time>2019-03-24T14:11:04Z</time>
      </trkpt>
      <trkpt lat="45.16878" lon="5.60153">
        <ele>1246.1349820923</ele>
        <time>2019-03-24T14:11:08Z</time>
      </trkpt>
      <trkpt lat="45.16888" lon="5.60152">
        <ele>1246.2774145433</ele>
        <time>2019-03-24T14:11:12Z</time>
      </trkpt>
      <trkpt lat="45.16899" lon="5.60151">
        <ele>1248.1672087315</ele>
        <time>2019-03-24T14:11:17Z</time>
      </trkpt>
      <trkpt lat="45.16911" lon="5.60151">
        <ele>1249.392375582</ele>
        <time>2019-03-24T14:11:22Z</time>
      </trkpt>
      <trkpt lat="45.16921" lon="5.60152">
        <ele>1250.3027885323</ele>
        <time>2019-03-24T14:11:26Z</time>
      </trkpt>
      <trkpt lat="45.1693" lon="5.60154">
        <ele>1251.0772361596</ele>
        <time>2019-03-24T14:11:30Z</time>
      </trkpt>
      <trkpt lat="45.16938" lon="5.60156">
        <ele>1251.9454118357</ele>
        <time>2019-03-24T14:11:34Z</time>
      </trkpt>
      <trkpt lat="45.1695" lon="5.60165">
        <ele>1251.802630351</ele>
        <time>2019-03-24T14:11:39Z</time>
      </trkpt>
      <trkpt lat="45.1696" lon="5.60172">
        <ele>1251.6698142894</ele>
        <time>2019-03-24T14:11:43Z</time>
      </trkpt>
      <trkpt lat="45.16969" lon="5.60183">
        <ele>1251.5557087494</ele>
        <time>2019-03-24T14:11:47Z</time>
      </trkpt>
      <trkpt lat="45.16979" lon="5.60195">
        <ele>1250.8195357464</ele>
        <time>2019-03-24T14:11:52Z</time>
      </trkpt>
      <trkpt lat="45.16982" lon="5.602">
        <ele>1248.8938439038</ele>
        <time>2019-03-24T14:12:06Z</time>
      </trkpt>
      <trkpt lat="45.16982" lon="5.60202">
        <ele>1249.5066698492</ele>
        <time>2019-03-24T14:13:23Z</time>
      </trkpt>
      <trkpt lat="45.16991" lon="5.6023">
        <ele>1244.7818830657</ele>
        <time>2019-03-24T14:13:28Z</time>
      </trkpt>
      <trkpt lat="45.17005" lon="5.60261">
        <ele>1240.6967553529</ele>
        <time>2019-03-24T14:13:33Z</time>
      </trkpt>
      <trkpt lat="45.17014" lon="5.60288">
        <ele>1235.9065325345</ele>
        <time>2019-03-24T14:13:37Z</time>
      </trkpt>
      <trkpt lat="45.17015" lon="5.60321">
        <ele>1232.1159736785</ele>
        <time>2019-03-24T14:13:42Z</time>
      </trkpt>
      <trkpt lat="45.17018" lon="5.60342">
        <ele>1230.4105348618</ele>
        <time>2019-03-24T14:13:45Z</time>
      </trkpt>
      <trkpt lat="45.17024" lon="5.60362">
        <ele>1229.3725242113</ele>
        <time>2019-03-24T14:13:48Z</time>
      </trkpt>
      <trkpt lat="45.17034" lon="5.60382">
        <ele>1227.834235794</ele>
        <time>2019-03-24T14:13:51Z</time>
      </trkpt>
      <trkpt lat="45.17042" lon="5.60404">
        <ele>1227.5763129225</ele>
        <time>2019-03-24T14:13:55Z</time>
      </trkpt>
      <trkpt lat="45.17064" lon="5.60424">
        <ele>1226.8848318861</ele>
        <time>2019-03-24T14:14:00Z</time>
      </trkpt>
      <trkpt lat="45.17081" lon="5.60443">
        <ele>1223.8100393078</ele>
        <time>2019-03-24T14:14:04Z</time>
      </trkpt>
      <trkpt lat="45.17098" lon="5.60465">
        <ele>1222.2910819109</ele>
        <time>2019-03-24T14:14:08Z</time>
      </trkpt>
      <trkpt lat="45.17117" lon="5.60478">
        <ele>1218.8616459881</ele>
        <time>2019-03-24T14:14:13Z</time>
      </trkpt>
      <trkpt lat="45.17137" lon="5.60488">
        <ele>1216.0665195802</ele>
        <time>2019-03-24T14:14:18Z</time>
      </trkpt>
      <trkpt lat="45.17161" lon="5.60496">
        <ele>1211.4638535364</ele>
        <time>2019-03-24T14:14:22Z</time>
      </trkpt>
      <trkpt lat="45.17177" lon="5.60492">
        <ele>1209.850134457</ele>
        <time>2019-03-24T14:14:27Z</time>
      </trkpt>
      <trkpt lat="45.1719" lon="5.60485">
        <ele>1208.8032286938</ele>
        <time>2019-03-24T14:14:30Z</time>
      </trkpt>
      <trkpt lat="45.17203" lon="5.60472">
        <ele>1206.3768255969</ele>
        <time>2019-03-24T14:14:34Z</time>
      </trkpt>
      <trkpt lat="45.17223" lon="5.60471">
        <ele>1201.1407569169</ele>
        <time>2019-03-24T14:14:38Z</time>
      </trkpt>
      <trkpt lat="45.17245" lon="5.60469">
        <ele>1195.7384844945</ele>
        <time>2019-03-24T14:14:42Z</time>
      </trkpt>
      <trkpt lat="45.17252" lon="5.6047">
        <ele>1194.1084965836</ele>
        <time>2019-03-24T14:14:45Z</time>
      </trkpt>
      <trkpt lat="45.1727" lon="5.60475">
        <ele>1189.3404594419</ele>
        <time>2019-03-24T14:14:49Z</time>
      </trkpt>
      <trkpt lat="45.17303" lon="5.60478">
        <ele>1184.5308670416</ele>
        <time>2019-03-24T14:14:54Z</time>
      </trkpt>
      <trkpt lat="45.1733" lon="5.60477">
        <ele>1179.099218008</ele>
        <time>2019-03-24T14:14:58Z</time>
      </trkpt>
      <trkpt lat="45.17359" lon="5.60494">
        <ele>1174.3281799234</ele>
        <time>2019-03-24T14:15:03Z</time>
      </trkpt>
      <trkpt lat="45.17374" lon="5.6052">
        <ele>1170.5646072061</ele>
        <time>2019-03-24T14:15:07Z</time>
      </trkpt>
      <trkpt lat="45.17379" lon="5.60562">
        <ele>1156.5072257103</ele>
        <time>2019-03-24T14:15:12Z</time>
      </trkpt>
      <trkpt lat="45.17384" lon="5.60592">
        <ele>1146.2595197167</ele>
        <time>2019-03-24T14:15:16Z</time>
      </trkpt>
      <trkpt lat="45.17387" lon="5.60607">
        <ele>1140.5598358083</ele>
        <time>2019-03-24T14:15:20Z</time>
      </trkpt>
      <trkpt lat="45.17387" lon="5.60631">
        <ele>1131.6813202053</ele>
        <time>2019-03-24T14:15:25Z</time>
      </trkpt>
      <trkpt lat="45.17389" lon="5.60655">
        <ele>1126.6035844751</ele>
        <time>2019-03-24T14:15:29Z</time>
      </trkpt>
      <trkpt lat="45.17397" lon="5.60668">
        <ele>1123.3911178183</ele>
        <time>2019-03-24T14:15:33Z</time>
      </trkpt>
      <trkpt lat="45.17402" lon="5.60682">
        <ele>1120.2434806924</ele>
        <time>2019-03-24T14:15:37Z</time>
      </trkpt>
      <trkpt lat="45.17409" lon="5.60702">
        <ele>1117.2917419936</ele>
        <time>2019-03-24T14:15:41Z</time>
      </trkpt>
      <trkpt lat="45.17414" lon="5.60716">
        <ele>1115.035593837</ele>
        <time>2019-03-24T14:15:45Z</time>
      </trkpt>
      <trkpt lat="45.1742" lon="5.60736">
        <ele>1114.2447732495</ele>
        <time>2019-03-24T14:15:49Z</time>
      </trkpt>
      <trkpt lat="45.17423" lon="5.60754">
        <ele>1111.2863718943</ele>
        <time>2019-03-24T14:15:53Z</time>
      </trkpt>
      <trkpt lat="45.17429" lon="5.6077">
        <ele>1108.5090369114</ele>
        <time>2019-03-24T14:15:56Z</time>
      </trkpt>
      <trkpt lat="45.17434" lon="5.60783">
        <ele>1103.5297099613</ele>
        <time>2019-03-24T14:16:00Z</time>
      </trkpt>
      <trkpt lat="45.17437" lon="5.60797">
        <ele>1099.8089486787</ele>
        <time>2019-03-24T14:16:04Z</time>
      </trkpt>
      <trkpt lat="45.1744" lon="5.60806">
        <ele>1098.5688131659</ele>
        <time>2019-03-24T14:16:07Z</time>
      </trkpt>
      <trkpt lat="45.17442" lon="5.60807">
        <ele>1098.6641814296</ele>
        <time>2019-03-24T14:16:16Z</time>
      </trkpt>
      <trkpt lat="45.17445" lon="5.60819">
        <ele>1095.2915366244</ele>
        <time>2019-03-24T14:16:20Z</time>
      </trkpt>
      <trkpt lat="45.17449" lon="5.60837">
        <ele>1091.7992505633</ele>
        <time>2019-03-24T14:16:24Z</time>
      </trkpt>
      <trkpt lat="45.17456" lon="5.60861">
        <ele>1085.7257988927</ele>
        <time>2019-03-24T14:16:28Z</time>
      </trkpt>
      <trkpt lat="45.17461" lon="5.60886">
        <ele>1078.423272411</ele>
        <time>2019-03-24T14:16:33Z</time>
      </trkpt>
      <trkpt lat="45.17464" lon="5.60902">
        <ele>1073.2260507973</ele>
        <time>2019-03-24T14:16:37Z</time>
      </trkpt>
      <trkpt lat="45.17468" lon="5.60918">
        <ele>1069.715215411</ele>
        <time>2019-03-24T14:16:41Z</time>
      </trkpt>
      <trkpt lat="45.17474" lon="5.60933">
        <ele>1066.6739558357</ele>
        <time>2019-03-24T14:16:45Z</time>
      </trkpt>
      <trkpt lat="45.17484" lon="5.60961">
        <ele>1062.9045552364</ele>
        <time>2019-03-24T14:16:49Z</time>
      </trkpt>
      <trkpt lat="45.17492" lon="5.60982">
        <ele>1058.1102839667</ele>
        <time>2019-03-24T14:16:53Z</time>
      </trkpt>
      <trkpt lat="45.17504" lon="5.61007">
        <ele>1054.9622747695</ele>
        <time>2019-03-24T14:16:57Z</time>
      </trkpt>
      <trkpt lat="45.17521" lon="5.61042">
        <ele>1049.1740627482</ele>
        <time>2019-03-24T14:17:02Z</time>
      </trkpt>
      <trkpt lat="45.17525" lon="5.61071">
        <ele>1043.2370084162</ele>
        <time>2019-03-24T14:17:06Z</time>
      </trkpt>
      <trkpt lat="45.17526" lon="5.61099">
        <ele>1036.119364705</ele>
        <time>2019-03-24T14:17:10Z</time>
      </trkpt>
      <trkpt lat="45.17527" lon="5.61123">
        <ele>1030.4086820584</ele>
        <time>2019-03-24T14:17:14Z</time>
      </trkpt>
      <trkpt lat="45.17522" lon="5.61153">
        <ele>1023.1742592457</ele>
        <time>2019-03-24T14:17:19Z</time>
      </trkpt>
      <trkpt lat="45.17518" lon="5.61174">
        <ele>1020.1232273599</ele>
        <time>2019-03-24T14:17:23Z</time>
      </trkpt>
      <trkpt lat="45.1751" lon="5.61197">
        <ele>1015.0316912152</ele>
        <time>2019-03-24T14:17:27Z</time>
      </trkpt>
      <trkpt lat="45.17506" lon="5.61214">
        <ele>1012.3112616905</ele>
        <time>2019-03-24T14:17:31Z</time>
      </trkpt>
      <trkpt lat="45.17505" lon="5.61236">
        <ele>1006.5496676971</ele>
        <time>2019-03-24T14:17:36Z</time>
      </trkpt>
      <trkpt lat="45.17507" lon="5.61247">
        <ele>1003.1288360334</ele>
        <time>2019-03-24T14:17:41Z</time>
      </trkpt>
      <trkpt lat="45.17493" lon="5.61271">
        <ele>996.68121567341</ele>
        <time>2019-03-24T14:17:46Z</time>
      </trkpt>
      <trkpt lat="45.17481" lon="5.61286">
        <ele>994.44420616421</ele>
        <time>2019-03-24T14:17:50Z</time>
      </trkpt>
      <trkpt lat="45.1748" lon="5.613">
        <ele>989.34518190688</ele>
        <time>2019-03-24T14:17:55Z</time>
      </trkpt>
      <trkpt lat="45.17486" lon="5.61309">
        <ele>986.84965142263</ele>
        <time>2019-03-24T14:17:58Z</time>
      </trkpt>
      <trkpt lat="45.17493" lon="5.61321">
        <ele>982.5625961183</ele>
        <time>2019-03-24T14:18:02Z</time>
      </trkpt>
      <trkpt lat="45.17499" lon="5.61337">
        <ele>979.50168932107</ele>
        <time>2019-03-24T14:18:06Z</time>
      </trkpt>
      <trkpt lat="45.17512" lon="5.61334">
        <ele>980.42067753976</ele>
        <time>2019-03-24T14:18:10Z</time>
      </trkpt>
      <trkpt lat="45.17528" lon="5.6131">
        <ele>977.22454860188</ele>
        <time>2019-03-24T14:18:14Z</time>
      </trkpt>
      <trkpt lat="45.1755" lon="5.61275">
        <ele>973.65594219684</ele>
        <time>2019-03-24T14:18:19Z</time>
      </trkpt>
      <trkpt lat="45.17569" lon="5.61242">
        <ele>969.05317241013</ele>
        <time>2019-03-24T14:18:23Z</time>
      </trkpt>
      <trkpt lat="45.17579" lon="5.61205">
        <ele>963.45282580041</ele>
        <time>2019-03-24T14:18:27Z</time>
      </trkpt>
      <trkpt lat="45.17581" lon="5.61151">
        <ele>955.38289824591</ele>
        <time>2019-03-24T14:18:32Z</time>
      </trkpt>
      <trkpt lat="45.17589" lon="5.61097">
        <ele>949.80461971874</ele>
        <time>2019-03-24T14:18:37Z</time>
      </trkpt>
      <trkpt lat="45.17609" lon="5.61059">
        <ele>949.58394067369</ele>
        <time>2019-03-24T14:18:41Z</time>
      </trkpt>
      <trkpt lat="45.17635" lon="5.61036">
        <ele>948.7070748205</ele>
        <time>2019-03-24T14:18:46Z</time>
      </trkpt>
      <trkpt lat="45.17647" lon="5.61033">
        <ele>952.10380771504</ele>
        <time>2019-03-24T14:18:50Z</time>
      </trkpt>
      <trkpt lat="45.17651" lon="5.61061">
        <ele>952.52172156397</ele>
        <time>2019-03-24T14:18:54Z</time>
      </trkpt>
      <trkpt lat="45.17656" lon="5.61099">
        <ele>951.50742096477</ele>
        <time>2019-03-24T14:18:59Z</time>
      </trkpt>
      <trkpt lat="45.17663" lon="5.61131">
        <ele>949.71786941902</ele>
        <time>2019-03-24T14:19:03Z</time>
      </trkpt>
      <trkpt lat="45.17669" lon="5.61166">
        <ele>946.96919060937</ele>
        <time>2019-03-24T14:19:07Z</time>
      </trkpt>
      <trkpt lat="45.17673" lon="5.61191">
        <ele>945.52886316288</ele>
        <time>2019-03-24T14:19:10Z</time>
      </trkpt>
      <trkpt lat="45.17679" lon="5.61227">
        <ele>944.68640445015</ele>
        <time>2019-03-24T14:19:14Z</time>
      </trkpt>
      <trkpt lat="45.17682" lon="5.61261">
        <ele>944.3955010604</ele>
        <time>2019-03-24T14:19:18Z</time>
      </trkpt>
      <trkpt lat="45.17692" lon="5.61292">
        <ele>943.53007361249</ele>
        <time>2019-03-24T14:19:22Z</time>
      </trkpt>
      <trkpt lat="45.17702" lon="5.61325">
        <ele>942.15844584293</ele>
        <time>2019-03-24T14:19:26Z</time>
      </trkpt>
      <trkpt lat="45.17708" lon="5.6135">
        <ele>941.55767745148</ele>
        <time>2019-03-24T14:19:29Z</time>
      </trkpt>
      <trkpt lat="45.17716" lon="5.61393">
        <ele>939.97371633556</ele>
        <time>2019-03-24T14:19:34Z</time>
      </trkpt>
      <trkpt lat="45.17719" lon="5.6142">
        <ele>939.08115628925</ele>
        <time>2019-03-24T14:19:37Z</time>
      </trkpt>
      <trkpt lat="45.17723" lon="5.61456">
        <ele>938.99495038325</ele>
        <time>2019-03-24T14:19:41Z</time>
      </trkpt>
      <trkpt lat="45.17737" lon="5.6148">
        <ele>939.9370335869</ele>
        <time>2019-03-24T14:19:45Z</time>
      </trkpt>
      <trkpt lat="45.17748" lon="5.61491">
        <ele>940.95952883184</ele>
        <time>2019-03-24T14:19:49Z</time>
      </trkpt>
      <trkpt lat="45.17759" lon="5.61505">
        <ele>942.80010879307</ele>
        <time>2019-03-24T14:19:54Z</time>
      </trkpt>
      <trkpt lat="45.17768" lon="5.61517">
        <ele>943.96422856556</ele>
        <time>2019-03-24T14:19:58Z</time>
      </trkpt>
      <trkpt lat="45.17778" lon="5.61529">
        <ele>944.66713398551</ele>
        <time>2019-03-24T14:20:02Z</time>
      </trkpt>
      <trkpt lat="45.17791" lon="5.61545">
        <ele>944.25848728154</ele>
        <time>2019-03-24T14:20:06Z</time>
      </trkpt>
      <trkpt lat="45.17806" lon="5.6156">
        <ele>943.25159113194</ele>
        <time>2019-03-24T14:20:10Z</time>
      </trkpt>
      <trkpt lat="45.1782" lon="5.61566">
        <ele>942.80840990196</ele>
        <time>2019-03-24T14:20:13Z</time>
      </trkpt>
      <trkpt lat="45.17847" lon="5.6157">
        <ele>941.252535187</ele>
        <time>2019-03-24T14:20:18Z</time>
      </trkpt>
      <trkpt lat="45.17864" lon="5.61575">
        <ele>941.05304700444</ele>
        <time>2019-03-24T14:20:21Z</time>
      </trkpt>
      <trkpt lat="45.17879" lon="5.61587">
        <ele>940.8175535976</ele>
        <time>2019-03-24T14:20:24Z</time>
      </trkpt>
      <trkpt lat="45.17898" lon="5.61601">
        <ele>940.6986777148</ele>
        <time>2019-03-24T14:20:28Z</time>
      </trkpt>
      <trkpt lat="45.17918" lon="5.61612">
        <ele>941.19816828595</ele>
        <time>2019-03-24T14:20:32Z</time>
      </trkpt>
      <trkpt lat="45.17943" lon="5.61617">
        <ele>943.79596242613</ele>
        <time>2019-03-24T14:20:37Z</time>
      </trkpt>
      <trkpt lat="45.17968" lon="5.61632">
        <ele>943.35625022771</ele>
        <time>2019-03-24T14:20:42Z</time>
      </trkpt>
      <trkpt lat="45.17985" lon="5.61642">
        <ele>941.0670228471</ele>
        <time>2019-03-24T14:20:45Z</time>
      </trkpt>
      <trkpt lat="45.18016" lon="5.61656">
        <ele>938.42425532176</ele>
        <time>2019-03-24T14:20:49Z</time>
      </trkpt>
      <trkpt lat="45.18049" lon="5.61667">
        <ele>934.71791897319</ele>
        <time>2019-03-24T14:20:53Z</time>
      </trkpt>
      <trkpt lat="45.18081" lon="5.61678">
        <ele>932.6907999393</ele>
        <time>2019-03-24T14:20:57Z</time>
      </trkpt>
      <trkpt lat="45.18111" lon="5.61686">
        <ele>931.26254109461</ele>
        <time>2019-03-24T14:21:01Z</time>
      </trkpt>
      <trkpt lat="45.18143" lon="5.61695">
        <ele>930.15009100311</ele>
        <time>2019-03-24T14:21:06Z</time>
      </trkpt>
      <trkpt lat="45.18167" lon="5.61702">
        <ele>929.33214350475</ele>
        <time>2019-03-24T14:21:10Z</time>
      </trkpt>
      <trkpt lat="45.18188" lon="5.61705">
        <ele>929.53131615894</ele>
        <time>2019-03-24T14:21:14Z</time>
      </trkpt>
      <trkpt lat="45.18209" lon="5.6171">
        <ele>928.88593022317</ele>
        <time>2019-03-24T14:21:18Z</time>
      </trkpt>
      <trkpt lat="45.18233" lon="5.61727">
        <ele>925.3211978316</ele>
        <time>2019-03-24T14:21:22Z</time>
      </trkpt>
      <trkpt lat="45.18261" lon="5.61765">
        <ele>921.96845160165</ele>
        <time>2019-03-24T14:21:27Z</time>
      </trkpt>
      <trkpt lat="45.18281" lon="5.61786">
        <ele>920.61189266592</ele>
        <time>2019-03-24T14:21:31Z</time>
      </trkpt>
      <trkpt lat="45.18303" lon="5.61811">
        <ele>918.75000596804</ele>
        <time>2019-03-24T14:21:36Z</time>
      </trkpt>
      <trkpt lat="45.18325" lon="5.61821">
        <ele>918.61670657588</ele>
        <time>2019-03-24T14:21:41Z</time>
      </trkpt>
      <trkpt lat="45.18342" lon="5.61828">
        <ele>919.14641240411</ele>
        <time>2019-03-24T14:21:45Z</time>
      </trkpt>
      <trkpt lat="45.18353" lon="5.61834">
        <ele>919.16073808011</ele>
        <time>2019-03-24T14:21:48Z</time>
      </trkpt>
      <trkpt lat="45.1837" lon="5.61846">
        <ele>918.57938558024</ele>
        <time>2019-03-24T14:21:52Z</time>
      </trkpt>
      <trkpt lat="45.18394" lon="5.61863">
        <ele>917.35007853358</ele>
        <time>2019-03-24T14:21:57Z</time>
      </trkpt>
      <trkpt lat="45.18417" lon="5.61876">
        <ele>915.90772344285</ele>
        <time>2019-03-24T14:22:01Z</time>
      </trkpt>
      <trkpt lat="45.18443" lon="5.61881">
        <ele>914.86965513332</ele>
        <time>2019-03-24T14:22:05Z</time>
      </trkpt>
      <trkpt lat="45.18472" lon="5.61873">
        <ele>915.79534163151</ele>
        <time>2019-03-24T14:22:10Z</time>
      </trkpt>
      <trkpt lat="45.18485" lon="5.6186">
        <ele>915.81596165736</ele>
        <time>2019-03-24T14:22:13Z</time>
      </trkpt>
      <trkpt lat="45.18495" lon="5.61843">
        <ele>916.33945750628</ele>
        <time>2019-03-24T14:22:16Z</time>
      </trkpt>
      <trkpt lat="45.18506" lon="5.61818">
        <ele>915.72182333268</ele>
        <time>2019-03-24T14:22:20Z</time>
      </trkpt>
      <trkpt lat="45.18514" lon="5.61798">
        <ele>915.27632697274</ele>
        <time>2019-03-24T14:22:23Z</time>
      </trkpt>
      <trkpt lat="45.18525" lon="5.61772">
        <ele>914.94737390394</ele>
        <time>2019-03-24T14:22:27Z</time>
      </trkpt>
      <trkpt lat="45.18543" lon="5.61741">
        <ele>913.98200177106</ele>
        <time>2019-03-24T14:22:32Z</time>
      </trkpt>
      <trkpt lat="45.18565" lon="5.61715">
        <ele>913.96767256477</ele>
        <time>2019-03-24T14:22:37Z</time>
      </trkpt>
      <trkpt lat="45.18581" lon="5.61698">
        <ele>914.36481419436</ele>
        <time>2019-03-24T14:22:41Z</time>
      </trkpt>
      <trkpt lat="45.18598" lon="5.61678">
        <ele>915.13610995912</ele>
        <time>2019-03-24T14:22:46Z</time>
      </trkpt>
      <trkpt lat="45.18612" lon="5.61665">
        <ele>915.59226997056</ele>
        <time>2019-03-24T14:22:50Z</time>
      </trkpt>
      <trkpt lat="45.18627" lon="5.61654">
        <ele>915.39932440026</ele>
        <time>2019-03-24T14:22:54Z</time>
      </trkpt>
      <trkpt lat="45.18648" lon="5.61631">
        <ele>914.00395734116</ele>
        <time>2019-03-24T14:22:59Z</time>
      </trkpt>
      <trkpt lat="45.18663" lon="5.61605">
        <ele>913.72163114459</ele>
        <time>2019-03-24T14:23:03Z</time>
      </trkpt>
      <trkpt lat="45.18674" lon="5.61585">
        <ele>913.68725359477</ele>
        <time>2019-03-24T14:23:06Z</time>
      </trkpt>
      <trkpt lat="45.18684" lon="5.61557">
        <ele>913.78321269583</ele>
        <time>2019-03-24T14:23:10Z</time>
      </trkpt>
      <trkpt lat="45.18689" lon="5.61521">
        <ele>914.03221879711</ele>
        <time>2019-03-24T14:23:15Z</time>
      </trkpt>
      <trkpt lat="45.18701" lon="5.61493">
        <ele>914.53698029074</ele>
        <time>2019-03-24T14:23:20Z</time>
      </trkpt>
      <trkpt lat="45.18716" lon="5.61488">
        <ele>915.6167372854</ele>
        <time>2019-03-24T14:23:24Z</time>
      </trkpt>
      <trkpt lat="45.1873" lon="5.61502">
        <ele>916.54174387265</ele>
        <time>2019-03-24T14:23:29Z</time>
      </trkpt>
      <trkpt lat="45.18742" lon="5.61525">
        <ele>917.04942012665</ele>
        <time>2019-03-24T14:23:34Z</time>
      </trkpt>
      <trkpt lat="45.18748" lon="5.61539">
        <ele>917.25904072379</ele>
        <time>2019-03-24T14:23:37Z</time>
      </trkpt>
      <trkpt lat="45.18757" lon="5.61557">
        <ele>917.6883460724</ele>
        <time>2019-03-24T14:23:41Z</time>
      </trkpt>
      <trkpt lat="45.18763" lon="5.61571">
        <ele>917.93152025938</ele>
        <time>2019-03-24T14:23:44Z</time>
      </trkpt>
      <trkpt lat="45.18771" lon="5.61592">
        <ele>917.94058198294</ele>
        <time>2019-03-24T14:23:48Z</time>
      </trkpt>
      <trkpt lat="45.18778" lon="5.61622">
        <ele>917.87781337408</ele>
        <time>2019-03-24T14:23:53Z</time>
      </trkpt>
      <trkpt lat="45.18782" lon="5.61647">
        <ele>918.07407660666</ele>
        <time>2019-03-24T14:23:57Z</time>
      </trkpt>
      <trkpt lat="45.18785" lon="5.61664">
        <ele>918.28119890916</ele>
        <time>2019-03-24T14:24:00Z</time>
      </trkpt>
      <trkpt lat="45.1879" lon="5.61685">
        <ele>918.72066050169</ele>
        <time>2019-03-24T14:24:04Z</time>
      </trkpt>
      <trkpt lat="45.18795" lon="5.61706">
        <ele>919.07678360091</ele>
        <time>2019-03-24T14:24:08Z</time>
      </trkpt>
      <trkpt lat="45.18801" lon="5.6173">
        <ele>919.46653363994</ele>
        <time>2019-03-24T14:24:13Z</time>
      </trkpt>
      <trkpt lat="45.18804" lon="5.61746">
        <ele>919.61504409726</ele>
        <time>2019-03-24T14:24:16Z</time>
      </trkpt>
      <trkpt lat="45.18808" lon="5.61775">
        <ele>920.13124305877</ele>
        <time>2019-03-24T14:24:21Z</time>
      </trkpt>
      <trkpt lat="45.18811" lon="5.61798">
        <ele>920.64740989119</ele>
        <time>2019-03-24T14:24:25Z</time>
      </trkpt>
      <trkpt lat="45.18813" lon="5.61815">
        <ele>921.43651155966</ele>
        <time>2019-03-24T14:24:28Z</time>
      </trkpt>
      <trkpt lat="45.18817" lon="5.61837">
        <ele>922.87459696022</ele>
        <time>2019-03-24T14:24:33Z</time>
      </trkpt>
      <trkpt lat="45.18823" lon="5.61862">
        <ele>923.3150169652</ele>
        <time>2019-03-24T14:24:37Z</time>
      </trkpt>
      <trkpt lat="45.1883" lon="5.61888">
        <ele>921.89657663579</ele>
        <time>2019-03-24T14:24:41Z</time>
      </trkpt>
      <trkpt lat="45.18839" lon="5.61911">
        <ele>920.23700642752</ele>
        <time>2019-03-24T14:24:44Z</time>
      </trkpt>
      <trkpt lat="45.18859" lon="5.61942">
        <ele>917.72286867969</ele>
        <time>2019-03-24T14:24:48Z</time>
      </trkpt>
      <trkpt lat="45.18881" lon="5.61962">
        <ele>915.25310767608</ele>
        <time>2019-03-24T14:24:51Z</time>
      </trkpt>
      <trkpt lat="45.18915" lon="5.61976">
        <ele>913.52879657007</ele>
        <time>2019-03-24T14:24:55Z</time>
      </trkpt>
      <trkpt lat="45.18946" lon="5.61976">
        <ele>913.68659408693</ele>
        <time>2019-03-24T14:24:59Z</time>
      </trkpt>
      <trkpt lat="45.18971" lon="5.61974">
        <ele>914.20006485229</ele>
        <time>2019-03-24T14:25:03Z</time>
      </trkpt>
      <trkpt lat="45.18986" lon="5.61972">
        <ele>914.3410673173</ele>
        <time>2019-03-24T14:25:06Z</time>
      </trkpt>
      <trkpt lat="45.19005" lon="5.6197">
        <ele>914.59466615995</ele>
        <time>2019-03-24T14:25:10Z</time>
      </trkpt>
      <trkpt lat="45.19019" lon="5.61978">
        <ele>913.32838370485</ele>
        <time>2019-03-24T14:25:14Z</time>
      </trkpt>
      <trkpt lat="45.19027" lon="5.61983">
        <ele>911.45853361614</ele>
        <time>2019-03-24T14:25:17Z</time>
      </trkpt>
      <trkpt lat="45.1903" lon="5.61982">
        <ele>911.37403965307</ele>
        <time>2019-03-24T14:26:30Z</time>
      </trkpt>
      <trkpt lat="45.19026" lon="5.61981">
        <ele>915.34643354984</ele>
        <time>2019-03-24T14:27:32Z</time>
      </trkpt>
      <trkpt lat="45.19027" lon="5.61986">
        <ele>915.4216901647</ele>
        <time>2019-03-24T14:28:11Z</time>
      </trkpt>
      <trkpt lat="45.19027" lon="5.61993">
        <ele>907.93443965409</ele>
        <time>2019-03-24T14:28:31Z</time>
      </trkpt>
      <trkpt lat="45.19023" lon="5.61995">
        <ele>905.58289896533</ele>
        <time>2019-03-24T14:32:02Z</time>
      </trkpt>
      <trkpt lat="45.19027" lon="5.61993">
        <ele>905.76224342379</ele>
        <time>2019-03-24T14:33:15Z</time>
      </trkpt>
      <trkpt lat="45.19029" lon="5.61993">
        <ele>906.3287910361</ele>
        <time>2019-03-24T14:33:25Z</time>
      </trkpt>
      <trkpt lat="45.19029" lon="5.61993">
        <ele>906.3287910361</ele>
        <time>2019-03-24T14:33:27Z</time>
      </trkpt>
    </trkseg>
  </trk>
</gpx>